[[{"header":{"parameterUnit":"m.s-1","parameterCategory":1,"la1":31.0,"la2":29.5877,"lo1":-88.7671,"lo2":-86.6584,"dx":0.0162,"dy":0.0185,"nx":115,"ny":88,"refTime":"2023-01-11T06:00:00:Z","depth":0,"parameterNumber":2,"parameterNumberName":"U-component_of_WINDS"},"data":[0.0,0.0,0.0,0.0,0.0,0.0,0.0,0.0,0.0,0.0,0.0,0.0,0.0,0.0,0.0,0.0,0.0,0.0,0.0,0.0,0.0,0.0,0.0,0.0,0.0,0.0,0.0,0.0,0.0,0.0,0.0,0.0,0.0,0.0,0.0,0.0,0.0,0.0,0.0,0.0,0.0,0.0,0.0,0.0,0.0,0.0,0.0,0.0,0.0,0.0,0.0,0.0,0.0,0.0,0.0,0.0,0.0,0.0,0.0,0.0,0.0,0.0,0.0,0.0,0.0,0.0,0.0,0.0,0.0,0.0,0.0,0.0,0.0,0.0,0.0,0.0,0.0,0.0,0.0,0.0,0.0,0.0,0.0,0.0,0.0,0.0,0.0,0.0,0.0,0.0,0.0,0.0,0.0,0.0,0.0,0.0,0.0,0.0,0.0,0.0,0.0,0.0,0.0,0.0,0.0,0.0,0.0,0.0,0.0,0.0,0.0,0.0,0.0,0.0,0.0,0.0,0.0,0.0,0.0,0.0,0.0,0.0,0.0,0.0,0.0,0.0,0.0,0.0,0.0,0.0,0.0,0.0,0.0,0.0,0.0,0.0,0.0,0.0,0.0,0.0,0.0,0.0,0.0,0.0,0.0,0.0,0.0,0.0,0.0,0.0,0.0,0.0,0.0,0.0,0.0,0.0,0.0,0.0,0.0,0.0,0.0,0.0,0.0,0.0,0.0,0.0,0.0,0.0,0.0,0.0,0.0,0.0,0.0,0.0,0.0,0.0,0.0,0.0,0.0,0.0,0.0,0.0,0.0,0.0,0.0,0.0,0.0,0.0,0.0,0.0,0.0,0.0,0.0,0.0,0.0,0.0,0.0,0.0,0.0,0.0,0.0,0.0,0.0,0.0,0.0,0.0,0.0,0.0,0.0,0.0,0.0,0.0,0.0,0.0,0.0,0.0,0.0,0.0,0.0,0.0,0.0,0.0,0.0,0.0,0.0,0.0,0.0,0.0,0.0,0.0,0.0,0.0,0.0,0.0,0.0,0.0,0.0,0.0,0.0,0.0,0.0,0.0,0.0,0.0,0.0,0.0,0.0,0.0,0.0,0.0,0.0,0.0,0.0,0.0,0.0,0.0,0.0,0.0,0.0,0.0,0.0,0.0,0.0,0.0,0.0,0.0,0.0,0.0,0.0,0.0,0.0,0.0,0.0,0.0,0.0,0.0,0.0,0.0,0.0,0.0,0.0,0.0,0.0,0.0,0.0,0.0,0.0,0.0,0.0,0.0,0.0,0.0,0.0,0.0,0.0,0.0,0.0,0.0,0.0,0.0,0.0,0.0,0.0,0.0,0.0,0.0,0.0,0.0,0.0,0.0,0.0,0.0,0.0,0.0,0.0,0.0,0.0,0.0,0.0,0.0,0.0,0.0,0.0,0.0,0.0,0.0,0.0,0.0,0.0,0.0,0.0,0.0,0.0,0.0,0.0,0.0,0.0,0.0,0.0,0.0,0.0,0.0,0.0,0.0,0.0,0.0,0.0,0.0,0.0,0.0,0.0,0.0,0.0,0.0,0.0,0.0,0.0,0.0,0.0,0.0,0.0,0.0,0.0,0.0,0.0,0.0,0.0,0.0,0.0,0.0,0.0,0.0,0.0,0.0,0.0,0.0,0.0,0.0,0.0,0.0,0.0,0.0,0.0,0.0,0.0,0.0,0.0,0.0,0.0,0.0,0.0,0.0,0.0,0.0,0.0,0.0,0.0,0.0,0.0,0.0,0.0,0.0,0.0,0.0,0.0,0.0,0.0,0.0,0.0,0.0,0.0,0.0,0.0,0.0,0.0,0.0,0.0,0.0,0.0,0.0,0.0,0.0,0.0,0.0,0.0,0.0,0.0,0.0,0.0,0.0,0.0,0.0,0.0,0.0,0.0,0.0,0.0,0.0,0.0,0.0,0.0,0.0,0.0,0.0,0.0,0.0,0.0,0.0,0.0,0.0,0.0,0.0,0.0,0.0,0.0,0.0,0.0,0.0,0.0,0.0,0.0,0.0,0.0,0.0,0.0,0.0,0.0,0.0,0.0,0.0,0.0,0.0,0.0,0.0,0.0,0.0,0.0,0.0,0.0,0.0,0.0,0.0,0.0,0.0,0.0,0.0,0.0,0.0,0.0,0.0,0.0,0.0,0.0,0.0,0.0,0.0,0.0,0.0,0.0,0.0,0.0,0.0,0.0,0.0,0.0,0.0,0.0,0.0,0.0,0.0,0.0,0.0,0.0,0.0,0.0,0.0,0.0,0.0,0.0,0.0,0.0,0.0,0.0,0.0,0.0,0.0,0.0,0.0,0.0,0.0,0.0,0.0,0.0,0.0,0.0,0.0,0.0,0.0,0.0,0.0,0.0,0.0,0.0,0.0,0.0,0.0,0.0,0.0,0.0,0.0,0.0,0.0,0.0,0.0,0.0,0.0,0.0,0.0,0.0,0.0,0.0,0.0,0.0,0.0,0.0,0.0,0.0,0.0,0.0,0.0,0.0,0.0,0.0,0.0,0.0,0.0,0.0,0.0,0.0,0.0,0.0,0.0,0.0,0.0,0.0,0.0,0.0,0.0,0.0,0.0,0.0,0.0,0.0,0.0,0.0,0.0,0.0,0.0,0.0,0.0,0.0,0.0,0.0,0.0,0.0,0.0,0.0,0.0,0.0,0.0,0.0,0.0,0.0,0.0,0.0,0.0,0.0,0.0,0.0,0.0,0.0,0.0,0.0,0.0,0.0,0.0,0.0,0.0,0.0,0.0,0.0,0.0,0.0,0.0,0.0,0.0,0.0,0.0,0.0,0.0,0.0,0.0,0.0,0.0,0.0,0.0,0.0,0.0,0.0,0.0,0.0,0.0,0.0,0.0,0.0,0.0,0.0,0.0,0.0,0.0,0.0,0.0,0.0,0.0,0.0,0.0,0.0,0.0,0.0,0.0,0.0,0.0,0.0,0.0,0.0,0.0,0.0,0.0,0.0,0.0,0.0,0.0,0.0,0.0,0.0,0.0,0.0,0.0,0.0,0.0,0.0,0.0,0.0,0.0,0.0,0.0,0.0,0.0,0.0,0.0,0.0,0.0,0.0,0.0,0.0,0.0,0.0,0.0,0.0,0.0,0.0,0.0,0.0,0.0,0.0,0.0,0.0,0.0,0.0,0.0,0.0,0.0,0.0,0.0,0.0,0.0,0.0,0.0,0.0,0.0,0.0,0.0,0.0,0.0,0.0,0.0,0.0,0.0,0.0,0.0,0.0,0.0,0.0,0.0,0.0,0.0,0.0,0.0,0.0,0.0,0.0,0.0,0.0,0.0,0.0,0.0,0.0,0.0,0.0,0.0,0.0,0.0,0.0,0.0,0.0,0.0,0.0,0.0,0.0,0.0,0.0,0.0,0.0,0.0,0.0,0.0,0.0,0.0,0.0,0.0,0.0,0.0,0.0,0.0,0.0,0.0,0.0,0.0,0.0,0.0,0.0,0.0,0.0,0.0,0.0,0.0,0.0,0.0,0.0,0.0,0.0,0.0,0.0,0.0,0.0,0.0,0.0,0.0,0.0,0.0,0.0,0.0,0.0,0.0,0.0,0.0,0.0,0.0,0.0,0.0,0.0,0.0,0.0,0.0,0.0,0.0,0.0,0.0,0.0,0.0,0.0,0.0,0.0,0.0,0.0,0.0,0.0,0.0,0.0,0.0,0.0,0.0,0.0,0.0,0.0,0.0,0.0,0.0,0.0,0.0,0.0,0.0,0.0,0.0,0.0,0.0,0.0,0.0,0.0,0.0,0.0,0.0,0.0,0.0,0.0,0.0,0.0,0.0,0.0,0.0,0.0,0.0,0.0,0.0,0.0,0.0,0.0,0.0,0.0,0.0,0.0,0.0,0.0,0.0,0.0,0.0,0.0,0.0,0.0,0.0,0.0,0.0,0.0,0.0,0.0,0.0,0.0,0.0,0.0,0.0,0.0,0.0,0.0,0.0,0.0,0.0,0.0,0.0,0.0,0.0,0.0,0.0,0.0,0.0,0.0,0.0,0.0,0.0,0.0,0.0,0.0,0.0,0.0,0.0,0.0,0.0,0.0,0.0,0.0,0.0,0.0,0.0,0.0,0.0,0.0,0.0,0.0,0.0,0.0,0.0,0.0,0.0,0.0,0.0,0.0,0.0,0.0,0.0,0.0,0.0,0.0,0.0,0.0,0.0,0.0,0.0,0.0,0.0,0.0,0.0,0.0,0.0,1.9775,0.0,0.0,0.0,1.9587,0.0,0.0,0.0,0.0,0.0,0.0,0.0,0.0,0.0,0.0,0.0,0.0,0.0,0.0,0.0,0.0,0.0,0.0,0.0,0.0,0.0,0.0,0.0,0.0,0.0,0.0,0.0,0.0,0.0,0.0,0.0,0.0,0.0,0.0,0.0,0.0,0.0,0.0,0.0,0.0,0.0,0.0,0.0,0.0,0.0,0.0,0.0,0.0,0.0,0.0,0.0,0.0,0.0,0.0,0.0,0.0,0.0,0.0,0.0,0.0,0.0,0.0,0.0,0.0,0.0,0.0,0.0,0.0,0.0,0.0,0.0,0.0,0.0,0.0,0.0,0.0,0.0,0.0,0.0,0.0,0.0,0.0,0.0,0.0,0.0,0.0,0.0,0.0,0.0,0.0,0.0,0.0,0.0,0.0,0.0,0.0,0.0,0.0,0.0,0.0,0.0,0.0,0.0,0.0,0.0,0.0,0.0,0.0,0.0,0.0,2.0049,2.0439,2.0,1.9897,2.028,0.0,0.0,0.0,0.0,0.0,0.0,0.0,0.0,0.0,0.0,0.0,0.0,0.0,0.0,0.0,0.0,0.0,0.0,0.0,0.0,0.0,0.0,0.0,0.0,0.0,0.0,0.0,0.0,0.0,0.0,0.0,0.0,0.0,0.0,0.0,0.0,0.0,0.0,0.0,0.0,0.0,0.0,0.0,0.0,0.0,0.0,0.0,0.0,0.0,0.0,0.0,0.0,0.0,0.0,0.0,0.0,0.0,0.0,0.0,0.0,0.0,0.0,0.0,0.0,0.0,0.0,0.0,0.0,0.0,0.0,0.0,0.0,0.0,0.0,0.0,0.0,0.0,0.0,0.0,0.0,0.0,0.0,0.0,0.0,0.0,0.0,0.0,0.0,0.0,0.0,0.0,0.0,0.0,0.0,0.0,0.0,0.0,0.0,0.0,0.0,0.0,0.0,0.0,0.0,0.0,0.0,0.0,0.0,0.0,0.0,0.0,0.0,2.0615,2.0527,2.0872,0.0,0.0,0.0,0.0,0.0,0.0,0.0,0.0,0.0,0.0,0.0,0.0,0.0,0.0,0.0,0.0,0.0,0.0,0.0,0.0,0.0,0.0,0.0,0.0,0.0,0.0,0.0,0.0,0.0,0.0,0.0,0.0,0.0,0.0,0.0,0.0,0.0,0.0,0.0,0.0,0.0,0.0,0.0,0.0,0.0,0.0,0.0,0.0,0.0,0.0,0.0,0.0,0.0,0.0,0.0,0.0,0.0,0.0,0.0,0.0,0.0,0.0,0.0,0.0,0.0,0.0,0.0,0.0,0.0,0.0,0.0,0.0,0.0,0.0,0.0,0.0,0.0,0.0,0.0,0.0,0.0,0.0,0.0,0.0,0.0,0.0,0.0,0.0,0.0,0.0,0.0,0.0,0.0,0.0,0.0,0.0,0.0,0.0,0.0,0.0,0.0,0.0,0.0,0.0,0.0,0.0,0.0,0.0,0.0,0.0,2.1091,2.1104,2.1758,0.0,2.1012,0.0,0.0,0.0,0.0,0.0,0.0,0.0,0.0,0.0,0.0,0.0,0.0,0.0,0.0,0.0,0.0,0.0,0.0,0.0,0.0,0.0,0.0,0.0,0.0,0.0,0.0,0.0,0.0,0.0,0.0,0.0,0.0,0.0,0.0,0.0,0.0,0.0,0.0,0.0,0.0,0.0,0.0,0.0,0.0,0.0,0.0,0.0,0.0,0.0,0.0,0.0,0.0,0.0,0.0,0.0,0.0,0.0,0.0,0.0,0.0,0.0,0.0,0.0,0.0,0.0,0.0,0.0,0.0,0.0,0.0,0.0,0.0,0.0,0.0,0.0,0.0,0.0,0.0,0.0,0.0,0.0,0.0,0.0,0.0,0.0,0.0,0.0,0.0,0.0,0.0,0.0,0.0,0.0,0.0,0.0,0.0,0.0,0.0,0.0,0.0,0.0,0.0,0.0,0.0,0.0,0.0,0.0,0.0,0.0,0.0,2.173,2.269,2.2981,2.2463,0.0,0.0,0.0,0.0,0.0,0.0,0.0,0.0,0.0,0.0,0.0,0.0,0.0,0.0,0.0,0.0,0.0,0.0,0.0,0.0,0.0,0.0,0.0,0.0,0.0,0.0,0.0,0.0,0.0,0.0,0.0,0.0,0.0,0.0,0.0,0.0,0.0,0.0,0.0,0.0,0.0,0.0,0.0,0.0,0.0,0.0,0.0,0.0,0.0,0.0,0.0,0.0,0.0,0.0,0.0,0.0,0.0,0.0,0.0,0.0,0.0,0.0,0.0,0.0,0.0,0.0,0.0,0.0,0.0,0.0,0.0,0.0,0.0,0.0,0.0,0.0,0.0,0.0,0.0,0.0,0.0,0.0,0.0,0.0,0.0,0.0,0.0,0.0,0.0,0.0,0.0,0.0,0.0,0.0,0.0,0.0,0.0,0.0,0.0,0.0,0.0,0.0,0.0,0.0,0.0,0.0,0.0,0.0,0.0,0.0,2.1738,2.2699,2.4055,2.3891,2.3032,2.1519,0.0,0.0,0.0,0.0,0.0,0.0,0.0,0.0,0.0,0.0,0.0,0.0,0.0,0.0,0.0,0.0,0.0,0.0,0.0,0.0,0.0,0.0,0.0,0.0,0.0,0.0,0.0,0.0,0.0,0.0,0.0,0.0,0.0,0.0,0.0,0.0,0.0,0.0,0.0,0.0,0.0,0.0,0.0,0.0,0.0,0.0,0.0,0.0,0.0,0.0,0.0,0.0,0.0,0.0,0.0,0.0,0.0,0.0,0.0,0.0,0.0,0.0,0.0,0.0,0.0,0.0,0.0,0.0,0.0,0.0,0.0,0.0,0.0,0.0,0.0,0.0,0.0,0.0,0.0,0.0,0.0,0.0,0.0,0.0,0.0,0.0,0.0,0.0,0.0,0.0,0.0,0.0,0.0,0.0,0.0,0.0,0.0,0.0,0.0,0.0,0.0,0.0,0.0,0.0,0.0,0.0,0.0,0.0,2.1384,2.2901,2.4131,2.5006,2.4208,2.3385,0.0,0.0,0.0,0.0,0.0,0.0,0.0,0.0,0.0,0.0,0.0,0.0,0.0,0.0,0.0,0.0,0.0,0.0,0.0,0.0,0.0,0.0,0.0,0.0,0.0,0.0,0.0,0.0,0.0,0.0,0.0,0.0,0.0,0.0,0.0,0.0,0.0,0.0,0.0,0.0,0.0,0.0,0.0,0.0,0.0,0.0,0.0,0.0,0.0,0.0,0.0,0.0,0.0,0.0,0.0,0.0,0.0,0.0,0.0,0.0,0.0,0.0,0.0,0.0,0.0,0.0,0.0,0.0,0.0,0.0,0.0,0.0,0.0,0.0,0.0,0.0,0.0,0.0,0.0,0.0,0.0,0.0,0.0,0.0,0.0,0.0,0.0,0.0,0.0,0.0,0.0,0.0,0.0,0.0,0.0,0.0,0.0,0.0,0.0,0.0,0.0,0.0,0.0,0.0,0.0,0.0,0.0,0.0,0.0,2.2962,2.4598,2.5602,2.5882,2.5577,2.474,0.0,0.0,0.0,0.0,0.0,0.0,0.0,0.0,0.0,0.0,0.0,0.0,0.0,0.0,0.0,0.0,0.0,0.0,0.0,0.0,0.0,0.0,0.0,0.0,0.0,0.0,0.0,0.0,0.0,0.0,0.0,0.0,0.0,0.0,0.0,0.0,0.0,0.0,0.0,0.0,0.0,0.0,0.0,0.0,0.0,0.0,0.0,0.0,0.0,0.0,0.0,0.0,0.0,0.0,0.0,0.0,0.0,0.0,0.0,0.0,0.0,0.0,0.0,0.0,0.0,0.0,0.0,0.0,0.0,0.0,0.0,0.0,0.0,0.0,0.0,0.0,0.0,0.0,0.0,0.0,0.0,0.0,0.0,0.0,0.0,0.0,0.0,0.0,0.0,0.0,0.0,0.0,0.0,0.0,0.0,0.0,0.0,0.0,0.0,0.0,0.0,0.0,0.0,0.0,0.0,0.0,0.0,0.0,0.0,2.5068,2.6466,2.723,2.7217,2.6898,2.5945,0.0,0.0,0.0,0.0,0.0,0.0,0.0,0.0,0.0,0.0,0.0,0.0,0.0,0.0,0.0,0.0,0.0,0.0,0.0,0.0,0.0,0.0,0.0,0.0,0.0,0.0,0.0,0.0,0.0,0.0,0.0,0.0,0.0,0.0,0.0,0.0,0.0,0.0,0.0,0.0,0.0,0.0,0.0,0.0,0.0,0.0,0.0,0.0,0.0,0.0,0.0,0.0,0.0,0.0,0.0,0.0,0.0,0.0,0.0,0.0,0.0,0.0,0.0,0.0,0.0,0.0,0.0,0.0,0.0,0.0,0.0,0.0,0.0,0.0,0.0,0.0,0.0,0.0,0.0,0.0,0.0,0.0,0.0,0.0,0.0,0.0,0.0,0.0,0.0,0.0,0.0,0.0,0.0,0.0,0.0,0.0,0.0,0.0,0.0,0.0,0.0,0.0,0.0,0.0,0.0,0.0,0.0,0.0,2.512,2.7625,2.8542,2.8949,2.8911,2.8131,2.6885,0.0,0.0,0.0,0.0,0.0,0.0,0.0,0.0,0.0,0.0,0.0,0.0,0.0,0.0,0.0,0.0,0.0,0.0,0.0,0.0,0.0,0.0,0.0,0.0,0.0,0.0,0.0,0.0,0.0,0.0,0.0,0.0,0.0,0.0,0.0,0.0,0.0,0.0,0.0,0.0,0.0,0.0,0.0,0.0,0.0,0.0,0.0,0.0,0.0,0.0,0.0,0.0,0.0,0.0,0.0,0.0,0.0,0.0,0.0,0.0,0.0,0.0,0.0,0.0,0.0,0.0,0.0,0.0,0.0,0.0,0.0,0.0,0.0,0.0,0.0,0.0,0.0,0.0,0.0,0.0,0.0,0.0,0.0,0.0,0.0,0.0,0.0,0.0,0.0,0.0,0.0,0.0,0.0,0.0,0.0,0.0,0.0,0.0,0.0,0.0,0.0,0.0,0.0,0.0,0.0,0.0,0.0,0.0,0.0,2.9461,3.0877,3.1298,3.0724,3.0318,2.9131,0.0,0.0,0.0,0.0,0.0,0.0,0.0,0.0,0.0,0.0,0.0,0.0,0.0,0.0,0.0,0.0,0.0,0.0,0.0,0.0,0.0,0.0,0.0,0.0,0.0,0.0,0.0,0.0,0.0,0.0,0.0,0.0,0.0,0.0,0.0,0.0,0.0,0.0,0.0,0.0,0.0,0.0,0.0,0.0,0.0,0.0,0.0,0.0,0.0,0.0,0.0,0.0,0.0,0.0,0.0,0.0,0.0,0.0,0.0,0.0,0.0,0.0,0.0,0.0,0.0,0.0,0.0,0.0,0.0,0.0,0.0,0.0,0.0,0.0,0.0,0.0,0.0,0.0,0.0,0.0,0.0,0.0,0.0,0.0,0.0,0.0,0.0,0.0,0.0,0.0,0.0,0.0,0.0,0.0,0.0,0.0,0.0,0.0,0.0,0.0,0.0,0.0,0.0,0.0,0.0,0.0,0.0,0.0,0.0,3.2168,3.3202,3.347,3.2934,3.2165,3.0617,2.8127,0.0,0.0,0.0,0.0,0.0,0.0,0.0,0.0,0.0,0.0,0.0,0.0,0.0,0.0,0.0,0.0,0.0,0.0,0.0,0.0,0.0,0.0,0.0,0.0,0.0,0.0,0.0,0.0,0.0,0.0,0.0,0.0,0.0,0.0,0.0,0.0,0.0,0.0,0.0,0.0,0.0,0.0,0.0,0.0,0.0,0.0,0.0,0.0,0.0,0.0,0.0,0.0,0.0,0.0,0.0,0.0,0.0,0.0,0.0,0.0,0.0,0.0,0.0,0.0,0.0,0.0,0.0,0.0,0.0,0.0,0.0,0.0,0.0,0.0,0.0,0.0,0.0,0.0,0.0,0.0,0.0,0.0,0.0,0.0,0.0,0.0,0.0,0.0,0.0,0.0,0.0,0.0,0.0,0.0,0.0,0.0,0.0,0.0,0.0,0.0,0.0,0.0,0.0,0.0,0.0,0.0,0.0,0.0,3.5369,3.5446,3.5446,3.5308,3.3669,3.1515,0.0,0.0,0.0,0.0,0.0,0.0,0.0,0.0,0.0,0.0,0.0,0.0,0.0,0.0,0.0,0.0,0.0,0.0,0.0,0.0,0.0,0.0,0.0,0.0,0.0,0.0,0.0,0.0,0.0,0.0,0.0,0.0,0.0,0.0,0.0,0.0,0.0,0.0,0.0,0.0,0.0,0.0,0.0,0.0,0.0,0.0,0.0,0.0,0.0,0.0,0.0,0.0,0.0,0.0,0.0,0.0,0.0,0.0,0.0,0.0,0.0,0.0,0.0,0.0,0.0,0.0,0.0,0.0,0.0,0.0,0.0,0.0,0.0,0.0,0.0,0.0,0.0,0.0,0.0,0.0,0.0,0.0,0.0,0.0,0.0,0.0,0.0,0.0,0.0,0.0,0.0,0.0,0.0,0.0,0.0,0.0,0.0,0.0,0.0,0.0,0.0,0.0,0.0,0.0,0.0,0.0,0.0,0.0,0.0,3.6173,3.7474,3.7513,3.6211,3.5064,3.2978,0.0,0.0,0.0,0.0,0.0,0.0,0.0,0.0,0.0,0.0,0.0,0.0,0.0,0.0,0.0,0.0,0.0,0.0,0.0,0.0,0.0,0.0,0.0,0.0,0.0,0.0,0.0,0.0,0.0,0.0,0.0,0.0,0.0,0.0,0.0,0.0,0.0,0.0,0.0,0.0,0.0,0.0,0.0,0.0,0.0,0.0,0.0,0.0,0.0,0.0,0.0,0.0,0.0,0.0,0.0,0.0,0.0,0.0,0.0,0.0,0.0,0.0,0.0,0.0,0.0,0.0,0.0,0.0,0.0,0.0,0.0,0.0,0.0,0.0,0.0,0.0,0.0,0.0,0.0,0.0,0.0,0.0,0.0,0.0,0.0,0.0,0.0,0.0,0.0,0.0,0.0,0.0,0.0,0.0,0.0,0.0,0.0,0.0,0.0,0.0,0.0,0.0,0.0,0.0,0.0,0.0,0.0,0.0,3.5223,3.7037,3.8741,3.8971,3.7555,3.6323,3.4044,0.0,0.0,0.0,0.0,0.0,0.0,0.0,0.0,0.0,0.0,0.0,0.0,0.0,0.0,0.0,0.0,0.0,0.0,0.0,0.0,0.0,0.0,0.0,0.0,0.0,0.0,0.0,0.0,0.0,0.0,0.0,0.0,0.0,0.0,0.0,0.0,0.0,0.0,0.0,0.0,0.0,0.0,0.0,0.0,0.0,0.0,0.0,0.0,0.0,0.0,0.0,0.0,0.0,0.0,0.0,0.0,0.0,0.0,0.0,0.0,0.0,0.0,0.0,0.0,0.0,0.0,0.0,0.0,0.0,0.0,0.0,0.0,0.0,0.0,0.0,0.0,0.0,0.0,0.0,0.0,0.0,0.0,0.0,0.0,0.0,0.0,0.0,0.0,0.0,0.0,0.0,0.0,0.0,0.0,0.0,0.0,0.0,0.0,0.0,0.0,0.0,0.0,0.0,0.0,0.0,0.0,0.0,0.0,3.6858,3.7827,3.9431,3.989,3.9011,3.7297,3.4826,0.0,0.0,0.0,0.0,0.0,0.0,0.0,0.0,0.0,0.0,0.0,0.0,0.0,0.0,0.0,0.0,0.0,0.0,0.0,0.0,0.0,0.0,0.0,0.0,0.0,0.0,0.0,0.0,0.0,0.0,0.0,0.0,0.0,0.0,0.0,0.0,0.0,0.0,0.0,0.0,0.0,0.0,0.0,0.0,0.0,0.0,0.0,0.0,0.0,0.0,0.0,0.0,0.0,0.0,0.0,0.0,0.0,0.0,0.0,0.0,0.0,0.0,0.0,0.0,0.0,0.0,0.0,0.0,0.0,0.0,0.0,0.0,0.0,0.0,0.0,0.0,0.0,0.0,0.0,0.0,0.0,0.0,0.0,0.0,0.0,0.0,0.0,0.0,0.0,0.0,0.0,0.0,0.0,0.0,0.0,0.0,0.0,0.0,0.0,0.0,0.0,0.0,0.0,0.0,0.0,0.0,0.0,0.0,3.7163,3.8706,3.9775,3.989,3.9011,3.7315,3.5107,0.0,0.0,0.0,0.0,0.0,0.0,0.0,0.0,0.0,0.0,0.0,0.0,0.0,0.0,0.0,0.0,0.0,0.0,0.0,0.0,0.0,0.0,0.0,0.0,0.0,0.0,0.0,0.0,0.0,0.0,0.0,0.0,0.0,0.0,0.0,0.0,0.0,0.0,0.0,0.0,0.0,0.0,0.0,0.0,0.0,0.0,0.0,0.0,2.512,0.0,0.0,0.0,0.0,0.0,0.0,0.0,0.0,0.0,0.0,0.0,0.0,0.0,0.0,0.0,0.0,0.0,0.0,0.0,0.0,0.0,0.0,0.0,0.0,0.0,0.0,0.0,0.0,0.0,0.0,0.0,0.0,0.0,0.0,0.0,0.0,0.0,0.0,0.0,0.0,0.0,0.0,0.0,0.0,0.0,0.0,0.0,0.0,0.0,0.0,0.0,0.0,0.0,0.0,0.0,0.0,0.0,0.0,0.0,3.7603,3.8898,3.9833,4.0081,3.9584,3.7944,3.581,0.0,0.0,0.0,0.0,0.0,0.0,0.0,0.0,0.0,0.0,0.0,0.0,0.0,0.0,0.0,0.0,0.0,0.0,0.0,0.0,0.0,0.0,0.0,0.0,0.0,0.0,0.0,0.0,0.0,0.0,0.0,0.0,0.0,0.0,0.0,0.0,0.0,0.0,0.0,0.0,0.0,0.0,0.0,0.0,0.0,0.0,0.0,0.0,0.0,0.0,0.0,0.0,0.0,0.0,0.0,0.0,0.0,0.0,0.0,0.0,0.0,0.0,0.0,0.0,0.0,0.0,0.0,0.0,0.0,0.0,0.0,0.0,0.0,0.0,0.0,0.0,0.0,0.0,0.0,0.0,0.0,0.0,0.0,0.0,0.0,0.0,0.0,0.0,0.0,0.0,0.0,0.0,0.0,0.0,0.0,0.0,0.0,0.0,0.0,0.0,0.0,0.0,0.0,0.0,0.0,0.0,0.0,3.635,3.8099,3.909,3.9891,4.031,4.0272,3.8631,3.6535,3.4082,0.0,0.0,0.0,0.0,0.0,0.0,0.0,0.0,0.0,0.0,0.0,0.0,0.0,0.0,0.0,0.0,0.0,0.0,0.0,0.0,0.0,0.0,0.0,0.0,0.0,0.0,0.0,0.0,0.0,0.0,0.0,0.0,0.0,0.0,0.0,0.0,0.0,0.0,2.4748,2.5853,0.0,0.0,0.0,0.0,0.0,0.0,0.0,0.0,2.6504,0.0,0.0,0.0,0.0,0.0,0.0,0.0,0.0,0.0,0.0,0.0,0.0,0.0,0.0,0.0,0.0,0.0,0.0,0.0,0.0,0.0,0.0,0.0,0.0,0.0,0.0,0.0,0.0,0.0,0.0,0.0,0.0,0.0,0.0,0.0,0.0,0.0,0.0,0.0,0.0,0.0,0.0,0.0,0.0,0.0,0.0,0.0,0.0,0.0,0.0,0.0,0.0,0.0,0.0,0.0,0.0,3.468,3.6597,3.8366,3.9929,4.0196,4.031,4.0253,3.8631,3.6802,3.4882,0.0,0.0,0.0,0.0,0.0,0.0,0.0,0.0,0.0,0.0,0.0,0.0,0.0,0.0,0.0,0.0,0.0,0.0,0.0,0.0,0.0,0.0,0.0,0.0,0.0,0.0,0.0,0.0,0.0,0.0,0.0,0.0,0.0,0.0,0.0,0.0,0.0,0.0,0.0,2.715,2.8314,0.0,0.0,0.0,0.0,0.0,0.0,0.0,0.0,2.8676,0.0,0.0,0.0,0.0,0.0,0.0,0.0,0.0,0.0,0.0,0.0,0.0,0.0,0.0,0.0,0.0,0.0,0.0,0.0,0.0,0.0,0.0,0.0,0.0,0.0,0.0,0.0,0.0,0.0,0.0,0.0,0.0,0.0,0.0,0.0,0.0,0.0,0.0,0.0,0.0,0.0,0.0,0.0,0.0,0.0,0.0,0.0,0.0,0.0,0.0,0.0,0.0,0.0,0.0,0.0,3.4755,3.6654,3.8423,4.008,4.0234,4.031,4.0272,3.8575,3.6842,0.0,0.0,0.0,0.0,0.0,0.0,0.0,0.0,0.0,0.0,0.0,0.0,0.0,0.0,0.0,0.0,0.0,0.0,0.0,0.0,0.0,0.0,0.0,0.0,0.0,0.0,0.0,0.0,0.0,0.0,0.0,0.0,0.0,0.0,0.0,0.0,0.0,0.0,0.0,0.0,2.8263,2.9569,3.0305,0.0,0.0,0.0,0.0,0.0,0.0,3.064,3.008,0.0,0.0,0.0,0.0,0.0,0.0,0.0,0.0,0.0,0.0,0.0,0.0,0.0,0.0,0.0,0.0,0.0,0.0,0.0,0.0,0.0,0.0,0.0,0.0,0.0,0.0,0.0,0.0,0.0,0.0,0.0,0.0,0.0,0.0,0.0,0.0,0.0,0.0,0.0,0.0,0.0,0.0,0.0,0.0,0.0,0.0,0.0,0.0,0.0,0.0,0.0,0.0,0.0,0.0,0.0,3.5,3.6882,3.8575,4.006,4.0253,4.031,4.0272,3.8556,3.6824,0.0,0.0,0.0,0.0,0.0,0.0,0.0,0.0,0.0,0.0,0.0,0.0,0.0,0.0,0.0,0.0,0.0,0.0,0.0,0.0,0.0,0.0,0.0,0.0,0.0,0.0,0.0,0.0,0.0,0.0,0.0,0.0,0.0,0.0,0.0,0.0,0.0,0.0,0.0,0.0,0.0,3.0597,3.1535,3.1827,0.0,0.0,0.0,0.0,3.2192,3.1846,0.0,0.0,0.0,0.0,0.0,0.0,0.0,0.0,0.0,0.0,0.0,0.0,0.0,0.0,0.0,0.0,0.0,0.0,0.0,0.0,0.0,0.0,0.0,0.0,0.0,0.0,0.0,0.0,0.0,0.0,0.0,0.0,0.0,0.0,0.0,0.0,0.0,0.0,0.0,0.0,0.0,0.0,0.0,0.0,0.0,0.0,0.0,0.0,0.0,0.0,0.0,0.0,0.0,0.0,0.0,0.0,3.591,3.7737,3.9166,4.012,4.0234,4.031,4.031,3.8575,3.686,0.0,0.0,0.0,0.0,0.0,0.0,0.0,0.0,0.0,0.0,0.0,0.0,0.0,0.0,0.0,0.0,0.0,0.0,0.0,0.0,0.0,0.0,0.0,0.0,0.0,0.0,0.0,0.0,0.0,0.0,0.0,0.0,0.0,0.0,0.0,0.0,0.0,0.0,0.0,0.0,0.0,3.1618,3.3113,3.3915,3.4637,0.0,0.0,3.5447,3.5447,3.4243,0.0,0.0,0.0,0.0,0.0,0.0,0.0,0.0,0.0,0.0,0.0,0.0,0.0,0.0,0.0,0.0,0.0,0.0,0.0,0.0,0.0,0.0,0.0,0.0,0.0,0.0,0.0,0.0,0.0,0.0,0.0,0.0,0.0,0.0,0.0,0.0,0.0,0.0,0.0,0.0,0.0,0.0,0.0,0.0,0.0,0.0,0.0,0.0,0.0,0.0,0.0,0.0,0.0,0.0,0.0,3.3486,3.6043,3.7889,3.9471,4.0806,4.0502,4.054,4.096,3.928,3.7603,0.0,0.0,0.0,0.0,0.0,0.0,0.0,0.0,0.0,0.0,0.0,0.0,0.0,0.0,0.0,0.0,0.0,0.0,0.0,0.0,0.0,0.0,0.0,0.0,0.0,0.0,0.0,0.0,0.0,0.0,0.0,0.0,0.0,0.0,0.0,0.0,0.0,0.0,0.0,0.0,0.0,0.0,3.4247,3.5117,0.0,0.0,0.0,3.6179,3.6179,0.0,0.0,0.0,0.0,0.0,0.0,0.0,0.0,0.0,0.0,0.0,0.0,0.0,0.0,0.0,0.0,0.0,0.0,0.0,0.0,0.0,0.0,0.0,0.0,0.0,0.0,0.0,0.0,0.0,0.0,0.0,0.0,0.0,0.0,0.0,0.0,0.0,0.0,0.0,0.0,0.0,0.0,0.0,0.0,0.0,0.0,0.0,0.0,0.0,0.0,0.0,0.0,0.0,0.0,0.0,0.0,0.0,3.6404,3.8441,4.008,4.136,4.1094,4.1113,4.1457,4.0043,0.0,0.0,0.0,0.0,0.0,0.0,0.0,0.0,0.0,0.0,0.0,0.0,0.0,0.0,0.0,0.0,0.0,0.0,0.0,0.0,0.0,0.0,0.0,0.0,0.0,0.0,0.0,2.0576,0.0,0.0,0.0,0.0,0.0,0.0,0.0,0.0,0.0,0.0,0.0,0.0,0.0,0.0,3.4321,3.5724,3.6486,3.7037,0.0,0.0,3.7514,3.7514,3.7184,3.6421,0.0,0.0,0.0,0.0,0.0,0.0,0.0,0.0,0.0,0.0,0.0,0.0,0.0,0.0,0.0,0.0,0.0,0.0,0.0,0.0,0.0,0.0,0.0,0.0,0.0,0.0,0.0,0.0,0.0,0.0,0.0,0.0,0.0,0.0,0.0,0.0,0.0,0.0,0.0,0.0,0.0,0.0,0.0,0.0,0.0,0.0,0.0,0.0,0.0,0.0,0.0,0.0,0.0,0.0,0.0,3.7316,3.9886,4.1282,4.1495,4.2221,4.2259,4.1495,4.0654,3.9031,0.0,0.0,0.0,0.0,0.0,0.0,0.0,0.0,0.0,0.0,0.0,0.0,0.0,0.0,0.0,0.0,0.0,0.0,0.0,0.0,0.0,0.0,0.0,0.0,0.0,0.0,0.0,0.0,0.0,0.0,0.0,0.0,0.0,0.0,0.0,0.0,0.0,0.0,0.0,0.0,0.0,3.4945,3.8028,3.8505,3.9056,0.0,0.0,4.0781,4.0781,3.9533,3.8505,3.8395,0.0,0.0,0.0,0.0,0.0,0.0,0.0,0.0,0.0,0.0,0.0,0.0,0.0,0.0,0.0,0.0,0.0,0.0,0.0,0.0,0.0,0.0,0.0,0.0,0.0,0.0,0.0,0.0,0.0,0.0,0.0,0.0,0.0,0.0,0.0,0.0,0.0,0.0,0.0,0.0,0.0,0.0,0.0,0.0,0.0,0.0,0.0,0.0,0.0,0.0,0.0,0.0,0.0,3.5645,3.7451,4.004,4.1683,4.2259,4.2641,4.287,4.3023,4.1724,4.0348,0.0,0.0,0.0,0.0,0.0,0.0,0.0,0.0,0.0,0.0,0.0,0.0,0.0,0.0,0.0,0.0,0.0,0.0,0.0,0.0,0.0,0.0,0.0,0.0,0.0,0.0,0.0,0.0,2.4704,2.5695,2.5658,0.0,0.0,0.0,0.0,0.0,0.0,0.0,0.0,0.0,0.0,3.6707,3.8469,3.957,0.0,0.0,4.1079,4.1079,4.1079,4.0598,4.001,3.9533,3.8505,0.0,0.0,0.0,0.0,0.0,0.0,0.0,0.0,0.0,0.0,0.0,0.0,0.0,0.0,0.0,0.0,0.0,0.0,0.0,0.0,0.0,0.0,0.0,0.0,0.0,0.0,0.0,0.0,0.0,0.0,0.0,0.0,0.0,0.0,0.0,0.0,0.0,0.0,0.0,0.0,0.0,0.0,0.0,0.0,0.0,0.0,0.0,0.0,0.0,0.0,0.0,0.0,3.6083,3.7889,4.0461,4.2237,4.3138,4.3405,4.3673,4.3978,4.287,4.1648,0.0,0.0,0.0,0.0,0.0,0.0,0.0,0.0,0.0,0.0,0.0,0.0,0.0,0.0,0.0,0.0,0.0,0.0,0.0,0.0,0.0,0.0,0.0,0.0,0.0,0.0,0.0,0.0,2.6135,2.6979,2.6979,0.0,0.0,0.0,0.0,0.0,0.0,0.0,0.0,0.0,0.0,3.8322,3.9606,4.0965,4.1919,4.2139,4.2396,4.2543,4.2543,4.2139,4.1625,4.1038,0.0,0.0,0.0,0.0,0.0,0.0,0.0,0.0,0.0,0.0,0.0,0.0,0.0,0.0,0.0,0.0,0.0,0.0,0.0,0.0,0.0,0.0,0.0,0.0,0.0,0.0,0.0,0.0,0.0,0.0,2.2262,0.0,0.0,0.0,0.0,0.0,0.0,0.0,0.0,0.0,0.0,0.0,0.0,0.0,0.0,0.0,0.0,0.0,0.0,0.0,0.0,0.0,0.0,3.7014,3.8763,4.1338,4.3097,4.3978,4.4819,4.4857,4.4093,4.3978,4.2832,4.0387,0.0,0.0,0.0,0.0,0.0,0.0,0.0,0.0,0.0,0.0,0.0,0.0,0.0,0.0,0.0,0.0,0.0,0.0,0.0,0.0,0.0,0.0,0.0,0.0,0.0,0.0,2.6539,2.731,2.7824,0.0,0.0,0.0,0.0,0.0,0.0,0.0,0.0,0.0,0.0,3.7661,3.957,4.1846,4.291,4.3718,4.4488,4.5259,4.5736,4.57,4.4452,4.3424,0.0,0.0,0.0,0.0,0.0,0.0,0.0,0.0,0.0,0.0,0.0,0.0,0.0,0.0,0.0,0.0,0.0,0.0,0.0,0.0,0.0,0.0,0.0,0.0,0.0,0.0,0.0,2.4281,2.4245,0.0,0.0,0.0,0.0,0.0,0.0,0.0,0.0,0.0,0.0,0.0,3.0756,3.2098,0.0,0.0,0.0,0.0,0.0,0.0,0.0,0.0,0.0,0.0,0.0,0.0,3.7395,3.9622,4.1721,4.3423,4.4819,4.566,4.5965,4.566,4.5125,4.3405,4.0387,0.0,0.0,0.0,0.0,0.0,0.0,0.0,0.0,0.0,0.0,0.0,0.0,0.0,0.0,0.0,0.0,0.0,0.0,0.0,0.0,0.0,0.0,0.0,0.0,0.0,2.8338,0.0,0.0,0.0,0.0,0.0,0.0,0.0,0.0,0.0,0.0,0.0,3.5439,3.7624,3.9753,4.1589,4.291,4.4232,4.5186,0.0,0.0,0.0,0.0,0.0,0.0,0.0,0.0,0.0,0.0,0.0,0.0,0.0,0.0,3.8993,3.5292,3.5878,3.7491,3.9135,0.0,0.0,0.0,0.0,0.0,0.0,0.0,0.0,0.0,0.0,0.0,0.0,0.0,0.0,2.6795,0.0,2.6806,0.0,0.0,0.0,0.0,0.0,0.0,0.0,0.0,3.2281,3.3312,3.343,3.478,3.5417,0.0,3.5371,3.418,0.0,0.0,0.0,0.0,0.0,0.0,0.0,0.0,3.8594,4.0538,4.2296,4.4017,4.566,4.6233,4.6653,4.692,4.5889,4.4246,4.2106,4.0577,3.869,0.0,0.0,0.0,0.0,0.0,0.0,0.0,0.0,0.0,0.0,0.0,0.0,0.0,0.0,0.0,0.0,0.0,0.0,0.0,0.0,0.0,0.0,0.0,3.0246,0.0,0.0,0.0,0.0,0.0,0.0,0.0,0.0,0.0,3.4688,3.5642,3.7221,3.9643,4.1552,4.3094,4.4195,0.0,0.0,0.0,0.0,0.0,0.0,0.0,4.6838,4.7131,4.6507,4.5957,4.5957,4.5516,4.5149,4.5186,0.0,0.0,3.8872,3.9276,4.0891,4.247,4.1479,4.0781,4.2103,4.258,4.3167,0.0,0.0,0.0,0.0,0.0,0.0,0.0,0.0,2.981,3.0152,0.0,3.0121,0.0,0.0,0.0,0.0,0.0,3.174,0.0,0.0,3.5139,3.595,3.6054,3.6881,3.7295,3.7257,3.7263,3.7141,3.6953,3.466,0.0,0.0,0.0,0.0,0.0,0.0,4.0538,4.1436,4.3156,4.4857,4.6462,4.6615,4.6997,4.7761,4.6233,4.5392,4.5239,4.2868,4.073,3.907,3.7509,0.0,0.0,0.0,0.0,0.0,0.0,0.0,0.0,0.0,0.0,0.0,0.0,0.0,0.0,0.0,0.0,0.0,0.0,0.0,0.0,3.1089,0.0,0.0,0.0,0.0,0.0,0.0,0.0,0.0,0.0,0.0,3.6707,3.7881,3.968,4.1992,0.0,0.0,0.0,0.0,4.7205,4.7241,4.7902,4.8673,4.9481,4.893,4.8673,4.9444,0.0,0.0,4.8379,4.8379,4.8343,4.8343,4.8306,4.6911,4.2359,4.269,4.4121,4.5663,4.4745,4.3975,4.4709,4.548,4.6214,3.2048,0.0,0.0,0.0,0.0,3.0392,3.0886,3.1488,3.2378,3.2703,3.2741,3.3311,0.0,0.0,0.0,0.0,0.0,0.0,3.4969,3.5346,3.7589,3.8667,3.8727,4.0123,4.074,4.074,4.074,4.0414,3.9835,3.9133,3.7732,3.5732,0.0,0.0,0.0,0.0,4.0842,4.2352,4.4034,4.5736,4.7417,4.8028,4.8449,4.8716,4.7685,4.6806,4.6156,4.4853,4.3302,4.1622,3.9899,0.0,0.0,0.0,0.0,0.0,0.0,0.0,0.0,0.0,0.0,0.0,0.0,0.0,0.0,0.0,0.0,0.0,0.0,0.0,3.3433,3.4403,3.4908,0.0,0.0,0.0,0.0,0.0,0.0,0.0,0.0,0.0,4.1222,4.1332,4.1735,0.0,0.0,4.6471,4.7462,4.8306,4.904,4.9627,4.9921,0.0,0.0,5.0251,5.0178,5.0398,5.0251,5.0105,5.0068,5.0068,5.0105,5.0105,5.0068,4.9591,4.8416,4.7352,4.7572,4.8857,4.8086,4.7241,4.8012,4.8379,4.8746,3.4829,3.341,3.2449,3.209,3.2201,3.2863,3.3468,3.4053,3.4888,3.523,3.5268,3.5704,3.5951,3.5892,3.591,0.0,0.0,0.0,3.7511,3.7646,3.9845,4.0889,4.0988,4.1935,4.2366,4.2328,4.2281,4.2016,4.1562,4.1539,4.0736,3.9194,0.0,0.0,3.9768,4.1009,4.229,4.3708,4.5086,4.6577,4.8296,4.9137,4.9557,4.9557,4.8754,4.8067,4.7532,4.6686,4.5398,4.3656,4.2541,4.0798,0.0,0.0,0.0,0.0,0.0,0.0,0.0,0.0,0.0,0.0,0.0,2.6282,0.0,0.0,0.0,0.0,3.2963,3.4394,3.5862,3.6743,0.0,0.0,0.0,0.0,0.0,0.0,0.0,4.0047,4.1111,4.2359,4.3791,4.4415,4.4856,4.5333,4.6654,4.8012,4.915,0.0,5.0215,5.0729,5.0802,5.0912,5.1242,5.1279,5.1389,5.172,5.205,5.2234,5.2234,5.2454,5.2711,5.2711,5.2711,5.2491,5.1867,5.1389,5.1206,5.161,5.0435,4.9627,5.0362,5.0802,5.1242,3.7069,3.6911,3.476,3.3869,3.4028,3.5564,3.625,3.6348,3.7144,3.7485,3.7485,3.7561,3.7637,3.7733,3.7806,0.0,3.7797,3.9315,4.0041,4.016,4.1819,4.2623,4.2705,4.2743,4.2819,4.2895,4.2769,4.2739,4.2853,4.2806,4.2721,4.2683,4.1964,4.1563,4.1563,4.3085,4.4369,4.5277,4.6156,4.7455,4.9137,4.9901,5.0283,5.0283,4.9595,4.9175,4.9175,4.8289,4.7076,4.5483,4.5133,4.3535,4.0396,0.0,0.0,0.0,0.0,0.0,0.0,0.0,0.0,0.0,0.0,0.0,0.0,0.0,0.0,0.0,3.6266,0.0,3.7801,3.8469,0.0,0.0,0.0,3.9313,4.0084,4.0928,4.1699,4.2396,0.0,0.0,4.5002,4.6985,4.8453,4.86,4.8526,4.9077,5.0692,5.0875,5.0912,5.1169,5.1132,5.1389,5.2307,5.2417,5.2637,5.3298,5.3995,5.4399,5.4436,5.4913,5.55,5.539,5.5574,5.5097,5.3628,5.4399,5.517,5.3849,5.238,5.1463,5.2197,5.2858,5.3518,3.769,3.7704,3.7144,3.6683,3.633,3.6798,3.6998,3.7133,3.7932,3.8331,3.8369,3.9018,3.9705,4.0393,4.1,4.1304,4.1385,4.1749,4.1939,4.2036,4.3064,4.358,4.3618,4.4227,4.4836,4.5483,4.546,4.5765,4.6335,4.6311,4.6326,4.6277,4.6063,4.4721,4.2373,4.3285,4.4303,4.5213,4.6663,4.8251,4.9939,5.0206,5.0283,5.0283,5.013,5.0015,5.0015,4.9182,4.8462,4.7957,4.6036,4.4511,4.3567,4.1402,0.0,0.0,0.0,0.0,0.0,0.0,0.0,0.0,0.0,3.1201,3.2816,0.0,3.5532,0.0,3.8248,3.957,4.0194,4.0414,0.0,0.0,4.1442,4.1772,4.2543,4.3351,4.3938,4.4121,4.5553,4.6764,4.7388,4.8526,4.9738,5.0912,5.0582,5.0582,5.1536,5.172,5.216,5.3225,5.3482,5.3849,5.4473,5.473,5.4773,5.5,5.5214,5.5317,5.5317,5.5464,5.5611,5.5611,5.5611,5.5427,5.5097,5.5354,5.5978,5.6528,5.5537,5.4509,5.4693,5.4876,5.5097,3.8275,3.8359,3.8359,3.8238,3.7984,3.8153,3.8282,3.8403,3.9241,3.9664,3.9747,4.0624,4.1275,4.1813,4.2313,4.2525,4.2607,4.2993,4.3166,4.3243,4.4484,4.5077,4.5115,4.5916,4.6565,4.7022,4.6976,4.7205,4.7624,4.7577,4.7566,4.7479,4.7492,4.6518,4.4773,4.52,4.5893,4.6862,4.8143,4.9449,5.077,5.087,5.1047,5.1391,5.1047,5.0894,5.0856,4.9959,4.9314,4.8871,4.7391,4.6176,4.5304,4.3492,4.1679,0.0,0.0,0.0,0.0,0.0,0.0,0.0,0.0,0.0,0.0,0.0,3.8395,3.9533,4.0781,4.1809,4.2653,4.302,4.3424,4.3864,4.3901,4.4232,4.5039,4.581,4.6471,4.6838,4.7976,4.893,4.937,5.0141,5.1132,5.238,5.2454,5.2564,5.2968,5.3078,5.3518,5.473,5.495,5.506,5.5537,5.5611,5.5618,5.5618,5.5912,5.6124,5.6161,5.6418,5.6675,5.6675,5.6675,5.6675,5.6638,5.6638,5.7005,5.7556,5.7299,5.6602,5.6198,5.6124,5.6198,3.8793,3.8907,3.9091,3.9202,3.9268,3.9537,3.9664,3.9776,4.0666,4.1103,4.1297,4.2177,4.2541,4.2564,4.2746,4.2807,4.2867,4.37,4.4124,4.4336,4.5791,4.6577,4.6691,4.7455,4.7876,4.7952,4.7884,4.7899,4.8014,4.7895,4.7846,4.7821,4.7745,4.7719,4.7693,4.7858,4.8239,4.8884,4.9834,5.076,5.1484,5.1648,5.2054,5.2728,5.2117,5.1697,5.1558,5.0735,4.9898,4.9074,4.8742,4.7861,4.6372,4.5284,4.398,0.0,4.129,0.0,0.0,0.0,0.0,0.0,0.0,0.0,0.0,3.9533,4.1148,4.2653,4.3387,4.4085,4.4819,4.559,4.6104,4.6214,4.6324,4.6691,4.7498,4.8196,4.893,4.9664,5.0472,5.0949,5.0949,5.172,5.2601,5.3298,5.3995,5.4473,5.4693,5.4583,5.4803,5.5611,5.5831,5.6014,5.6051,5.5978,5.5978,5.6014,5.6492,5.6969,5.6969,5.7593,5.8143,5.8143,5.8217,5.8253,5.8217,5.8253,5.8364,5.8547,5.8437,5.807,5.7373,5.7189,5.7373,3.9479,3.9612,4.0276,4.054,4.0613,4.0799,4.0667,4.0392,4.1365,4.187,4.207,4.2975,4.3426,4.3512,4.4189,4.4585,4.4712,4.4887,4.5328,4.602,4.6347,4.6882,4.7532,4.7723,4.8181,4.8831,4.8869,4.9129,4.973,4.9706,4.9607,4.9451,4.9451,4.937,4.9297,0.0,0.0,0.0,5.0368,5.1282,5.1522,5.2133,5.2602,5.2766,5.2652,0.0,5.1547,5.1282,5.071,4.9822,4.8926,0.0,0.0,0.0,0.0,0.0,0.0,0.0,0.0,0.0,0.0,0.0,4.291,4.2359,4.0671,4.2506,4.4195,4.5112,4.5369,4.548,4.5663,4.6397,4.7131,4.7792,4.8453,4.9187,4.9994,5.0251,5.0398,5.0545,5.1279,5.1756,5.1867,5.3041,5.3959,5.4216,5.4876,5.5611,5.6235,5.5757,5.5684,5.6418,5.7042,5.7483,5.7519,5.7483,5.7483,5.7593,5.7629,5.7813,5.7886,5.8474,5.8988,5.8988,5.9501,5.9758,5.9391,5.9648,5.9979,6.0493,6.0199,5.9722,5.8951,5.8767,5.8988,4.0122,0.0,4.0628,4.085,0.0,4.1458,4.154,4.1428,4.2098,4.2735,4.3363,4.3882,4.4184,4.4259,4.4773,4.5285,4.575,4.5795,4.6237,4.706,4.748,4.7899,4.8357,4.8777,4.9158,4.9577,4.9577,4.9782,5.0139,5.0089,5.0214,5.0486,5.0374,5.0514,5.084,5.1285,5.1148,5.0523,5.1467,5.2156,5.2691,5.3098,5.3569,5.4065,5.3658,0.0,0.0,0.0,0.0,0.0,0.0,0.0,0.0,0.0,0.0,4.7033,4.6123,4.5358,4.4886,4.4743,4.4672,4.4709,4.581,4.5626,4.3608,4.4599,4.581,4.6948,4.7095,4.7425,4.8233,4.871,4.9114,4.9517,4.9921,5.0508,5.1242,5.1389,5.1573,5.2013,5.2674,5.3188,5.3188,5.4216,5.5133,5.5537,5.5904,5.6492,5.7152,5.6712,5.6492,5.7262,5.7703,5.796,5.8033,5.8364,5.8584,5.8621,5.8914,5.9171,5.9171,5.9538,5.9795,5.9832,6.0126,6.0382,6.0419,6.0419,6.0566,6.1006,6.0786,6.0493,6.0309,6.0089,5.9905,4.0782,4.089,4.1034,4.1144,4.1248,4.1941,4.237,4.2506,0.0,0.0,0.0,4.4605,4.4787,4.4978,4.5141,4.567,4.6491,4.654,4.7044,4.7843,4.8566,4.8985,4.9137,4.9784,5.0127,5.0127,5.0127,5.0063,5.0076,5.0085,5.042,5.0979,5.099,5.1387,5.2108,5.2241,5.2409,5.2719,5.2712,5.309,5.3829,5.4074,5.4573,5.5313,5.4573,5.4127,5.3949,5.3156,5.2589,5.239,5.2243,5.2059,5.1823,5.0422,4.9474,4.9264,4.7864,4.6983,4.6948,4.6801,4.6764,4.6764,4.8012,4.8122,4.6654,4.6691,4.7315,4.8673,4.8746,4.9297,5.0655,5.0949,5.1022,5.0986,5.1132,5.1499,5.2123,5.2344,5.2711,5.3371,5.4069,5.462,5.462,5.528,5.6014,5.6638,5.6895,5.7299,5.7886,5.7519,5.7299,5.807,5.829,5.829,5.851,5.8988,5.9391,5.9465,5.9942,6.0382,6.0419,6.0529,6.0603,6.0603,6.0713,6.1043,6.1374,6.1227,6.1006,6.141,6.1153,6.1006,6.1557,6.13,6.0896,4.1542,4.1578,4.2304,4.2592,4.2629,4.2849,4.3032,4.3173,4.3647,4.3937,4.417,4.444,4.4927,4.5649,4.5847,4.643,4.7327,4.7327,4.7832,4.8718,4.8833,4.9251,4.9936,5.0051,5.0127,5.0127,5.0127,5.0038,5.0047,5.0599,5.0912,5.0861,5.1437,5.2123,5.2806,5.2944,5.3414,5.4327,5.38,5.3651,5.3812,5.4496,5.4943,5.514,5.5026,5.459,5.385,5.3575,5.3072,5.237,5.2052,5.1898,5.1799,5.1297,5.0971,5.0786,5.045,5.0223,5.0144,5.0105,5.0141,5.0105,5.0325,5.0068,4.9187,4.9701,5.0215,5.0435,5.0398,5.0545,5.0839,5.1463,5.183,5.1903,5.2454,5.2931,5.3078,5.3628,5.4069,5.4216,5.495,5.5427,5.55,5.6124,5.6675,5.6895,5.7446,5.8107,5.8621,5.8364,5.8217,5.8841,5.9024,5.9318,5.9758,6.0126,6.0236,6.0236,6.0382,6.0603,6.0603,6.108,6.141,6.1447,6.1887,6.2328,6.2511,6.2548,6.2401,6.2438,6.2328,6.2401,6.2548,6.2401,6.2365,4.2376,4.2413,4.2775,4.2882,4.292,4.3031,4.3105,4.3214,4.3495,4.3763,4.4061,4.464,4.5227,4.5754,4.6345,4.7133,4.798,4.798,4.8461,4.9284,4.9322,4.9511,4.9852,4.989,4.9852,4.989,4.989,5.0062,5.0392,5.0749,5.1237,5.1944,5.2701,5.3157,5.3421,5.3599,5.3996,5.4543,5.4358,5.4352,5.4468,5.481,5.5028,5.5075,5.5085,5.4838,5.4468,5.4314,5.4042,5.3603,5.3376,5.3178,5.304,5.2417,5.1937,5.1745,5.1222,5.0845,5.0802,5.0802,5.0986,5.1389,5.1463,5.1499,5.1573,5.1059,5.0986,5.1389,5.1463,5.1646,5.205,5.2454,5.2821,5.3261,5.3665,5.4032,5.4436,5.4803,5.5023,5.5097,5.5757,5.6235,5.6235,5.6969,5.7446,5.7519,5.8143,5.8804,5.9208,5.9318,5.9391,5.9795,5.9869,5.9979,6.0382,6.0786,6.1006,6.1043,6.141,6.1667,6.1704,6.2071,6.2218,6.2254,6.2585,6.2768,6.2805,6.2805,6.2805,6.2805,6.2805,6.2805,6.2805,6.2805,6.2805,4.2882,4.2882,4.2882,4.2882,4.292,4.2994,4.3067,4.3104,4.3214,4.3536,4.4099,4.4867,4.5492,4.5977,4.6873,4.7758,4.8541,4.8616,4.8993,4.9596,4.9663,4.9663,4.9663,4.9692,4.9692,4.9663,4.9663,5.0048,5.0679,5.0847,5.1686,5.3045,5.3609,5.3869,5.3794,5.4018,5.4198,5.4337,5.4538,5.4767,5.4912,5.4912,5.4941,5.5,5.4971,5.4941,5.4912,5.4791,5.4705,5.4641,5.4476,5.4233,5.4054,5.3275,5.2713,5.252,5.1848,5.1397,5.1353,5.1353,5.1683,5.2454,5.2527,5.2858,5.3518,5.2637,5.194,5.2234,5.2454,5.2821,5.3335,5.3665,5.3995,5.4583,5.4656,5.4876,5.5464,5.5757,5.5868,5.5941,5.6565,5.7079,5.7189,5.7593,5.8033,5.8327,5.8841,5.9281,5.9722,6.0309,6.0639,6.086,6.0786,6.0823,6.0896,6.1447,6.1814,6.1887,6.2328,6.2585,6.2695,6.2768,6.2805,6.2768,6.2768,6.2805,6.2805,6.2805,6.2805,6.2805,6.2805,6.2879,6.3135,6.3172,6.3025,4.2882,4.2882,4.2882,4.2882,4.2918,4.2956,4.2992,4.2992,4.3104,4.3579,4.4382,4.4835,4.5616,4.6557,4.743,4.8347,4.9227,4.9302,4.9302,4.9446,4.9574,4.9642,4.9604,4.9663,4.9663,4.9604,4.9612,4.9972,5.06,5.1211,5.2229,5.3383,5.3563,5.3676,5.3756,5.3832,5.3981,5.4233,5.4268,5.4405,5.4705,5.4736,5.4736,5.4736,5.4736,5.4736,5.4736,5.4603,5.4538,5.4505,5.4268,5.4127,5.4055,5.3682,5.341,5.337,5.313,5.3004,5.3004,5.3004,5.3335,5.4069,5.4142,5.4473,5.5207,5.517,5.4509,5.3592,5.3775,5.4179,5.4326,5.4876,5.528,5.5427,5.5464,5.55,5.5721,5.6271,5.6712,5.6712,5.7336,5.7886,5.7813,5.7997,5.8327,5.8914,5.9281,5.9905,6.0896,6.1337,6.1704,6.2144,6.1961,6.1814,6.2254,6.2585,6.2585,6.2622,6.2732,6.2805,6.2805,6.2805,6.2805,6.2805,6.2805,6.2805,6.2805,6.2805,6.2879,6.3025,6.3062,6.3135,6.3759,6.398,6.3723,4.288,4.2882,4.2882,4.3172,4.3643,4.4114,4.4331,4.4331,4.437,4.4665,4.5108,4.5735,4.6396,4.7117,4.8036,4.8695,4.9094,4.9094,4.9127,4.9193,4.9225,4.9295,4.9358,4.939,4.939,4.9433,4.9781,5.0318,5.1076,5.2122,5.2973,5.337,5.3481,5.3481,5.3521,5.3639,5.3794,5.3944,5.3981,5.4125,5.4337,5.4476,5.451,5.4543,5.4538,5.4571,5.4571,5.4538,5.4472,5.4405,5.4233,5.4055,5.3907,5.4084,5.4179,5.4137,5.4412,5.462,5.462,5.462,5.4766,5.5097,5.5097,5.5244,5.5537,5.5611,5.528,5.4803,5.4913,5.5097,5.5133,5.539,5.5757,5.6161,5.6308,5.6492,5.6969,5.7299,5.7519,5.7519,5.7776,5.7997,5.807,5.8437,5.8804,5.9318,5.9905,6.0896,6.152,6.1998,6.2438,6.2695,6.2511,6.2475,6.2768,6.2805,6.2805,6.2805,6.2805,6.2805,6.2805,6.2805,6.2805,6.2805,6.2879,6.2879,6.2805,6.3319,6.3576,6.3613,6.409,6.442,6.4751,6.4824,6.4604,4.2842,4.2918,4.3098,4.3677,4.4476,4.5055,4.5309,4.5309,4.5309,4.5457,4.5827,4.6444,4.7007,4.761,4.8348,4.8679,4.8787,4.8785,4.8855,4.889,4.8959,4.9027,4.9131,4.9197,4.9197,4.9243,4.9884,5.0709,5.1528,5.2782,5.34,5.3318,5.3396,5.3359,5.3318,5.3444,5.3563,5.3717,5.3794,5.3833,5.3944,5.4091,5.4198,5.4303,5.4371,5.4405,5.4405,5.4405,5.4371,5.434,5.4387,5.4317,5.4166,5.4711,5.4949,5.4859,5.5287,5.5611,5.5611,5.5611,5.5684,5.5868,5.5904,5.6014,5.6198,5.6235,5.6235,5.6235,5.6235,5.6198,5.5941,5.6124,5.6528,5.7042,5.7152,5.7409,5.785,5.7997,5.796,5.7997,5.796,5.8107,5.8364,5.8841,5.9318,5.9979,6.086,6.1741,6.1924,6.2438,6.2805,6.2805,6.2805,6.2805,6.2805,6.2805,6.2805,6.2805,6.2805,6.2805,6.2805,6.2805,6.2805,6.2842,6.2952,6.3209,6.3392,6.387,6.4457,6.4567,6.4897,6.5411,6.5595,6.5632,6.5778,4.2842,4.3027,4.3743,4.4542,4.5273,4.5345,4.5345,4.5454,4.5381,4.578,4.6472,4.6662,4.7139,4.7838,4.8229,4.8419,4.8532,4.8569,4.8605,4.8678,4.882,4.889,4.8925,4.9131,4.9098,4.9076,4.9821,5.0824,5.2069,5.2876,5.3277,5.3188,5.3225,5.3272,5.3277,5.3318,5.34,5.3521,5.3521,5.3558,5.3595,5.3598,5.383,5.4204,5.4127,5.4127,5.4127,5.4127,5.4164,5.4127,5.4802,5.5099,5.4981,5.5484,5.5718,5.5618,5.5611,5.5647,5.5684,5.5721,5.6014,5.6602,5.6748,5.7042,5.7556,5.7629,5.7629,5.7813,5.7666,5.7446,5.6932,5.7262,5.7666,5.7813,5.7886,5.7923,5.796,5.7997,5.7997,5.7997,5.807,5.8364,5.9024,5.9208,6.0015,6.0933,6.152,6.1851,6.2475,6.2768,6.2805,6.2805,6.2805,6.2805,6.2805,6.2805,6.2805,6.2805,6.2805,6.2805,6.2805,6.2805,6.2805,6.3025,6.3466,6.3833,6.4127,6.4567,6.5154,6.5411,6.5485,6.5852,6.6366,6.6439,6.6549,4.3168,4.3788,4.5204,4.5892,4.6106,4.6694,4.6907,4.683,4.683,4.7052,4.7347,4.7425,4.7652,4.7988,4.8148,4.8265,4.8304,4.8382,4.8458,4.8495,4.8606,4.8679,4.8714,4.8785,4.9082,4.9565,5.0268,5.1332,5.2684,5.312,5.323,5.3225,5.3225,5.3188,5.323,5.323,5.3314,5.3359,5.3359,5.3658,5.4219,5.4293,5.4559,5.5161,5.4352,5.3907,5.3907,5.4503,5.4839,5.4802,5.5471,5.576,5.5673,5.6123,5.6691,5.7042,5.7116,5.7116,5.7116,5.7116,5.7226,5.7519,5.7556,5.7629,5.7923,5.7997,5.7997,5.7997,5.7997,5.7813,5.7703,5.785,5.7997,5.7997,5.7997,5.7997,5.7997,5.7997,5.7997,5.807,5.84,5.8914,5.9318,6.0089,6.0933,6.152,6.2034,6.2438,6.2695,6.2805,6.2805,6.2805,6.2805,6.2805,6.2805,6.2805,6.2805,6.2805,6.2805,6.2842,6.2842,6.2915,6.2952,6.3649,6.4127,6.4567,6.4897,6.5521,6.6072,6.6549,6.6623,6.6586,6.721,6.7063,6.7247,4.379,4.4774,4.6157,4.6884,4.7062,4.7688,4.7866,4.7824,4.7783,4.7866,4.7907,4.7943,4.7947,4.8032,4.8148,4.8187,4.8187,4.8267,4.8344,4.8419,4.8457,4.8532,4.8606,4.8864,4.9233,4.986,5.0814,5.1944,5.3041,5.3225,5.3225,5.3225,5.3225,5.3225,5.3225,5.3225,5.323,5.3272,5.3534,5.3976,5.4575,5.487,5.5238,5.5576,5.4888,5.4454,5.4494,5.5133,5.5469,5.554,5.6091,5.6524,5.6688,5.6985,5.7409,5.7923,5.796,5.7997,5.7997,5.7997,5.796,5.7997,5.796,5.7997,5.7997,5.7997,5.7997,5.7997,5.7997,5.7997,5.7997,5.7997,5.7997,5.7997,5.7997,5.7997,5.7997,5.7997,5.7997,5.8107,5.8694,5.9208,5.9685,6.0786,6.1557,6.1924,6.2511,6.2805,6.2805,6.2805,6.2805,6.2805,6.2805,6.2805,6.2952,6.3099,6.3025,6.2989,6.3062,6.3025,6.3209,6.3209,6.3539,6.4237,6.4824,6.5264,6.5852,6.6476,6.7026,6.7577,6.7467,6.7283,6.754,6.7614,6.765,4.478,4.5656,4.6527,4.7292,4.7806,4.7992,4.7992,4.7992,4.7992,4.7992,4.8028,4.7992,4.7992,4.8032,4.8187,4.8187,4.8226,4.8267,4.8306,4.8306,4.8419,4.8457,4.8531,4.9306,4.9786,5.0041,5.1283,5.2417,5.3151,5.3225,5.3225,5.3225,5.3225,5.3225,5.3225,5.3225,5.3188,5.3335,5.3885,5.4363,5.4509,5.5251,5.5728,5.5802,5.5815,5.5828,5.5918,5.5918,5.596,5.6034,5.6694,5.7463,5.7884,5.7932,5.796,5.796,5.7997,5.7997,5.7997,5.7997,5.7997,5.7997,5.7997,5.7997,5.7997,5.7997,5.7997,5.7997,5.7997,5.7997,5.7997,5.7997,5.7997,5.7997,5.7997,5.7997,5.7997,5.7997,5.7997,5.818,5.8841,5.9575,6.0309,6.119,6.1961,6.2511,6.2732,6.2805,6.2805,6.2805,6.2805,6.2805,6.2842,6.2842,6.3135,6.3429,6.3282,6.3209,6.3319,6.3392,6.3906,6.409,6.4457,6.5118,6.5888,6.6366,6.6659,6.721,6.7283,6.7687,6.7687,6.7687,6.7687,6.7687,6.7687,4.5698,4.6497,4.738,4.7816,4.8032,4.8072,4.8072,4.7992,4.7992,4.8032,4.8148,4.8148,4.8151,4.819,4.8229,4.8267,4.8267,4.8306,4.8306,4.8306,4.8381,4.8381,4.8528,4.9265,5.022,5.1283,5.2307,5.2968,5.3151,5.3225,5.3225,5.3225,5.3225,5.3225,5.3225,5.3225,5.3225,5.3298,5.3995,5.462,5.5207,5.6014,5.6675,5.7189,5.7308,5.7353,5.7316,5.6977,5.6725,5.6731,5.7457,5.7921,5.8051,5.8042,5.7997,5.7997,5.7997,5.7997,5.7997,5.7997,5.7997,5.7997,5.7997,5.7997,5.7997,5.7997,5.7997,5.7997,5.7997,5.7997,5.7997,5.7997,5.7997,5.7997,5.7997,5.7997,5.7997,5.7997,5.8253,5.8841,5.9538,6.0346,6.1117,6.1887,6.2438,6.2695,6.2805,6.2805,6.2805,6.2805,6.2805,6.2805,6.2842,6.3062,6.3503,6.398,6.4127,6.4127,6.42,6.42,6.4677,6.5007,6.5375,6.5962,6.6733,6.721,6.754,6.7687,6.7687,6.7687,6.7687,6.7687,6.7687,6.7687,6.7687,4.6432,4.6978,4.7862,4.8192,4.8111,4.8226,4.8151,4.8111,4.8111,4.8151,4.8226,4.8229,4.8229,4.8306,4.8306,4.8306,4.8306,4.8306,4.8306,4.8306,4.8306,4.8453,4.8893,4.9958,5.1132,5.2307,5.2968,5.3225,5.3225,5.3225,5.3225,5.3225,5.3225,5.3225,5.3225,5.3225,5.3298,5.3702,5.4436,5.5207,5.6014,5.6822,5.7483,5.7923,5.796,5.7997,5.796,5.7618,5.7449,5.7523,5.7876,5.8088,5.7997,5.7997,5.7997,5.7997,5.7997,5.7997,5.7997,5.7997,5.7997,5.7997,5.7997,5.7997,5.7997,5.7997,5.7997,5.7997,5.7997,5.7997,5.7997,5.7997,5.7997,5.7997,5.7997,5.7997,5.8033,5.829,5.8621,5.9281,6.0162,6.0933,6.1594,6.2291,6.2768,6.2805,6.2805,6.2805,6.2805,6.2805,6.2805,6.2805,6.2842,6.3246,6.3943,6.442,6.4897,6.5118,6.5301,6.5338,6.5595,6.5742,6.5999,6.6623,6.7357,6.7393,6.7687,6.7687,6.7687,6.7687,6.7687,6.7687,6.7687,6.7687,6.7687,4.7056,4.7241,4.7976,4.8306,4.8267,4.8306,4.8267,4.8306,4.8416,4.8378,4.8306,4.8453,4.8379,4.8343,4.8306,4.8306,4.8306,4.8306,4.8416,4.8453,4.8563,4.893,4.9921,5.1132,5.216,5.3004,5.3188,5.3225,5.3225,5.3225,5.3225,5.3225,5.3225,5.3225,5.3225,5.3225,5.3702,5.4326,5.517,5.6051,5.6748,5.7519,5.796,5.7997,5.7997,5.7997,5.796,5.7932,5.7969,5.796,5.8006,5.7997,5.7997,5.7997,5.7997,5.7997,5.7997,5.7997,5.7997,5.7997,5.7997,5.7997,5.7997,5.7997,5.7997,5.7997,5.7997,5.7997,5.7997,5.7997,5.7997,5.7997,5.7997,5.807,5.807,5.8033,5.8143,5.8767,5.9208,5.9648,6.0639,6.1643,6.1741,6.2438,6.2732,6.2805,6.2805,6.2805,6.2805,6.2805,6.2805,6.2805,6.2805,6.3503,6.4237,6.4714,6.5264,6.6145,6.6292,6.6329,6.6402,6.6512,6.6623,6.7247,6.7577,6.765,6.7687,6.7687,6.7687,6.7687,6.7687,6.7687,6.7687,6.7687,6.7687,4.7426,4.8012,4.8233,4.8306,4.8306,4.8306,4.8306,4.8379,4.9003,4.8893,4.8563,4.8967,4.8857,4.8343,4.8343,4.8306,4.8306,4.8343,4.871,4.9187,4.926,5.0068,5.1132,5.1756,5.2417,5.3115,5.3225,5.3225,5.3225,5.3225,5.3225,5.3225,5.3225,5.3225,5.3261,5.3739,5.4142,5.4583,5.5831,5.6565,5.6895,5.7593,5.796,5.7997,5.7997,5.7997,5.7997,5.7997,5.7997,5.7997,5.7997,5.7997,5.7997,5.7997,5.7997,5.7997,5.7997,5.7997,5.7997,5.7997,5.7997,5.7997,5.7997,5.7997,5.7997,5.7997,5.7997,5.7997,5.7997,5.7997,5.7997,5.7997,5.8253,5.8694,5.8437,5.8364,5.8804,5.9098,5.9612,6.075,6.1337,6.1851,6.2328,6.2622,6.2805,6.2805,6.2805,6.2805,6.2805,6.2805,6.2805,6.2805,6.2989,6.3796,6.4494,6.4971,6.5742,6.6953,6.7283,6.721,6.7247,6.7247,6.7357,6.765,6.765,6.7687,6.7687,6.7687,6.7687,6.7687,6.7687,6.7687,6.7687,6.7687,6.7687,4.7867,4.8306,4.8306,4.8306,4.8306,4.8306,4.8526,4.8893,4.9334,4.9554,4.9407,4.9444,4.9334,4.8857,4.8489,4.8306,4.8343,4.8673,4.9114,4.9554,5.0251,5.1096,5.1903,5.227,5.2784,5.3151,5.3225,5.3225,5.3225,5.3225,5.3225,5.3225,5.3225,5.3225,5.3261,5.3995,5.4583,5.506,5.6161,5.6932,5.7381,5.774,5.8006,5.8042,5.8042,5.7997,5.7997,5.7997,5.7997,5.7997,5.7997,5.7997,5.7997,5.7997,5.7997,5.7997,5.7997,5.7997,5.7997,5.7997,5.7997,5.7997,5.7997,5.7997,5.7997,5.7997,5.7997,5.7997,5.7997,5.7997,5.807,5.829,5.8694,5.9061,5.9061,5.9208,5.9685,6.0052,6.0566,6.1374,6.1924,6.2254,6.2768,6.2805,6.2805,6.2805,6.2805,6.2805,6.2805,6.2805,6.2805,6.2805,6.3209,6.4053,6.4861,6.5448,6.6109,6.7283,6.7614,6.7687,6.7687,6.7687,6.7687,6.7687,6.7687,6.7687,6.7687,6.7687,6.7687,6.7687,6.7687,6.7687,6.7687,6.7687,6.7687,4.8306,4.8306,4.8306,4.8306,4.8343,4.8416,4.8893,4.9481,4.9884,5.0215,5.0508,5.0068,4.9958,4.9664,4.915,4.8673,4.8748,4.9446,4.9777,5.0401,5.1242,5.216,5.227,5.2784,5.3078,5.3225,5.3225,5.3225,5.3225,5.3225,5.3225,5.3225,5.3225,5.3225,5.3414,5.4038,5.4773,5.5324,5.614,5.6985,5.7589,5.7839,5.7913,5.8215,5.8088,5.8042,5.8042,5.7997,5.7997,5.7997,5.7997,5.7997,5.7997,5.7997,5.7997,5.7997,5.7997,5.7997,5.7997,5.7997,5.7997,5.7997,5.7997,5.7997,5.7997,5.7997,5.7997,5.7997,5.7997,5.807,5.8327,5.8877,5.9428,5.9722,6.0162,6.0456,6.075,6.1227,6.1594,6.1741,6.2401,6.2732,6.2805,6.2805,6.2805,6.2805,6.2805,6.2805,6.2805,6.2805,6.2805,6.2805,6.3466,6.431,6.5118,6.5925,6.6659,6.7467,6.7614,6.7687,6.7687,6.7687,6.7687,6.7687,6.7687,6.7687,6.7687,6.7687,6.7687,6.7687,6.7687,6.7687,6.7687,6.7687,6.7687,4.8306,4.8306,4.8306,4.8306,4.8416,4.904,4.9407,4.974,5.0949,5.121,5.0986,5.1242,5.1059,5.0545,5.0291,5.0291,5.0186,5.0517,5.0922,5.1658,5.2459,5.2894,5.2931,5.3151,5.3188,5.3225,5.3225,5.3225,5.3225,5.3225,5.3225,5.3188,5.323,5.323,5.3424,5.4049,5.457,5.5023,5.5723,5.6535,5.7242,5.7383,5.7678,5.8238,5.826,5.8133,5.8133,5.8042,5.7997,5.7997,5.7997,5.7997,5.7997,5.7997,5.7997,5.7997,5.7997,5.7997,5.7997,5.7997,5.7997,5.7997,5.7997,5.7997,5.7997,5.8033,5.8033,5.7997,5.7997,5.84,5.8914,5.9685,6.0309,6.0786,6.1153,6.1557,6.2034,6.1851,6.1924,6.2365,6.2658,6.2805,6.2805,6.2805,6.2805,6.2805,6.2805,6.2805,6.2805,6.2805,6.2805,6.2842,6.3796,6.4604,6.5228,6.6072,6.6953,6.7504,6.7614,6.7687,6.7687,6.7687,6.7687,6.7687,6.7687,6.7687,6.7687,6.7687,6.7687,6.7687,6.7687,6.7687,6.7687,6.7687,6.7687,4.8456,4.8458,4.8458,4.8678,4.9084,4.9525,5.0151,5.0888,5.1735,5.214,5.2066,5.2177,5.1882,5.1477,5.1109,5.0964,5.1113,5.1408,5.1999,5.2662,5.3171,5.3318,5.3355,5.3314,5.3314,5.3225,5.3225,5.3225,5.3225,5.323,5.3272,5.3272,5.3314,5.3396,5.3511,5.4174,5.458,5.4843,5.5512,5.6367,5.7117,5.7223,5.7592,5.8295,5.8356,5.8312,5.8305,5.8133,5.8088,5.8088,5.8042,5.7997,5.7997,5.7997,5.7997,5.7997,5.7997,5.7997,5.7997,5.7997,5.7997,5.7997,5.7997,5.7997,5.8143,5.8327,5.8584,5.8657,5.8904,5.9344,5.9758,6.0493,6.119,6.152,6.1961,6.2328,6.2622,6.2401,6.2254,6.2695,6.2805,6.2805,6.2805,6.2805,6.2805,6.2805,6.2805,6.2805,6.2805,6.2805,6.2805,6.3099,6.409,6.4861,6.5411,6.6182,6.7173,6.754,6.765,6.7687,6.7687,6.7687,6.7687,6.7687,6.7687,6.7687,6.7687,6.7687,6.7687,6.7687,6.7687,6.7687,6.7687,6.7687,6.7687,4.8642,4.8605,4.8641,4.9122,4.9899,5.0084,5.0971,5.2153,5.2486,5.2892,5.3299,5.2782,5.2597,5.2375,5.1933,5.1563,5.1786,5.2231,5.301,5.3454,5.3524,5.3558,5.3521,5.3481,5.344,5.3272,5.3272,5.3272,5.3272,5.3277,5.3318,5.3359,5.344,5.3521,5.3706,5.4149,5.4522,5.464,5.5081,5.5903,5.684,5.7063,5.7617,5.8471,5.8614,5.8529,5.848,5.8312,5.8223,5.826,5.8088,5.8042,5.8042,5.7997,5.7997,5.7997,5.7997,5.7997,5.7997,5.7997,5.8033,5.8107,5.8217,5.8327,5.8584,5.9024,5.9318,5.9601,5.9931,6.0481,6.0639,6.13,6.1704,6.1924,6.2438,6.2732,6.2805,6.2805,6.2768,6.2768,6.2805,6.2805,6.2805,6.2805,6.2805,6.2805,6.2805,6.2805,6.2805,6.2842,6.2842,6.3246,6.42,6.5558,6.6219,6.6476,6.743,6.7577,6.7687,6.7687,6.7687,6.7687,6.7687,6.7687,6.7687,6.7687,6.7687,6.7687,6.7687,6.7687,6.7687,6.7687,6.7687,6.7687,6.7687,4.8826,4.8855,4.8844,4.9328,5.0153,5.0786,5.164,5.2568,5.3273,5.3607,5.3719,5.3607,5.3496,5.3459,5.3459,5.3386,5.3385,5.3608,5.3794,5.3907,5.387,5.3794,5.3756,5.368,5.3602,5.3524,5.3521,5.3518,5.3477,5.344,5.3521,5.3481,5.3563,5.3678,5.3754,5.3941,5.4128,5.428,5.4465,5.4987,5.5809,5.6706,5.7678,5.8835,5.8902,5.8781,5.8656,5.8529,5.8443,5.8349,5.8133,5.8088,5.8088,5.8042,5.8042,5.7997,5.7997,5.7997,5.7997,5.8033,5.84,5.8804,5.8988,5.9355,5.9758,6.0089,6.0272,6.0529,6.0933,6.141,6.141,6.2034,6.2511,6.2658,6.2658,6.2805,6.2805,6.2805,6.2805,6.2805,6.2805,6.2805,6.2805,6.2805,6.2805,6.2805,6.2805,6.2805,6.2805,6.2842,6.2879,6.3466,6.4273,6.5778,6.7136,6.7247,6.7704,6.7704,6.7741,6.7741,6.7687,6.7687,6.7687,6.7687,6.7687,6.7687,6.7687,6.7687,6.7687,6.7687,6.7687,6.7687,6.7687,6.7687,6.7687,4.9176,4.923,4.9621,5.03,5.1099,5.1887,5.2709,5.3529,5.3904,5.4091,5.4091,5.4091,5.4091,5.4127,5.4163,5.4231,5.4334,5.4368,5.4334,5.4303,5.4233,5.4127,5.4128,5.4017,5.4017,5.3981,5.3981,5.3794,5.36,5.3678,5.3756,5.3832,5.387,5.3944,5.3981,5.3981,5.4018,5.4091,5.4128,5.4574,5.5542,5.6774,5.8162,5.899,5.929,5.91,5.8942,5.8862,5.8698,5.8529,5.8393,5.8223,5.8179,5.8133,5.8088,5.8042,5.7997,5.7997,5.8107,5.8327,5.8841,5.9171,5.9575,5.9979,6.0419,6.0713,6.1153,6.1594,6.1851,6.2218,6.2254,6.2622,6.2768,6.2805,6.2805,6.2805,6.2805,6.2805,6.2805,6.2805,6.2805,6.2805,6.2805,6.2805,6.2805,6.2805,6.2805,6.2805,6.2805,6.2952,6.3062,6.4016,6.4912,6.614,6.7426,6.7647,6.7794,6.7794,6.7794,6.7794,6.7741,6.7741,6.7741,6.7687,6.7687,6.7741,6.7687,6.7687,6.7687,6.7687,6.7687,6.7687,6.7687,6.7687,6.7687,4.9609,4.9807,5.0493,5.133,5.2284,5.2892,5.3682,5.4397,5.4472,5.4472,5.451,5.451,5.451,5.4505,5.4603,5.4661,5.4723,5.4723,5.4692,5.4705,5.4829,5.4797,5.4543,5.466,5.4664,5.4405,5.4405,5.4233,5.3907,5.3944,5.4091,5.4163,5.4198,5.4233,5.4265,5.4231,5.4233,5.4233,5.4233,5.475,5.6086,5.7393,5.8706,5.9505,5.9545,5.9438,5.929,5.914,5.9022,5.8821,5.8614,5.8443,5.8312,5.8223,5.8179,5.8042,5.7997,5.7997,5.818,5.8731,5.9208,5.9575,6.0236,6.0639,6.1043,6.1594,6.2071,6.2658,6.2768,6.2732,6.2695,6.2805,6.2805,6.2805,6.2805,6.2805,6.2805,6.2805,6.2805,6.2805,6.2805,6.2805,6.2805,6.2805,6.2805,6.2805,6.2805,6.2805,6.2879,6.3246,6.3613,6.4728,6.5735,6.6669,6.7531,6.7841,6.7915,6.7915,6.7952,6.7952,6.7899,6.7847,6.7794,6.7794,6.7794,6.7794,6.7741,6.7687,6.7687,6.7687,6.7687,6.7687,6.7687,6.7687,6.7687,5.0241,5.0913,5.1033,5.1982,5.3261,5.3526,5.4027,5.4784,5.4822,5.4822,5.4822,5.486,5.4822,5.4852,5.4971,5.5047,5.5102,5.5102,5.5123,5.5218,5.5616,5.5557,5.5125,5.5593,5.5366,5.5025,5.4805,5.4533,5.4334,5.4337,5.4371,5.4472,5.4538,5.4565,5.4533,5.4533,5.4571,5.4608,5.4543,5.5357,5.6835,5.7466,5.8521,5.9468,5.9782,5.9647,5.9581,5.9474,5.9328,5.9139,5.8865,5.8661,5.8486,5.8268,5.8133,5.8042,5.7997,5.7997,5.8217,5.8877,5.9685,6.0236,6.1006,6.1741,6.2108,6.2328,6.2585,6.2732,6.2805,6.2805,6.2805,6.2805,6.2805,6.2805,6.2805,6.2805,6.2805,6.2855,6.2855,6.2953,6.2953,6.2904,6.2855,6.2805,6.2805,6.2805,6.2842,6.2842,6.3222,6.3773,6.4412,6.5529,6.6316,6.7252,6.7672,6.8033,6.807,6.807,6.8107,6.8055,6.8004,6.7915,6.7915,6.7915,6.7899,6.7847,6.7741,6.7687,6.7687,6.7687,6.7687,6.7687,6.7687,6.7687,6.7687,5.1154,5.1472,5.24,5.32,5.391,5.4341,5.476,5.5064,5.514,5.514,5.514,5.514,5.5168,5.5195,5.5236,5.5326,5.5339,5.5402,5.5683,5.595,5.6355,5.6556,5.673,5.6892,5.6597,5.5884,5.5693,5.5427,5.5102,5.4761,5.4698,5.4791,5.4791,5.4791,5.4814,5.4791,5.4791,5.4943,5.5321,5.6239,5.7308,5.809,5.8881,6.0023,6.0,5.9944,5.9815,5.9753,5.9616,5.9438,5.9215,5.8945,5.8702,5.8449,5.8312,5.817,5.852,5.8694,5.8804,5.9465,6.0199,6.1006,6.1741,6.2401,6.2768,6.2805,6.2805,6.2805,6.2805,6.2805,6.2805,6.2805,6.2805,6.2805,6.2805,6.2855,6.2904,6.2904,6.2953,6.3051,6.3099,6.3051,6.3088,6.3198,6.3186,6.3186,6.3297,6.3444,6.4156,6.5114,6.5754,6.6418,6.7096,6.7723,6.7973,6.8208,6.8208,6.8208,6.8208,6.8208,6.807,6.807,6.807,6.8018,6.8055,6.7952,6.7741,6.7741,6.7741,6.7741,6.7687,6.7687,6.7687,6.7724,6.7834,5.2209,5.2464,5.3651,5.4279,5.4522,5.5109,5.5339,5.5377,5.5339,5.5377,5.5339,5.5339,5.5402,5.5451,5.5437,5.5461,5.557,5.5762,5.6199,5.6649,5.72,5.7596,5.7774,5.7939,5.7634,5.6639,5.6499,5.6052,5.5465,5.5157,5.5047,5.5113,5.5047,5.5085,5.5085,5.5085,5.5057,5.5066,5.5884,5.6768,5.7728,5.8623,5.9425,6.0036,6.0275,6.0217,6.0099,6.0007,5.9847,5.9719,5.9472,5.9215,5.8905,5.8619,5.8628,5.8674,5.9016,5.9475,5.9879,6.0504,6.1006,6.163,6.2291,6.2732,6.2768,6.2805,6.2805,6.2805,6.2805,6.2805,6.2805,6.2805,6.2805,6.2805,6.2855,6.2904,6.3002,6.3002,6.3099,6.3194,6.3242,6.3289,6.3353,6.3585,6.3611,6.3527,6.3712,6.4044,6.4967,6.6149,6.6753,6.7234,6.7566,6.806,6.8235,6.8358,6.8358,6.8358,6.8358,6.8309,6.8259,6.8222,6.8222,6.8208,6.8158,6.8055,6.7952,6.7847,6.7794,6.7741,6.7741,6.7741,6.7741,6.7888,6.8292,5.3567,5.4297,5.4303,5.4718,5.537,5.5461,5.5461,5.5499,5.5461,5.5461,5.5499,5.5461,5.5547,5.5631,5.5708,5.5753,5.5758,5.6549,5.6967,5.7536,5.828,5.8601,5.8731,5.8744,5.8437,5.7134,5.698,5.6482,5.5653,5.5437,5.5389,5.5364,5.5288,5.5339,5.5339,5.5288,5.5301,5.5465,5.6282,5.7136,5.803,5.886,5.9754,6.0341,6.0506,6.0453,6.0453,6.0246,6.0099,5.9944,5.9715,5.9436,5.9101,5.9011,5.9102,5.9287,5.9669,6.0277,6.1051,6.1238,6.1447,6.1814,6.2291,6.2805,6.2805,6.2805,6.2805,6.2805,6.2805,6.2805,6.2805,6.2805,6.2855,6.2904,6.2953,6.3002,6.3099,6.3147,6.3242,6.3336,6.3419,6.3456,6.3799,6.4058,6.4123,6.4076,6.4805,6.5175,6.5915,6.6914,6.7407,6.7815,6.8037,6.8321,6.8457,6.8494,6.8408,6.8408,6.8445,6.8494,6.8457,6.8408,6.8358,6.8309,6.8309,6.8208,6.8232,6.8328,6.8262,6.792,6.7814,6.8178,6.8419,6.8676,6.9228,5.401,5.5203,5.516,5.533,5.5638,5.5638,5.5599,5.5638,5.5638,5.5638,5.5638,5.5638,5.566,5.5775,5.6297,5.6489,5.6626,5.7396,5.7912,5.8489,5.9119,5.9504,5.9672,5.9672,5.9365,5.802,5.7636,5.6906,5.5714,5.5615,5.5577,5.5554,5.5485,5.5437,5.5437,5.5461,5.5476,5.5873,5.674,5.7799,5.827,5.9484,6.0353,6.0597,6.0635,6.0585,6.0533,6.0453,6.0342,6.0264,6.0058,5.9832,5.9627,5.9663,5.9793,6.0061,6.0522,6.1274,6.1698,6.1813,6.1777,6.2328,6.2658,6.2805,6.2805,6.2805,6.2805,6.2805,6.2805,6.2855,6.2904,6.2953,6.2953,6.3002,6.3099,6.3147,6.3194,6.3242,6.3373,6.3465,6.3622,6.3779,6.4151,6.4559,6.4587,6.4688,6.5578,6.6394,6.6975,6.7494,6.7914,6.8136,6.8321,6.8408,6.8494,6.8543,6.8543,6.8543,6.8543,6.8543,6.8543,6.8543,6.8457,6.8408,6.8482,6.8507,6.8605,6.8877,6.8814,6.8476,6.8631,6.8999,6.9278,6.9539,7.0128,5.4203,5.5626,5.5703,5.5703,5.5703,5.5703,5.5703,5.5703,5.5703,5.5703,5.5703,5.5703,5.5895,5.6203,5.6626,5.7203,5.7511,5.8242,5.8896,5.9396,5.9781,6.0242,6.0512,6.0281,5.945,5.8511,5.7857,5.7011,5.5742,5.5703,5.5703,5.566,5.5599,5.5554,5.5554,5.557,5.5646,5.6261,5.7243,5.8357,5.875,5.9903,6.0671,6.071,6.071,6.0978,6.1019,6.1121,6.1196,6.1201,6.1103,6.0779,6.0664,6.0642,6.0786,6.1139,6.1596,6.2279,6.2364,6.2324,6.2365,6.2806,6.2917,6.2953,6.2904,6.2904,6.2953,6.2953,6.2904,6.2953,6.3051,6.3051,6.3051,6.3147,6.3194,6.3289,6.3336,6.3382,6.3511,6.3557,6.3862,6.427,6.4791,6.5311,6.5821,6.6007,6.6701,6.7295,6.7592,6.8,6.8271,6.842,6.8457,6.8494,6.8543,6.8543,6.8543,6.8543,6.8543,6.8543,6.8543,6.8543,6.8543,6.8494,6.8605,6.884,6.9199,6.9632,6.9447,6.9063,6.9443,6.9843,7.0344,7.0696,7.1175,5.4164,5.5626,5.5703,5.5703,5.5724,5.5703,5.5703,5.5703,5.5703,5.5703,5.5703,5.5742,5.6203,5.678,5.7126,5.7703,5.8357,5.9088,5.9588,5.9819,6.0281,6.0704,6.0396,5.9935,5.9204,5.8319,5.7588,5.6742,5.5703,5.5703,5.5703,5.5703,5.5682,5.5682,5.5703,5.5703,5.6126,5.6934,5.7796,5.8566,5.9373,6.0258,6.0681,6.0757,6.095,6.1296,6.1618,6.1914,6.2094,6.2399,6.2386,6.2147,6.1928,6.1878,6.2071,6.2548,6.2481,6.2866,6.3408,6.3215,6.3158,6.3062,6.3099,6.3099,6.3147,6.3147,6.3099,6.3099,6.3099,6.3147,6.3194,6.3194,6.3194,6.3242,6.3373,6.3419,6.3465,6.3511,6.3557,6.3713,6.4308,6.4902,6.5459,6.6054,6.6871,6.7428,6.8023,6.832,6.832,6.8394,6.8506,6.8543,6.8543,6.8543,6.8543,6.8543,6.8543,6.8543,6.8543,6.8543,6.8543,6.8543,6.8543,6.8617,6.8951,6.9323,6.9917,7.0512,7.0462,7.0485,7.042,7.0761,7.1299,7.1763,7.215,5.4264,5.584,5.5864,5.5845,5.5807,5.5724,5.5703,5.5703,5.5703,5.5703,5.5818,5.6242,5.6665,5.7203,5.8127,5.8781,5.9165,5.9973,6.0358,6.0396,6.0666,6.0319,5.9973,5.9473,5.8704,5.7703,5.6973,5.6472,5.5703,5.5703,5.5703,5.5703,5.5703,5.5703,5.5703,5.5742,5.6126,5.6973,5.7857,5.8704,5.9511,6.0319,6.0819,6.0858,6.132,6.1781,6.2243,6.2642,6.3053,6.331,6.3225,6.3015,6.2877,6.28,6.3048,6.3313,6.3259,6.3654,6.3742,6.3519,6.3336,6.3326,6.3231,6.3231,6.3194,6.3194,6.3194,6.3231,6.3279,6.3242,6.3289,6.3336,6.3373,6.3465,6.3511,6.3557,6.3557,6.3557,6.3639,6.3862,6.427,6.5571,6.6388,6.6871,6.7614,6.7911,6.832,6.8431,6.8431,6.8431,6.8543,6.8543,6.8543,6.8543,6.8543,6.8543,6.8543,6.8543,6.8543,6.8543,6.8543,6.8654,6.8989,6.9249,6.9583,6.9917,7.0698,7.1403,7.1923,7.2095,7.1769,7.1754,7.2325,7.2643,7.2865,5.4207,5.5458,5.5769,5.5904,5.5885,5.5807,5.5745,5.5745,5.5745,5.5724,5.5857,5.6588,5.7203,5.778,5.8781,5.9819,5.9973,6.0473,6.0781,6.0742,6.0396,6.0012,5.955,5.8858,5.7973,5.7088,5.6626,5.6165,5.5703,5.5703,5.5703,5.5703,5.5703,5.5934,5.6049,5.6319,5.6626,5.7511,5.8396,5.9204,5.9935,6.055,6.0973,6.132,6.182,6.2358,6.2935,6.3435,6.3872,6.3911,6.3948,6.381,6.3894,6.3905,6.4017,6.4067,6.395,6.4162,6.391,6.3736,6.3602,6.3465,6.3373,6.3373,6.3326,6.3373,6.3373,6.3373,6.3326,6.3373,6.3465,6.3465,6.3511,6.3602,6.3602,6.3602,6.3639,6.3639,6.3899,6.4085,6.4828,6.6128,6.728,6.7763,6.832,6.8431,6.8506,6.8543,6.8543,6.8543,6.8543,6.8543,6.8543,6.8543,6.8543,6.8543,6.8543,6.8543,6.858,6.8654,6.8989,6.9211,6.9546,6.9992,7.0549,7.1106,7.1701,7.2295,7.2629,7.2815,7.2778,7.2912,7.3335,7.3357,7.3305,5.395,5.4786,5.5575,5.59,5.5917,5.5923,5.5885,5.5807,5.5787,5.5766,5.5801,5.6686,5.7495,5.8319,5.9165,5.9973,6.055,6.0742,6.0666,6.0473,5.9973,5.955,5.8819,5.7896,5.7242,5.6742,5.628,5.5934,5.5703,5.5703,5.5703,5.5742,5.5895,5.6242,5.6626,5.7203,5.7588,5.8357,5.8896,5.9704,6.0435,6.0704,6.1204,6.1666,6.2204,6.3051,6.3782,6.4512,6.5013,6.5333,6.5589,6.552,6.5417,6.5307,6.5123,6.4815,6.4482,6.4206,6.3995,6.3867,6.378,6.3691,6.3647,6.3602,6.3557,6.3511,6.3511,6.3511,6.3511,6.3557,6.3557,6.3557,6.3557,6.3602,6.3602,6.3602,6.3639,6.3825,6.4159,6.4679,6.5571,6.6685,6.7837,6.8506,6.8543,6.8543,6.8543,6.8543,6.8543,6.8543,6.8543,6.8543,6.8543,6.8543,6.8543,6.8543,6.8543,6.8543,6.8851,6.9,6.9323,6.9855,7.0301,7.0909,7.1714,7.2221,7.2555,7.2889,7.3187,7.3261,7.3187,7.3224,7.3372,7.3372,7.3372,5.3567,5.4807,5.5103,5.5529,5.6056,5.6117,5.6012,5.5865,5.5866,5.5827,5.5923,5.7328,5.8,5.8402,5.9765,6.0473,6.0704,6.0704,6.0319,5.9935,5.9473,5.8704,5.7934,5.7203,5.6626,5.6203,5.5857,5.5703,5.5703,5.5703,5.5703,5.5742,5.628,5.6742,5.7396,5.8165,5.8704,5.9127,5.9473,6.005,6.0627,6.0858,6.1435,6.2012,6.2743,6.3628,6.4436,6.5205,6.5628,6.5782,6.582,6.5767,6.574,6.5503,6.5258,6.4888,6.4596,6.4324,6.4203,6.3995,6.3867,6.3823,6.378,6.3691,6.3647,6.3602,6.3602,6.3602,6.3602,6.3602,6.3602,6.3602,6.3602,6.3602,6.3639,6.3676,6.3788,6.4159,6.4531,6.5357,6.6249,6.7216,6.8368,6.8591,6.8591,6.8543,6.8543,6.8543,6.8543,6.8543,6.8543,6.8543,6.8543,6.8543,6.8543,6.8543,6.8543,6.858,6.9037,6.9581,6.999,7.056,7.1156,7.1777,7.2471,7.2867,7.3187,7.3372,7.3372,7.3372,7.3298,7.3335,7.3372,7.3372,7.3372,5.3569,5.4492,5.5204,5.5773,5.6174,5.6199,5.6156,5.6056,5.5995,5.5923,5.6078,5.7641,5.8371,5.862,5.9986,6.085,6.0789,6.0404,5.9996,5.9627,5.8858,5.8011,5.7203,5.6626,5.6203,5.5818,5.5703,5.5703,5.5703,5.5742,5.578,5.6319,5.6857,5.7396,5.8088,5.8934,5.955,5.9858,6.0127,6.0358,6.0704,6.1127,6.182,6.2551,6.3358,6.4205,6.4974,6.5705,6.582,6.5897,6.5846,6.582,6.5767,6.5532,6.5314,6.4989,6.4817,6.4596,6.4444,6.4206,6.4079,6.3995,6.391,6.3823,6.3736,6.3691,6.3647,6.3602,6.3602,6.3602,6.3602,6.3602,6.3602,6.3602,6.3676,6.3788,6.4122,6.4493,6.5162,6.5952,6.6891,6.7821,6.8416,6.8575,6.865,6.8697,6.8697,6.8697,6.865,6.8554,6.8543,6.8543,6.8543,6.8543,6.858,6.8814,6.9086,6.9346,7.0001,7.0459,7.0806,7.1328,7.1999,7.2621,7.3205,7.3415,7.3476,7.3424,7.3372,7.3372,7.3372,7.3372,7.3372,7.3372,7.3372,5.3836,5.411,5.5628,5.6269,5.6314,5.6251,5.6251,5.6302,5.6185,5.6062,5.6286,5.7776,5.8472,5.8761,6.0149,6.0783,6.0547,6.0085,5.9463,5.9265,5.8033,5.711,5.6648,5.6165,5.5895,5.5742,5.5703,5.5703,5.5742,5.5934,5.6357,5.7011,5.7357,5.7973,5.9011,5.955,6.005,6.0435,6.0589,6.0781,6.1127,6.1704,6.2512,6.3358,6.4128,6.4897,6.559,6.5897,6.5897,6.5897,6.5897,6.5872,6.574,6.559,6.5405,6.522,6.4989,6.485,6.467,6.4482,6.4364,6.4244,6.4083,6.3958,6.3873,6.3736,6.3691,6.3647,6.3647,6.3647,6.3647,6.3647,6.3647,6.384,6.3996,6.422,6.4629,6.5262,6.623,6.7021,6.7691,6.8558,6.8688,6.8838,6.8884,6.8884,6.8929,6.8884,6.8838,6.8697,6.865,6.8602,6.8591,6.8666,6.9,6.9272,6.9778,7.0236,7.0891,7.1434,7.1855,7.2416,7.2967,7.3329,7.3616,7.3553,7.3578,7.3476,7.3424,7.3372,7.3372,7.3372,7.3372,7.3372,7.3372,5.3735,5.4952,5.5942,5.6402,5.6368,5.6359,5.6359,5.6359,5.6339,5.6251,5.6466,5.776,5.8579,5.8699,6.0056,6.0596,5.9996,5.9513,5.8855,5.8158,5.7174,5.6634,5.6228,5.5938,5.5724,5.5703,5.5703,5.5742,5.5934,5.6319,5.678,5.7203,5.7896,5.9088,5.9588,6.0012,6.055,6.0781,6.0973,6.1281,6.182,6.2089,6.2666,6.3782,6.4705,6.5089,6.5628,6.5897,6.5897,6.5897,6.5897,6.5872,6.5793,6.574,6.559,6.5375,6.522,6.509,6.492,6.4743,6.4596,6.4444,6.4326,6.4166,6.4037,6.3867,6.3736,6.3736,6.3691,6.3691,6.3766,6.381,6.3922,6.4196,6.4426,6.4799,6.5172,6.6217,6.7299,6.7979,6.8651,6.8892,6.8983,6.9027,6.9027,6.9072,6.9116,6.9116,6.9072,6.8945,6.8846,6.8838,6.8697,6.8836,6.9283,6.99,7.0395,7.1172,7.1911,7.2407,7.2866,7.3288,7.37,7.3832,7.3961,7.3864,7.3678,7.3615,7.3564,7.3424,7.3372,7.3372,7.3372,7.3424,7.3372,5.4372,5.5321,5.6113,5.6446,5.6418,5.6464,5.6425,5.6425,5.6457,5.6416,5.6481,5.7573,5.8178,5.8265,5.9465,5.9916,5.9279,5.8836,5.8201,5.7429,5.6773,5.6329,5.5943,5.5807,5.5766,5.5745,5.5763,5.5857,5.6263,5.6703,5.7165,5.8011,5.9165,5.9704,6.0012,6.0589,6.0781,6.0819,6.1127,6.182,6.2512,6.282,6.3243,6.4282,6.5013,6.5397,6.5628,6.5897,6.5897,6.5897,6.5897,6.5897,6.5846,6.5793,6.574,6.559,6.5435,6.5276,6.5155,6.5023,6.4813,6.4743,6.4558,6.4481,6.4405,6.4206,6.3958,6.3915,6.3786,6.3786,6.4383,6.4576,6.4949,6.5291,6.5515,6.5814,6.6574,6.7516,6.8241,6.8741,6.916,6.9203,6.9289,6.9374,6.9416,6.9457,6.9419,6.9419,6.9336,6.9289,6.916,6.914,6.9125,6.9286,6.9724,7.0453,7.1144,7.1958,7.2883,7.3401,7.3866,7.413,7.4387,7.4335,7.4197,7.4056,7.3912,7.3765,7.3615,7.3527,7.3424,7.3372,7.3424,7.3513,7.355,5.5338,5.556,5.6224,5.6523,5.6497,5.6509,5.6509,5.6503,5.6536,5.6517,5.6535,5.7138,5.7426,5.7806,5.8364,5.8542,5.8459,5.8095,5.7505,5.6936,5.6343,5.6132,5.6018,5.5904,5.5847,5.5923,5.5997,5.64,5.69,5.7478,5.8303,5.9319,5.9781,6.0012,6.0589,6.0819,6.0858,6.1204,6.1704,6.2512,6.3051,6.3512,6.4089,6.4782,6.5436,6.5859,6.5897,6.5897,6.5897,6.5897,6.5897,6.5897,6.5872,6.5846,6.582,6.574,6.5618,6.5494,6.5375,6.5252,6.5155,6.5023,6.4926,6.4895,6.4896,6.4898,6.4625,6.4541,6.4458,6.4524,6.5085,6.5496,6.5908,6.6325,6.6587,6.7005,6.7835,6.8597,6.8988,6.9416,6.9457,6.9536,6.9579,6.9699,6.9738,6.9777,6.9777,6.9739,6.9738,6.9735,6.9693,6.9717,6.9778,7.0023,7.0367,7.1079,7.1883,7.2861,7.3747,7.4346,7.4737,7.4737,7.4733,7.4606,7.4476,7.4335,7.4104,7.3961,7.3815,7.3628,7.3615,7.3527,7.3527,7.3615,7.3727,5.574,5.6356,5.652,5.6597,5.6585,5.6585,5.6579,5.6563,5.6563,5.6558,5.6553,5.6665,5.7017,5.7722,5.8491,5.8537,5.7792,5.7417,5.6952,5.6368,5.6233,5.6126,5.6117,5.6167,5.5943,5.6136,5.6541,5.7042,5.7716,5.8561,5.9194,5.9656,6.0342,6.055,6.0666,6.0858,6.1089,6.155,6.2127,6.282,6.3974,6.4436,6.4859,6.5397,6.5782,6.5897,6.5897,6.5897,6.5897,6.5897,6.5897,6.5897,6.5897,6.5872,6.5846,6.582,6.574,6.5789,6.5676,6.5656,6.5605,6.5741,6.5765,6.6049,6.617,6.6444,6.6371,6.6408,6.6254,6.5983,6.6281,6.6507,6.6845,6.7228,6.7532,6.8251,6.9048,6.9315,6.9506,6.9699,6.9738,6.9815,6.9891,6.9966,7.0003,7.0039,7.0111,7.0076,7.0039,7.008,7.0194,7.0383,7.0526,7.0922,7.1343,7.1982,7.2786,7.3753,7.446,7.4861,7.5056,7.5056,7.5018,7.4937,7.4733,7.4519,7.4342,7.416,7.3971,7.3875,7.3815,7.3765,7.3765,7.3915,7.4237]},{"header":{"parameterUnit":"m.s-1","parameterCategory":1,"la1":31.0,"la2":29.5877,"lo1":-88.7671,"lo2":-86.6584,"dx":0.0162,"dy":0.0185,"nx":115,"ny":88,"refTime":"2023-01-11T06:00:00:Z","depth":0,"parameterNumber":3,"parameterNumberName":"V-component_of_WINDS"},"data":[0.0,0.0,0.0,0.0,0.0,0.0,0.0,0.0,0.0,0.0,0.0,0.0,0.0,0.0,0.0,0.0,0.0,0.0,0.0,0.0,0.0,0.0,0.0,0.0,0.0,0.0,0.0,0.0,0.0,0.0,0.0,0.0,0.0,0.0,0.0,0.0,0.0,0.0,0.0,0.0,0.0,0.0,0.0,0.0,0.0,0.0,0.0,0.0,0.0,0.0,0.0,0.0,0.0,0.0,0.0,0.0,0.0,0.0,0.0,0.0,0.0,0.0,0.0,0.0,0.0,0.0,0.0,0.0,0.0,0.0,0.0,0.0,0.0,0.0,0.0,0.0,0.0,0.0,0.0,0.0,0.0,0.0,0.0,0.0,0.0,0.0,0.0,0.0,0.0,0.0,0.0,0.0,0.0,0.0,0.0,0.0,0.0,0.0,0.0,0.0,0.0,0.0,0.0,0.0,0.0,0.0,0.0,0.0,0.0,0.0,0.0,0.0,0.0,0.0,0.0,0.0,0.0,0.0,0.0,0.0,0.0,0.0,0.0,0.0,0.0,0.0,0.0,0.0,0.0,0.0,0.0,0.0,0.0,0.0,0.0,0.0,0.0,0.0,0.0,0.0,0.0,0.0,0.0,0.0,0.0,0.0,0.0,0.0,0.0,0.0,0.0,0.0,0.0,0.0,0.0,0.0,0.0,0.0,0.0,0.0,0.0,0.0,0.0,0.0,0.0,0.0,0.0,0.0,0.0,0.0,0.0,0.0,0.0,0.0,0.0,0.0,0.0,0.0,0.0,0.0,0.0,0.0,0.0,0.0,0.0,0.0,0.0,0.0,0.0,0.0,0.0,0.0,0.0,0.0,0.0,0.0,0.0,0.0,0.0,0.0,0.0,0.0,0.0,0.0,0.0,0.0,0.0,0.0,0.0,0.0,0.0,0.0,0.0,0.0,0.0,0.0,0.0,0.0,0.0,0.0,0.0,0.0,0.0,0.0,0.0,0.0,0.0,0.0,0.0,0.0,0.0,0.0,0.0,0.0,0.0,0.0,0.0,0.0,0.0,0.0,0.0,0.0,0.0,0.0,0.0,0.0,0.0,0.0,0.0,0.0,0.0,0.0,0.0,0.0,0.0,0.0,0.0,0.0,0.0,0.0,0.0,0.0,0.0,0.0,0.0,0.0,0.0,0.0,0.0,0.0,0.0,0.0,0.0,0.0,0.0,0.0,0.0,0.0,0.0,0.0,0.0,0.0,0.0,0.0,0.0,0.0,0.0,0.0,0.0,0.0,0.0,0.0,0.0,0.0,0.0,0.0,0.0,0.0,0.0,0.0,0.0,0.0,0.0,0.0,0.0,0.0,0.0,0.0,0.0,0.0,0.0,0.0,0.0,0.0,0.0,0.0,0.0,0.0,0.0,0.0,0.0,0.0,0.0,0.0,0.0,0.0,0.0,0.0,0.0,0.0,0.0,0.0,0.0,0.0,0.0,0.0,0.0,0.0,0.0,0.0,0.0,0.0,0.0,0.0,0.0,0.0,0.0,0.0,0.0,0.0,0.0,0.0,0.0,0.0,0.0,0.0,0.0,0.0,0.0,0.0,0.0,0.0,0.0,0.0,0.0,0.0,0.0,0.0,0.0,0.0,0.0,0.0,0.0,0.0,0.0,0.0,0.0,0.0,0.0,0.0,0.0,0.0,0.0,0.0,0.0,0.0,0.0,0.0,0.0,0.0,0.0,0.0,0.0,0.0,0.0,0.0,0.0,0.0,0.0,0.0,0.0,0.0,0.0,0.0,0.0,0.0,0.0,0.0,0.0,0.0,0.0,0.0,0.0,0.0,0.0,0.0,0.0,0.0,0.0,0.0,0.0,0.0,0.0,0.0,0.0,0.0,0.0,0.0,0.0,0.0,0.0,0.0,0.0,0.0,0.0,0.0,0.0,0.0,0.0,0.0,0.0,0.0,0.0,0.0,0.0,0.0,0.0,0.0,0.0,0.0,0.0,0.0,0.0,0.0,0.0,0.0,0.0,0.0,0.0,0.0,0.0,0.0,0.0,0.0,0.0,0.0,0.0,0.0,0.0,0.0,0.0,0.0,0.0,0.0,0.0,0.0,0.0,0.0,0.0,0.0,0.0,0.0,0.0,0.0,0.0,0.0,0.0,0.0,0.0,0.0,0.0,0.0,0.0,0.0,0.0,0.0,0.0,0.0,0.0,0.0,0.0,0.0,0.0,0.0,0.0,0.0,0.0,0.0,0.0,0.0,0.0,0.0,0.0,0.0,0.0,0.0,0.0,0.0,0.0,0.0,0.0,0.0,0.0,0.0,0.0,0.0,0.0,0.0,0.0,0.0,0.0,0.0,0.0,0.0,0.0,0.0,0.0,0.0,0.0,0.0,0.0,0.0,0.0,0.0,0.0,0.0,0.0,0.0,0.0,0.0,0.0,0.0,0.0,0.0,0.0,0.0,0.0,0.0,0.0,0.0,0.0,0.0,0.0,0.0,0.0,0.0,0.0,0.0,0.0,0.0,0.0,0.0,0.0,0.0,0.0,0.0,0.0,0.0,0.0,0.0,0.0,0.0,0.0,0.0,0.0,0.0,0.0,0.0,0.0,0.0,0.0,0.0,0.0,0.0,0.0,0.0,0.0,0.0,0.0,0.0,0.0,0.0,0.0,0.0,0.0,0.0,0.0,0.0,0.0,0.0,0.0,0.0,0.0,0.0,0.0,0.0,0.0,0.0,0.0,0.0,0.0,0.0,0.0,0.0,0.0,0.0,0.0,0.0,0.0,0.0,0.0,0.0,0.0,0.0,0.0,0.0,0.0,0.0,0.0,0.0,0.0,0.0,0.0,0.0,0.0,0.0,0.0,0.0,0.0,0.0,0.0,0.0,0.0,0.0,0.0,0.0,0.0,0.0,0.0,0.0,0.0,0.0,0.0,0.0,0.0,0.0,0.0,0.0,0.0,0.0,0.0,0.0,0.0,0.0,0.0,0.0,0.0,0.0,0.0,0.0,0.0,0.0,0.0,0.0,0.0,0.0,0.0,0.0,0.0,0.0,0.0,0.0,0.0,0.0,0.0,0.0,0.0,0.0,0.0,0.0,0.0,0.0,0.0,0.0,0.0,0.0,0.0,0.0,0.0,0.0,0.0,0.0,0.0,0.0,0.0,0.0,0.0,0.0,0.0,0.0,0.0,0.0,0.0,0.0,0.0,0.0,0.0,0.0,0.0,0.0,0.0,0.0,0.0,0.0,0.0,0.0,0.0,0.0,0.0,0.0,0.0,0.0,0.0,0.0,0.0,0.0,0.0,0.0,0.0,0.0,0.0,0.0,0.0,0.0,0.0,0.0,0.0,0.0,0.0,0.0,0.0,0.0,0.0,0.0,0.0,0.0,0.0,0.0,0.0,0.0,0.0,0.0,0.0,0.0,0.0,0.0,0.0,0.0,0.0,0.0,0.0,0.0,0.0,0.0,0.0,0.0,0.0,0.0,0.0,0.0,0.0,0.0,0.0,0.0,0.0,0.0,0.0,0.0,0.0,0.0,0.0,0.0,0.0,0.0,0.0,0.0,0.0,0.0,0.0,0.0,0.0,0.0,0.0,0.0,0.0,0.0,0.0,0.0,0.0,0.0,0.0,0.0,0.0,0.0,0.0,0.0,0.0,0.0,0.0,0.0,0.0,0.0,0.0,0.0,0.0,0.0,0.0,0.0,0.0,0.0,0.0,0.0,0.0,0.0,0.0,0.0,0.0,0.0,0.0,0.0,0.0,0.0,0.0,0.0,0.0,0.0,0.0,0.0,0.0,0.0,0.0,0.0,0.0,0.0,0.0,0.0,0.0,0.0,0.0,0.0,0.0,0.0,0.0,0.0,0.0,0.0,0.0,0.0,0.0,0.0,0.0,0.0,0.0,0.0,0.0,0.0,0.0,0.0,0.0,0.0,0.0,0.0,0.0,0.0,0.0,0.0,0.0,0.0,0.0,0.0,0.0,0.0,0.0,0.0,0.0,0.0,0.0,0.0,0.0,0.0,0.0,0.0,0.0,0.0,0.0,0.0,0.0,0.0,0.0,0.0,0.0,0.0,0.0,0.0,0.0,0.0,0.0,0.0,0.0,0.0,0.0,0.0,0.0,0.0,0.0,0.0,0.0,0.0,0.0,0.0,0.0,0.0,0.0,0.0,0.0,0.0,0.0,0.0,0.0,0.0,0.0,0.0,0.0,0.0,0.0,0.0,0.0,0.0,0.0,0.0,0.0,0.0,-0.5577,0.0,0.0,0.0,-0.6459,0.0,0.0,0.0,0.0,0.0,0.0,0.0,0.0,0.0,0.0,0.0,0.0,0.0,0.0,0.0,0.0,0.0,0.0,0.0,0.0,0.0,0.0,0.0,0.0,0.0,0.0,0.0,0.0,0.0,0.0,0.0,0.0,0.0,0.0,0.0,0.0,0.0,0.0,0.0,0.0,0.0,0.0,0.0,0.0,0.0,0.0,0.0,0.0,0.0,0.0,0.0,0.0,0.0,0.0,0.0,0.0,0.0,0.0,0.0,0.0,0.0,0.0,0.0,0.0,0.0,0.0,0.0,0.0,0.0,0.0,0.0,0.0,0.0,0.0,0.0,0.0,0.0,0.0,0.0,0.0,0.0,0.0,0.0,0.0,0.0,0.0,0.0,0.0,0.0,0.0,0.0,0.0,0.0,0.0,0.0,0.0,0.0,0.0,0.0,0.0,0.0,0.0,0.0,0.0,0.0,0.0,0.0,0.0,0.0,0.0,-0.5466,-0.5813,-0.5924,-0.6131,-0.6346,0.0,0.0,0.0,0.0,0.0,0.0,0.0,0.0,0.0,0.0,0.0,0.0,0.0,0.0,0.0,0.0,0.0,0.0,0.0,0.0,0.0,0.0,0.0,0.0,0.0,0.0,0.0,0.0,0.0,0.0,0.0,0.0,0.0,0.0,0.0,0.0,0.0,0.0,0.0,0.0,0.0,0.0,0.0,0.0,0.0,0.0,0.0,0.0,0.0,0.0,0.0,0.0,0.0,0.0,0.0,0.0,0.0,0.0,0.0,0.0,0.0,0.0,0.0,0.0,0.0,0.0,0.0,0.0,0.0,0.0,0.0,0.0,0.0,0.0,0.0,0.0,0.0,0.0,0.0,0.0,0.0,0.0,0.0,0.0,0.0,0.0,0.0,0.0,0.0,0.0,0.0,0.0,0.0,0.0,0.0,0.0,0.0,0.0,0.0,0.0,0.0,0.0,0.0,0.0,0.0,0.0,0.0,0.0,0.0,0.0,0.0,0.0,-0.5766,-0.5934,-0.6282,0.0,0.0,0.0,0.0,0.0,0.0,0.0,0.0,0.0,0.0,0.0,0.0,0.0,0.0,0.0,0.0,0.0,0.0,0.0,0.0,0.0,0.0,0.0,0.0,0.0,0.0,0.0,0.0,0.0,0.0,0.0,0.0,0.0,0.0,0.0,0.0,0.0,0.0,0.0,0.0,0.0,0.0,0.0,0.0,0.0,0.0,0.0,0.0,0.0,0.0,0.0,0.0,0.0,0.0,0.0,0.0,0.0,0.0,0.0,0.0,0.0,0.0,0.0,0.0,0.0,0.0,0.0,0.0,0.0,0.0,0.0,0.0,0.0,0.0,0.0,0.0,0.0,0.0,0.0,0.0,0.0,0.0,0.0,0.0,0.0,0.0,0.0,0.0,0.0,0.0,0.0,0.0,0.0,0.0,0.0,0.0,0.0,0.0,0.0,0.0,0.0,0.0,0.0,0.0,0.0,0.0,0.0,0.0,0.0,0.0,-0.5504,-0.5606,-0.5881,0.0,-0.6224,0.0,0.0,0.0,0.0,0.0,0.0,0.0,0.0,0.0,0.0,0.0,0.0,0.0,0.0,0.0,0.0,0.0,0.0,0.0,0.0,0.0,0.0,0.0,0.0,0.0,0.0,0.0,0.0,0.0,0.0,0.0,0.0,0.0,0.0,0.0,0.0,0.0,0.0,0.0,0.0,0.0,0.0,0.0,0.0,0.0,0.0,0.0,0.0,0.0,0.0,0.0,0.0,0.0,0.0,0.0,0.0,0.0,0.0,0.0,0.0,0.0,0.0,0.0,0.0,0.0,0.0,0.0,0.0,0.0,0.0,0.0,0.0,0.0,0.0,0.0,0.0,0.0,0.0,0.0,0.0,0.0,0.0,0.0,0.0,0.0,0.0,0.0,0.0,0.0,0.0,0.0,0.0,0.0,0.0,0.0,0.0,0.0,0.0,0.0,0.0,0.0,0.0,0.0,0.0,0.0,0.0,0.0,0.0,0.0,0.0,-0.5367,-0.5552,-0.5837,-0.5967,0.0,0.0,0.0,0.0,0.0,0.0,0.0,0.0,0.0,0.0,0.0,0.0,0.0,0.0,0.0,0.0,0.0,0.0,0.0,0.0,0.0,0.0,0.0,0.0,0.0,0.0,0.0,0.0,0.0,0.0,0.0,0.0,0.0,0.0,0.0,0.0,0.0,0.0,0.0,0.0,0.0,0.0,0.0,0.0,0.0,0.0,0.0,0.0,0.0,0.0,0.0,0.0,0.0,0.0,0.0,0.0,0.0,0.0,0.0,0.0,0.0,0.0,0.0,0.0,0.0,0.0,0.0,0.0,0.0,0.0,0.0,0.0,0.0,0.0,0.0,0.0,0.0,0.0,0.0,0.0,0.0,0.0,0.0,0.0,0.0,0.0,0.0,0.0,0.0,0.0,0.0,0.0,0.0,0.0,0.0,0.0,0.0,0.0,0.0,0.0,0.0,0.0,0.0,0.0,0.0,0.0,0.0,0.0,0.0,0.0,-0.5169,-0.5345,-0.5553,-0.5736,-0.5796,-0.5716,0.0,0.0,0.0,0.0,0.0,0.0,0.0,0.0,0.0,0.0,0.0,0.0,0.0,0.0,0.0,0.0,0.0,0.0,0.0,0.0,0.0,0.0,0.0,0.0,0.0,0.0,0.0,0.0,0.0,0.0,0.0,0.0,0.0,0.0,0.0,0.0,0.0,0.0,0.0,0.0,0.0,0.0,0.0,0.0,0.0,0.0,0.0,0.0,0.0,0.0,0.0,0.0,0.0,0.0,0.0,0.0,0.0,0.0,0.0,0.0,0.0,0.0,0.0,0.0,0.0,0.0,0.0,0.0,0.0,0.0,0.0,0.0,0.0,0.0,0.0,0.0,0.0,0.0,0.0,0.0,0.0,0.0,0.0,0.0,0.0,0.0,0.0,0.0,0.0,0.0,0.0,0.0,0.0,0.0,0.0,0.0,0.0,0.0,0.0,0.0,0.0,0.0,0.0,0.0,0.0,0.0,0.0,0.0,-0.5134,-0.534,-0.5571,-0.5773,-0.5756,-0.5668,0.0,0.0,0.0,0.0,0.0,0.0,0.0,0.0,0.0,0.0,0.0,0.0,0.0,0.0,0.0,0.0,0.0,0.0,0.0,0.0,0.0,0.0,0.0,0.0,0.0,0.0,0.0,0.0,0.0,0.0,0.0,0.0,0.0,0.0,0.0,0.0,0.0,0.0,0.0,0.0,0.0,0.0,0.0,0.0,0.0,0.0,0.0,0.0,0.0,0.0,0.0,0.0,0.0,0.0,0.0,0.0,0.0,0.0,0.0,0.0,0.0,0.0,0.0,0.0,0.0,0.0,0.0,0.0,0.0,0.0,0.0,0.0,0.0,0.0,0.0,0.0,0.0,0.0,0.0,0.0,0.0,0.0,0.0,0.0,0.0,0.0,0.0,0.0,0.0,0.0,0.0,0.0,0.0,0.0,0.0,0.0,0.0,0.0,0.0,0.0,0.0,0.0,0.0,0.0,0.0,0.0,0.0,0.0,0.0,-0.5249,-0.5453,-0.5617,-0.5797,-0.5905,-0.5882,0.0,0.0,0.0,0.0,0.0,0.0,0.0,0.0,0.0,0.0,0.0,0.0,0.0,0.0,0.0,0.0,0.0,0.0,0.0,0.0,0.0,0.0,0.0,0.0,0.0,0.0,0.0,0.0,0.0,0.0,0.0,0.0,0.0,0.0,0.0,0.0,0.0,0.0,0.0,0.0,0.0,0.0,0.0,0.0,0.0,0.0,0.0,0.0,0.0,0.0,0.0,0.0,0.0,0.0,0.0,0.0,0.0,0.0,0.0,0.0,0.0,0.0,0.0,0.0,0.0,0.0,0.0,0.0,0.0,0.0,0.0,0.0,0.0,0.0,0.0,0.0,0.0,0.0,0.0,0.0,0.0,0.0,0.0,0.0,0.0,0.0,0.0,0.0,0.0,0.0,0.0,0.0,0.0,0.0,0.0,0.0,0.0,0.0,0.0,0.0,0.0,0.0,0.0,0.0,0.0,0.0,0.0,0.0,0.0,-0.55,-0.5686,-0.585,-0.5909,-0.6086,-0.6049,0.0,0.0,0.0,0.0,0.0,0.0,0.0,0.0,0.0,0.0,0.0,0.0,0.0,0.0,0.0,0.0,0.0,0.0,0.0,0.0,0.0,0.0,0.0,0.0,0.0,0.0,0.0,0.0,0.0,0.0,0.0,0.0,0.0,0.0,0.0,0.0,0.0,0.0,0.0,0.0,0.0,0.0,0.0,0.0,0.0,0.0,0.0,0.0,0.0,0.0,0.0,0.0,0.0,0.0,0.0,0.0,0.0,0.0,0.0,0.0,0.0,0.0,0.0,0.0,0.0,0.0,0.0,0.0,0.0,0.0,0.0,0.0,0.0,0.0,0.0,0.0,0.0,0.0,0.0,0.0,0.0,0.0,0.0,0.0,0.0,0.0,0.0,0.0,0.0,0.0,0.0,0.0,0.0,0.0,0.0,0.0,0.0,0.0,0.0,0.0,0.0,0.0,0.0,0.0,0.0,0.0,0.0,0.0,-0.5626,-0.5872,-0.6067,-0.6219,-0.6211,-0.6301,-0.6145,0.0,0.0,0.0,0.0,0.0,0.0,0.0,0.0,0.0,0.0,0.0,0.0,0.0,0.0,0.0,0.0,0.0,0.0,0.0,0.0,0.0,0.0,0.0,0.0,0.0,0.0,0.0,0.0,0.0,0.0,0.0,0.0,0.0,0.0,0.0,0.0,0.0,0.0,0.0,0.0,0.0,0.0,0.0,0.0,0.0,0.0,0.0,0.0,0.0,0.0,0.0,0.0,0.0,0.0,0.0,0.0,0.0,0.0,0.0,0.0,0.0,0.0,0.0,0.0,0.0,0.0,0.0,0.0,0.0,0.0,0.0,0.0,0.0,0.0,0.0,0.0,0.0,0.0,0.0,0.0,0.0,0.0,0.0,0.0,0.0,0.0,0.0,0.0,0.0,0.0,0.0,0.0,0.0,0.0,0.0,0.0,0.0,0.0,0.0,0.0,0.0,0.0,0.0,0.0,0.0,0.0,0.0,0.0,0.0,-0.6061,-0.6352,-0.6439,-0.6321,-0.6721,-0.6659,0.0,0.0,0.0,0.0,0.0,0.0,0.0,0.0,0.0,0.0,0.0,0.0,0.0,0.0,0.0,0.0,0.0,0.0,0.0,0.0,0.0,0.0,0.0,0.0,0.0,0.0,0.0,0.0,0.0,0.0,0.0,0.0,0.0,0.0,0.0,0.0,0.0,0.0,0.0,0.0,0.0,0.0,0.0,0.0,0.0,0.0,0.0,0.0,0.0,0.0,0.0,0.0,0.0,0.0,0.0,0.0,0.0,0.0,0.0,0.0,0.0,0.0,0.0,0.0,0.0,0.0,0.0,0.0,0.0,0.0,0.0,0.0,0.0,0.0,0.0,0.0,0.0,0.0,0.0,0.0,0.0,0.0,0.0,0.0,0.0,0.0,0.0,0.0,0.0,0.0,0.0,0.0,0.0,0.0,0.0,0.0,0.0,0.0,0.0,0.0,0.0,0.0,0.0,0.0,0.0,0.0,0.0,0.0,0.0,-0.6472,-0.668,-0.6734,-0.6626,-0.7057,-0.6998,-0.6494,0.0,0.0,0.0,0.0,0.0,0.0,0.0,0.0,0.0,0.0,0.0,0.0,0.0,0.0,0.0,0.0,0.0,0.0,0.0,0.0,0.0,0.0,0.0,0.0,0.0,0.0,0.0,0.0,0.0,0.0,0.0,0.0,0.0,0.0,0.0,0.0,0.0,0.0,0.0,0.0,0.0,0.0,0.0,0.0,0.0,0.0,0.0,0.0,0.0,0.0,0.0,0.0,0.0,0.0,0.0,0.0,0.0,0.0,0.0,0.0,0.0,0.0,0.0,0.0,0.0,0.0,0.0,0.0,0.0,0.0,0.0,0.0,0.0,0.0,0.0,0.0,0.0,0.0,0.0,0.0,0.0,0.0,0.0,0.0,0.0,0.0,0.0,0.0,0.0,0.0,0.0,0.0,0.0,0.0,0.0,0.0,0.0,0.0,0.0,0.0,0.0,0.0,0.0,0.0,0.0,0.0,0.0,0.0,-0.7196,-0.7211,-0.7211,-0.7103,-0.731,-0.7276,0.0,0.0,0.0,0.0,0.0,0.0,0.0,0.0,0.0,0.0,0.0,0.0,0.0,0.0,0.0,0.0,0.0,0.0,0.0,0.0,0.0,0.0,0.0,0.0,0.0,0.0,0.0,0.0,0.0,0.0,0.0,0.0,0.0,0.0,0.0,0.0,0.0,0.0,0.0,0.0,0.0,0.0,0.0,0.0,0.0,0.0,0.0,0.0,0.0,0.0,0.0,0.0,0.0,0.0,0.0,0.0,0.0,0.0,0.0,0.0,0.0,0.0,0.0,0.0,0.0,0.0,0.0,0.0,0.0,0.0,0.0,0.0,0.0,0.0,0.0,0.0,0.0,0.0,0.0,0.0,0.0,0.0,0.0,0.0,0.0,0.0,0.0,0.0,0.0,0.0,0.0,0.0,0.0,0.0,0.0,0.0,0.0,0.0,0.0,0.0,0.0,0.0,0.0,0.0,0.0,0.0,0.0,0.0,0.0,-0.7359,-0.7624,-0.7632,-0.7367,-0.7693,-0.7538,0.0,0.0,0.0,0.0,0.0,0.0,0.0,0.0,0.0,0.0,0.0,0.0,0.0,0.0,0.0,0.0,0.0,0.0,0.0,0.0,0.0,0.0,0.0,0.0,0.0,0.0,0.0,0.0,0.0,0.0,0.0,0.0,0.0,0.0,0.0,0.0,0.0,0.0,0.0,0.0,0.0,0.0,0.0,0.0,0.0,0.0,0.0,0.0,0.0,0.0,0.0,0.0,0.0,0.0,0.0,0.0,0.0,0.0,0.0,0.0,0.0,0.0,0.0,0.0,0.0,0.0,0.0,0.0,0.0,0.0,0.0,0.0,0.0,0.0,0.0,0.0,0.0,0.0,0.0,0.0,0.0,0.0,0.0,0.0,0.0,0.0,0.0,0.0,0.0,0.0,0.0,0.0,0.0,0.0,0.0,0.0,0.0,0.0,0.0,0.0,0.0,0.0,0.0,0.0,0.0,0.0,0.0,0.0,-0.7326,-0.7619,-0.8058,-0.8106,-0.7812,-0.797,-0.7781,0.0,0.0,0.0,0.0,0.0,0.0,0.0,0.0,0.0,0.0,0.0,0.0,0.0,0.0,0.0,0.0,0.0,0.0,0.0,0.0,0.0,0.0,0.0,0.0,0.0,0.0,0.0,0.0,0.0,0.0,0.0,0.0,0.0,0.0,0.0,0.0,0.0,0.0,0.0,0.0,0.0,0.0,0.0,0.0,0.0,0.0,0.0,0.0,0.0,0.0,0.0,0.0,0.0,0.0,0.0,0.0,0.0,0.0,0.0,0.0,0.0,0.0,0.0,0.0,0.0,0.0,0.0,0.0,0.0,0.0,0.0,0.0,0.0,0.0,0.0,0.0,0.0,0.0,0.0,0.0,0.0,0.0,0.0,0.0,0.0,0.0,0.0,0.0,0.0,0.0,0.0,0.0,0.0,0.0,0.0,0.0,0.0,0.0,0.0,0.0,0.0,0.0,0.0,0.0,0.0,0.0,0.0,0.0,-0.8087,-0.804,-0.8381,-0.8479,-0.8292,-0.8269,-0.804,0.0,0.0,0.0,0.0,0.0,0.0,0.0,0.0,0.0,0.0,0.0,0.0,0.0,0.0,0.0,0.0,0.0,0.0,0.0,0.0,0.0,0.0,0.0,0.0,0.0,0.0,0.0,0.0,0.0,0.0,0.0,0.0,0.0,0.0,0.0,0.0,0.0,0.0,0.0,0.0,0.0,0.0,0.0,0.0,0.0,0.0,0.0,0.0,0.0,0.0,0.0,0.0,0.0,0.0,0.0,0.0,0.0,0.0,0.0,0.0,0.0,0.0,0.0,0.0,0.0,0.0,0.0,0.0,0.0,0.0,0.0,0.0,0.0,0.0,0.0,0.0,0.0,0.0,0.0,0.0,0.0,0.0,0.0,0.0,0.0,0.0,0.0,0.0,0.0,0.0,0.0,0.0,0.0,0.0,0.0,0.0,0.0,0.0,0.0,0.0,0.0,0.0,0.0,0.0,0.0,0.0,0.0,0.0,-0.8154,-0.8227,-0.8455,-0.8479,-0.8292,-0.8187,-0.7863,0.0,0.0,0.0,0.0,0.0,0.0,0.0,0.0,0.0,0.0,0.0,0.0,0.0,0.0,0.0,0.0,0.0,0.0,0.0,0.0,0.0,0.0,0.0,0.0,0.0,0.0,0.0,0.0,0.0,0.0,0.0,0.0,0.0,0.0,0.0,0.0,0.0,0.0,0.0,0.0,0.0,0.0,0.0,0.0,0.0,0.0,0.0,0.0,-1.1847,0.0,0.0,0.0,0.0,0.0,0.0,0.0,0.0,0.0,0.0,0.0,0.0,0.0,0.0,0.0,0.0,0.0,0.0,0.0,0.0,0.0,0.0,0.0,0.0,0.0,0.0,0.0,0.0,0.0,0.0,0.0,0.0,0.0,0.0,0.0,0.0,0.0,0.0,0.0,0.0,0.0,0.0,0.0,0.0,0.0,0.0,0.0,0.0,0.0,0.0,0.0,0.0,0.0,0.0,0.0,0.0,0.0,0.0,0.0,-0.8336,-0.8446,-0.8558,-0.8519,-0.8414,-0.8238,-0.7939,0.0,0.0,0.0,0.0,0.0,0.0,0.0,0.0,0.0,0.0,0.0,0.0,0.0,0.0,0.0,0.0,0.0,0.0,0.0,0.0,0.0,0.0,0.0,0.0,0.0,0.0,0.0,0.0,0.0,0.0,0.0,0.0,0.0,0.0,0.0,0.0,0.0,0.0,0.0,0.0,0.0,0.0,0.0,0.0,0.0,0.0,0.0,0.0,0.0,0.0,0.0,0.0,0.0,0.0,0.0,0.0,0.0,0.0,0.0,0.0,0.0,0.0,0.0,0.0,0.0,0.0,0.0,0.0,0.0,0.0,0.0,0.0,0.0,0.0,0.0,0.0,0.0,0.0,0.0,0.0,0.0,0.0,0.0,0.0,0.0,0.0,0.0,0.0,0.0,0.0,0.0,0.0,0.0,0.0,0.0,0.0,0.0,0.0,0.0,0.0,0.0,0.0,0.0,0.0,0.0,0.0,0.0,-0.8559,-0.8621,-0.8666,-0.8661,-0.8568,-0.856,-0.8388,-0.81,-0.779,0.0,0.0,0.0,0.0,0.0,0.0,0.0,0.0,0.0,0.0,0.0,0.0,0.0,0.0,0.0,0.0,0.0,0.0,0.0,0.0,0.0,0.0,0.0,0.0,0.0,0.0,0.0,0.0,0.0,0.0,0.0,0.0,0.0,0.0,0.0,0.0,0.0,0.0,-1.0378,-1.0974,0.0,0.0,0.0,0.0,0.0,0.0,0.0,0.0,-1.1731,0.0,0.0,0.0,0.0,0.0,0.0,0.0,0.0,0.0,0.0,0.0,0.0,0.0,0.0,0.0,0.0,0.0,0.0,0.0,0.0,0.0,0.0,0.0,0.0,0.0,0.0,0.0,0.0,0.0,0.0,0.0,0.0,0.0,0.0,0.0,0.0,0.0,0.0,0.0,0.0,0.0,0.0,0.0,0.0,0.0,0.0,0.0,0.0,0.0,0.0,0.0,0.0,0.0,0.0,0.0,0.0,-0.8808,-0.8702,-0.8681,-0.8852,-0.8727,-0.8568,-0.8648,-0.8388,-0.8159,-0.7973,0.0,0.0,0.0,0.0,0.0,0.0,0.0,0.0,0.0,0.0,0.0,0.0,0.0,0.0,0.0,0.0,0.0,0.0,0.0,0.0,0.0,0.0,0.0,0.0,0.0,0.0,0.0,0.0,0.0,0.0,0.0,0.0,0.0,0.0,0.0,0.0,0.0,0.0,0.0,-1.1316,-1.1873,0.0,0.0,0.0,0.0,0.0,0.0,0.0,0.0,-1.232,0.0,0.0,0.0,0.0,0.0,0.0,0.0,0.0,0.0,0.0,0.0,0.0,0.0,0.0,0.0,0.0,0.0,0.0,0.0,0.0,0.0,0.0,0.0,0.0,0.0,0.0,0.0,0.0,0.0,0.0,0.0,0.0,0.0,0.0,0.0,0.0,0.0,0.0,0.0,0.0,0.0,0.0,0.0,0.0,0.0,0.0,0.0,0.0,0.0,0.0,0.0,0.0,0.0,0.0,0.0,-0.8988,-0.88,-0.8782,-0.9069,-0.8736,-0.8568,-0.856,-0.8464,-0.8336,0.0,0.0,0.0,0.0,0.0,0.0,0.0,0.0,0.0,0.0,0.0,0.0,0.0,0.0,0.0,0.0,0.0,0.0,0.0,0.0,0.0,0.0,0.0,0.0,0.0,0.0,0.0,0.0,0.0,0.0,0.0,0.0,0.0,0.0,0.0,0.0,0.0,0.0,0.0,0.0,-1.1276,-1.1797,-1.2167,0.0,0.0,0.0,0.0,0.0,0.0,-1.238,-1.2306,0.0,0.0,0.0,0.0,0.0,0.0,0.0,0.0,0.0,0.0,0.0,0.0,0.0,0.0,0.0,0.0,0.0,0.0,0.0,0.0,0.0,0.0,0.0,0.0,0.0,0.0,0.0,0.0,0.0,0.0,0.0,0.0,0.0,0.0,0.0,0.0,0.0,0.0,0.0,0.0,0.0,0.0,0.0,0.0,0.0,0.0,0.0,0.0,0.0,0.0,0.0,0.0,0.0,0.0,0.0,-0.9133,-0.8854,-0.8817,-0.9157,-0.8832,-0.8568,-0.856,-0.8548,-0.8417,0.0,0.0,0.0,0.0,0.0,0.0,0.0,0.0,0.0,0.0,0.0,0.0,0.0,0.0,0.0,0.0,0.0,0.0,0.0,0.0,0.0,0.0,0.0,0.0,0.0,0.0,0.0,0.0,0.0,0.0,0.0,0.0,0.0,0.0,0.0,0.0,0.0,0.0,0.0,0.0,0.0,-1.1745,-1.2026,-1.2137,0.0,0.0,0.0,0.0,-1.2277,-1.2304,0.0,0.0,0.0,0.0,0.0,0.0,0.0,0.0,0.0,0.0,0.0,0.0,0.0,0.0,0.0,0.0,0.0,0.0,0.0,0.0,0.0,0.0,0.0,0.0,0.0,0.0,0.0,0.0,0.0,0.0,0.0,0.0,0.0,0.0,0.0,0.0,0.0,0.0,0.0,0.0,0.0,0.0,0.0,0.0,0.0,0.0,0.0,0.0,0.0,0.0,0.0,0.0,0.0,0.0,0.0,0.0,-0.9203,-0.8973,-0.8862,-0.8894,-0.8736,-0.8568,-0.8568,-0.8464,-0.8256,0.0,0.0,0.0,0.0,0.0,0.0,0.0,0.0,0.0,0.0,0.0,0.0,0.0,0.0,0.0,0.0,0.0,0.0,0.0,0.0,0.0,0.0,0.0,0.0,0.0,0.0,0.0,0.0,0.0,0.0,0.0,0.0,0.0,0.0,0.0,0.0,0.0,0.0,0.0,0.0,0.0,-1.2137,-1.2711,-1.3019,-1.3209,0.0,0.0,-1.3607,-1.3607,-1.3145,0.0,0.0,0.0,0.0,0.0,0.0,0.0,0.0,0.0,0.0,0.0,0.0,0.0,0.0,0.0,0.0,0.0,0.0,0.0,0.0,0.0,0.0,0.0,0.0,0.0,0.0,0.0,0.0,0.0,0.0,0.0,0.0,0.0,0.0,0.0,0.0,0.0,0.0,0.0,0.0,0.0,0.0,0.0,0.0,0.0,0.0,0.0,0.0,0.0,0.0,0.0,0.0,0.0,0.0,0.0,-0.9051,-0.9154,-0.9009,-0.8931,-0.9046,-0.8794,-0.8617,-0.8706,-0.8529,-0.8336,0.0,0.0,0.0,0.0,0.0,0.0,0.0,0.0,0.0,0.0,0.0,0.0,0.0,0.0,0.0,0.0,0.0,0.0,0.0,0.0,0.0,0.0,0.0,0.0,0.0,0.0,0.0,0.0,0.0,0.0,0.0,0.0,0.0,0.0,0.0,0.0,0.0,0.0,0.0,0.0,0.0,0.0,-1.2804,-1.3042,0.0,0.0,0.0,-1.3437,-1.3437,0.0,0.0,0.0,0.0,0.0,0.0,0.0,0.0,0.0,0.0,0.0,0.0,0.0,0.0,0.0,0.0,0.0,0.0,0.0,0.0,0.0,0.0,0.0,0.0,0.0,0.0,0.0,0.0,0.0,0.0,0.0,0.0,0.0,0.0,0.0,0.0,0.0,0.0,0.0,0.0,0.0,0.0,0.0,0.0,0.0,0.0,0.0,0.0,0.0,0.0,0.0,0.0,0.0,0.0,0.0,0.0,0.0,-0.9161,-0.9052,-0.9069,-0.9075,-0.8828,-0.8739,-0.8812,-0.8694,0.0,0.0,0.0,0.0,0.0,0.0,0.0,0.0,0.0,0.0,0.0,0.0,0.0,0.0,0.0,0.0,0.0,0.0,0.0,0.0,0.0,0.0,0.0,0.0,0.0,0.0,0.0,-0.754,0.0,0.0,0.0,0.0,0.0,0.0,0.0,0.0,0.0,0.0,0.0,0.0,0.0,0.0,-1.2492,-1.3091,-1.328,-1.348,0.0,0.0,-1.3654,-1.3654,-1.3534,-1.3346,0.0,0.0,0.0,0.0,0.0,0.0,0.0,0.0,0.0,0.0,0.0,0.0,0.0,0.0,0.0,0.0,0.0,0.0,0.0,0.0,0.0,0.0,0.0,0.0,0.0,0.0,0.0,0.0,0.0,0.0,0.0,0.0,0.0,0.0,0.0,0.0,0.0,0.0,0.0,0.0,0.0,0.0,0.0,0.0,0.0,0.0,0.0,0.0,0.0,0.0,0.0,0.0,0.0,0.0,0.0,-0.9217,-0.9392,-0.9246,-0.882,-0.8974,-0.8982,-0.882,-0.8641,-0.8385,0.0,0.0,0.0,0.0,0.0,0.0,0.0,0.0,0.0,0.0,0.0,0.0,0.0,0.0,0.0,0.0,0.0,0.0,0.0,0.0,0.0,0.0,0.0,0.0,0.0,0.0,0.0,0.0,0.0,0.0,0.0,0.0,0.0,0.0,0.0,0.0,0.0,0.0,0.0,0.0,0.0,-1.2719,-1.3841,-1.4015,-1.4215,0.0,0.0,-1.4843,-1.4843,-1.4389,-1.4015,-1.3975,0.0,0.0,0.0,0.0,0.0,0.0,0.0,0.0,0.0,0.0,0.0,0.0,0.0,0.0,0.0,0.0,0.0,0.0,0.0,0.0,0.0,0.0,0.0,0.0,0.0,0.0,0.0,0.0,0.0,0.0,0.0,0.0,0.0,0.0,0.0,0.0,0.0,0.0,0.0,0.0,0.0,0.0,0.0,0.0,0.0,0.0,0.0,0.0,0.0,0.0,0.0,0.0,0.0,-0.9135,-0.8991,-0.9244,-0.9241,-0.8982,-0.9064,-0.9112,-0.9145,-0.8869,-0.8576,0.0,0.0,0.0,0.0,0.0,0.0,0.0,0.0,0.0,0.0,0.0,0.0,0.0,0.0,0.0,0.0,0.0,0.0,0.0,0.0,0.0,0.0,0.0,0.0,0.0,0.0,0.0,0.0,-0.8991,-0.9352,-0.9339,0.0,0.0,0.0,0.0,0.0,0.0,0.0,0.0,0.0,0.0,-1.336,-1.4001,-1.4402,0.0,0.0,-1.5053,-1.5053,-1.5053,-1.4776,-1.4563,-1.4389,-1.4015,0.0,0.0,0.0,0.0,0.0,0.0,0.0,0.0,0.0,0.0,0.0,0.0,0.0,0.0,0.0,0.0,0.0,0.0,0.0,0.0,0.0,0.0,0.0,0.0,0.0,0.0,0.0,0.0,0.0,0.0,0.0,0.0,0.0,0.0,0.0,0.0,0.0,0.0,0.0,0.0,0.0,0.0,0.0,0.0,0.0,0.0,0.0,0.0,0.0,0.0,0.0,0.0,-0.8996,-0.9009,-0.9155,-0.9267,-0.9169,-0.9226,-0.9283,-0.9348,-0.9112,-0.8852,0.0,0.0,0.0,0.0,0.0,0.0,0.0,0.0,0.0,0.0,0.0,0.0,0.0,0.0,0.0,0.0,0.0,0.0,0.0,0.0,0.0,0.0,0.0,0.0,0.0,0.0,0.0,0.0,-0.9512,-0.982,-0.982,0.0,0.0,0.0,0.0,0.0,0.0,0.0,0.0,0.0,0.0,-1.3948,-1.4416,-1.491,-1.5257,-1.5337,-1.5431,-1.5484,-1.5484,-1.5337,-1.515,-1.4937,0.0,0.0,0.0,0.0,0.0,0.0,0.0,0.0,0.0,0.0,0.0,0.0,0.0,0.0,0.0,0.0,0.0,0.0,0.0,0.0,0.0,0.0,0.0,0.0,0.0,0.0,0.0,0.0,0.0,0.0,-0.5965,0.0,0.0,0.0,0.0,0.0,0.0,0.0,0.0,0.0,0.0,0.0,0.0,0.0,0.0,0.0,0.0,0.0,0.0,0.0,0.0,0.0,0.0,-0.8972,-0.9217,-0.9354,-0.9357,-0.9348,-0.9527,-0.9535,-0.9372,-0.9348,-0.9104,-0.8584,0.0,0.0,0.0,0.0,0.0,0.0,0.0,0.0,0.0,0.0,0.0,0.0,0.0,0.0,0.0,0.0,0.0,0.0,0.0,0.0,0.0,0.0,0.0,0.0,0.0,0.0,-0.9659,-0.994,-1.0127,0.0,0.0,0.0,0.0,0.0,0.0,0.0,0.0,0.0,0.0,-1.3707,-1.4402,-1.5231,-1.5618,-1.5912,-1.6192,-1.6473,-1.6647,-1.6633,-1.6179,-1.5805,0.0,0.0,0.0,0.0,0.0,0.0,0.0,0.0,0.0,0.0,0.0,0.0,0.0,0.0,0.0,0.0,0.0,0.0,0.0,0.0,0.0,0.0,0.0,0.0,0.0,0.0,0.0,-0.5439,-0.5597,0.0,0.0,0.0,0.0,0.0,0.0,0.0,0.0,0.0,0.0,0.0,-0.9624,-1.0044,0.0,0.0,0.0,0.0,0.0,0.0,0.0,0.0,0.0,0.0,0.0,0.0,-0.8891,-0.9147,-0.9249,-0.9329,-0.9527,-0.9705,-0.977,-0.9705,-0.9592,-0.9226,-0.8584,0.0,0.0,0.0,0.0,0.0,0.0,0.0,0.0,0.0,0.0,0.0,0.0,0.0,0.0,0.0,0.0,0.0,0.0,0.0,0.0,0.0,0.0,0.0,0.0,0.0,-1.0314,0.0,0.0,0.0,0.0,0.0,0.0,0.0,0.0,0.0,0.0,0.0,-1.3074,-1.3694,-1.4469,-1.5137,-1.5618,-1.6099,-1.6446,0.0,0.0,0.0,0.0,0.0,0.0,0.0,0.0,0.0,0.0,0.0,0.0,0.0,0.0,-1.4385,-1.302,-1.3236,-1.3831,-1.4341,0.0,0.0,0.0,0.0,0.0,0.0,0.0,0.0,0.0,0.0,0.0,0.0,0.0,0.0,-0.6186,0.0,-0.6312,0.0,0.0,0.0,0.0,0.0,0.0,0.0,0.0,-0.9715,-0.9947,-0.9823,-1.022,-1.0407,0.0,-1.0561,-1.045,0.0,0.0,0.0,0.0,0.0,0.0,0.0,0.0,-0.891,-0.9173,-0.9183,-0.9356,-0.9705,-0.9827,-0.9916,-0.9973,-0.9754,-0.9405,-0.895,-0.8996,-0.8843,0.0,0.0,0.0,0.0,0.0,0.0,0.0,0.0,0.0,0.0,0.0,0.0,0.0,0.0,0.0,0.0,0.0,0.0,0.0,0.0,0.0,0.0,0.0,-1.1009,0.0,0.0,0.0,0.0,0.0,0.0,0.0,0.0,0.0,-1.2625,-1.2973,-1.3547,-1.4429,-1.5124,-1.5685,-1.6086,0.0,0.0,0.0,0.0,0.0,0.0,0.0,-1.7048,-1.7154,-1.6927,-1.6727,-1.6727,-1.6567,-1.6433,-1.6446,0.0,0.0,-1.4148,-1.4295,-1.4883,-1.5458,-1.5097,-1.4843,-1.5324,-1.5498,-1.5712,0.0,0.0,0.0,0.0,0.0,0.0,0.0,0.0,-0.7019,-0.71,0.0,-0.7231,0.0,0.0,0.0,0.0,0.0,-0.9477,0.0,0.0,-1.0242,-1.0393,-1.0168,-1.0402,-1.0518,-1.0508,-1.0773,-1.0913,-1.0858,-1.0349,0.0,0.0,0.0,0.0,0.0,0.0,-0.9173,-0.9091,-0.9272,-0.9535,-0.9876,-0.9908,-0.9989,-1.0152,-0.9827,-0.9648,-0.9616,-0.9308,-0.903,-0.893,-0.8919,0.0,0.0,0.0,0.0,0.0,0.0,0.0,0.0,0.0,0.0,0.0,0.0,0.0,0.0,0.0,0.0,0.0,0.0,0.0,0.0,-1.1546,0.0,0.0,0.0,0.0,0.0,0.0,0.0,0.0,0.0,0.0,-1.336,-1.3788,-1.4442,-1.5284,0.0,0.0,0.0,0.0,-1.7181,-1.7194,-1.7435,-1.7716,-1.8009,-1.7809,-1.7716,-1.7996,0.0,0.0,-1.7609,-1.7609,-1.7595,-1.7595,-1.7582,-1.7074,-1.5418,-1.5538,-1.6059,-1.662,-1.6286,-1.6005,-1.6273,-1.6553,-1.682,-0.8065,0.0,0.0,0.0,0.0,-0.7437,-0.7558,-0.756,-0.7699,-0.7851,-0.7861,-0.7997,0.0,0.0,0.0,0.0,0.0,0.0,-0.9698,-0.9802,-1.0336,-1.0542,-1.0468,-1.0845,-1.1107,-1.1107,-1.1107,-1.1113,-1.086,-1.0761,-1.0553,-1.0162,0.0,0.0,0.0,0.0,-0.9242,-0.9292,-0.946,-0.9721,-1.0079,-1.0209,-1.0298,-1.0355,-1.0136,-0.9949,-0.9811,-0.9739,-0.9699,-0.9514,-0.9671,0.0,0.0,0.0,0.0,0.0,0.0,0.0,0.0,0.0,0.0,0.0,0.0,0.0,0.0,0.0,0.0,0.0,0.0,0.0,-1.2417,-1.2607,-1.2705,0.0,0.0,0.0,0.0,0.0,0.0,0.0,0.0,0.0,-1.5003,-1.5044,-1.519,0.0,0.0,-1.6914,-1.7275,-1.7582,-1.7849,-1.8063,-1.817,0.0,0.0,-1.829,-1.8263,-1.8343,-1.829,-1.8237,-1.8223,-1.8223,-1.8237,-1.8237,-1.8223,-1.805,-1.7622,-1.7235,-1.7315,-1.7782,-1.7502,-1.7194,-1.7475,-1.7609,-1.7742,-0.917,-0.8253,-0.8543,-0.8524,-0.8253,-0.8346,-0.8344,-0.8254,-0.8456,-0.8539,-0.8548,-0.8737,-0.888,-0.9115,-0.9203,0.0,0.0,0.0,-0.9876,-0.9823,-1.0212,-1.0385,-1.0314,-1.0553,-1.076,-1.075,-1.0935,-1.0866,-1.0749,-1.0839,-1.082,-1.0686,0.0,0.0,-0.9548,-0.9562,-0.9569,-0.949,-0.9583,-0.99,-1.0266,-1.0444,-1.0534,-1.0534,-1.0363,-1.0217,-1.0103,-1.0136,-1.0169,-1.0079,-1.0213,-1.0267,0.0,0.0,0.0,0.0,0.0,0.0,0.0,0.0,0.0,0.0,0.0,-0.9566,0.0,0.0,0.0,0.0,-1.1997,-1.2518,-1.3053,-1.3373,0.0,0.0,0.0,0.0,0.0,0.0,0.0,-1.4576,-1.4963,-1.5418,-1.5939,-1.6166,-1.6326,-1.65,-1.6981,-1.7475,-1.7889,0.0,-1.8277,-1.8464,-1.849,-1.8531,-1.8651,-1.8664,-1.8704,-1.8824,-1.8945,-1.9011,-1.9011,-1.9092,-1.9185,-1.9185,-1.9185,-1.9105,-1.8878,-1.8704,-1.8637,-1.8784,-1.8357,-1.8063,-1.833,-1.849,-1.8651,-1.0455,-0.9546,-0.9721,-0.9712,-0.9437,-0.9446,-0.9291,-0.9063,-0.9261,-0.9346,-0.9346,-0.9365,-0.9384,-0.9321,-0.9514,0.0,-0.9863,-1.0076,-1.0076,-0.992,-1.004,-1.0036,-0.9859,-0.9868,-0.9886,-0.9903,-1.0268,-1.0557,-1.0585,-1.0772,-1.0949,-1.0939,-1.0755,-1.0267,-0.9596,-0.9947,-0.9938,-0.9624,-0.9811,-1.0087,-1.0444,-1.0607,-1.0688,-1.0688,-1.0542,-1.0452,-1.0452,-1.0485,-1.0544,-1.0501,-1.0627,-1.0754,-1.073,0.0,0.0,0.0,0.0,0.0,0.0,0.0,0.0,0.0,0.0,0.0,0.0,0.0,0.0,0.0,-1.32,0.0,-1.3665,-1.4001,0.0,0.0,0.0,-1.4309,-1.4589,-1.4897,-1.5177,-1.5431,0.0,0.0,-1.638,-1.7101,-1.7635,-1.7689,-1.7662,-1.7862,-1.845,-1.8517,-1.8531,-1.8624,-1.8611,-1.8704,-1.9038,-1.9078,-1.9158,-1.9399,-1.9653,-1.98,-1.9813,-1.9987,-2.0201,-2.016,-2.0227,-2.0054,-1.9519,-1.98,-2.008,-1.9599,-1.9065,-1.8731,-1.8998,-1.9239,-1.9479,-1.1793,-1.1348,-1.1445,-1.1215,-1.0761,-1.0119,-0.9827,-0.9776,-0.981,-0.9824,-0.9834,-0.9819,-0.9808,-0.9791,-0.9938,-1.0012,-0.984,-0.9831,-0.9875,-0.9802,-1.0041,-1.0061,-1.007,-1.0211,-1.0351,-1.0501,-1.06,-1.0671,-1.0804,-1.0905,-1.1015,-1.1217,-1.1271,-1.084,-1.0075,-1.0292,-1.0228,-0.992,-1.0238,-1.0476,-1.0615,-1.0672,-1.0688,-1.0688,-1.0655,-1.0631,-1.0631,-1.0791,-1.0966,-1.1072,-1.1052,-1.1201,-1.1572,-1.2068,0.0,0.0,0.0,0.0,0.0,0.0,0.0,0.0,0.0,-1.1356,-1.1944,0.0,-1.2933,0.0,-1.3921,-1.4402,-1.4629,-1.471,0.0,0.0,-1.5084,-1.5204,-1.5484,-1.5778,-1.5992,-1.6059,-1.658,-1.7021,-1.7248,-1.7662,-1.8103,-1.8531,-1.841,-1.841,-1.8758,-1.8824,-1.8985,-1.9372,-1.9466,-1.9599,-1.9826,-1.992,-1.9801,-1.9747,-1.996,-2.0134,-2.0134,-2.0187,-2.0241,-2.0241,-2.0241,-2.0174,-2.0054,-2.0147,-2.0374,-2.0575,-2.0214,-1.984,-1.9907,-1.9973,-2.0054,-1.29,-1.2649,-1.2649,-1.2517,-1.2159,-1.1211,-1.0616,-1.047,-1.0514,-1.0443,-1.0279,-1.0317,-1.0291,-1.0232,-1.0158,-1.0111,-0.9935,-0.9827,-0.9768,-0.9785,-0.9964,-0.9993,-1.0002,-1.0179,-1.0323,-1.0425,-1.063,-1.0681,-1.0776,-1.0984,-1.12,-1.1399,-1.1511,-1.1383,-1.0956,-1.0852,-1.0806,-1.0604,-1.0783,-1.0849,-1.1023,-1.0929,-1.085,-1.0923,-1.085,-1.0818,-1.081,-1.1076,-1.1272,-1.1283,-1.1596,-1.1942,-1.2033,-1.2574,-1.2643,0.0,0.0,0.0,0.0,0.0,0.0,0.0,0.0,0.0,0.0,0.0,-1.3975,-1.4389,-1.4843,-1.5217,-1.5524,-1.5658,-1.5805,-1.5965,-1.5979,-1.6099,-1.6393,-1.6673,-1.6914,-1.7048,-1.7462,-1.7809,-1.7969,-1.825,-1.8611,-1.9065,-1.9092,-1.9132,-1.9279,-1.9319,-1.9479,-1.992,-2.0,-2.004,-2.0214,-2.0241,-2.0106,-2.0106,-2.0212,-2.0428,-2.0441,-2.0535,-2.0628,-2.0628,-2.0628,-2.0628,-2.0615,-2.0615,-2.0748,-2.0949,-2.0855,-2.0601,-2.0454,-2.0428,-2.0454,-1.4024,-1.3587,-1.3651,-1.369,-1.3617,-1.2561,-1.1749,-1.1218,-1.1373,-1.111,-1.068,-1.0711,-1.0705,-1.0612,-1.0361,-1.0277,-1.0193,-0.9888,-0.9782,-0.9728,-0.9838,-0.99,-0.9925,-1.0087,-1.0176,-1.0193,-1.0506,-1.0619,-1.0644,-1.1168,-1.1376,-1.1481,-1.1793,-1.1898,-1.2002,-1.1822,-1.1581,-1.1398,-1.1276,-1.1253,-1.1414,-1.1214,-1.1183,-1.1208,-1.1078,-1.0988,-1.1077,-1.1364,-1.152,-1.1442,-1.2153,-1.2601,-1.2425,-1.2985,-1.3132,0.0,-1.3615,0.0,0.0,0.0,0.0,0.0,0.0,0.0,0.0,-1.4389,-1.4977,-1.5524,-1.5792,-1.6046,-1.6313,-1.6593,-1.678,-1.682,-1.686,-1.6994,-1.7288,-1.7542,-1.7809,-1.8076,-1.837,-1.8544,-1.8544,-1.8824,-1.9145,-1.9399,-1.9653,-1.9826,-1.9907,-1.9867,-1.9947,-2.0241,-2.0321,-2.0388,-2.0401,-2.0374,-2.0374,-2.0388,-2.0561,-2.0735,-2.0735,-2.0962,-2.1162,-2.1162,-2.1189,-2.1203,-2.1189,-2.1203,-2.1243,-2.1309,-2.1269,-2.1136,-2.0882,-2.0815,-2.0882,-1.4761,-1.4515,-1.4859,-1.5157,-1.5185,-1.4448,-1.3508,-1.2445,-1.2057,-1.171,-1.1273,-1.1214,-1.1029,-1.0849,-1.0711,-1.0396,-1.0015,-0.9951,-0.9945,-0.9887,-0.9851,-0.9965,-1.0103,-1.0144,-1.0241,-1.0379,-1.0387,-1.0667,-1.1025,-1.1133,-1.1567,-1.2215,-1.2215,-1.2538,-1.2979,0.0,0.0,0.0,-1.1744,-1.1604,-1.1422,-1.1558,-1.1421,-1.1216,-1.1191,0.0,-1.131,-1.1604,-1.1824,-1.1846,-1.2539,0.0,0.0,0.0,0.0,0.0,0.0,0.0,0.0,0.0,0.0,0.0,-1.5618,-1.5418,-1.4803,-1.5471,-1.6086,-1.642,-1.6513,-1.6553,-1.662,-1.6887,-1.7154,-1.7395,-1.7635,-1.7903,-1.8196,-1.829,-1.8343,-1.8397,-1.8664,-1.8838,-1.8878,-1.9305,-1.9639,-1.9733,-1.9973,-2.0241,-2.0468,-2.0294,-2.0267,-2.0535,-2.0762,-2.0922,-2.0935,-2.0922,-2.0922,-2.0962,-2.0975,-2.1042,-2.1069,-2.1283,-2.147,-2.147,-2.1657,-2.175,-2.1617,-2.171,-2.183,-2.2017,-2.1911,-2.1737,-2.1456,-2.139,-2.147,-1.5704,0.0,-1.5697,-1.5988,0.0,-1.5604,-1.4812,-1.4063,-1.3273,-1.2659,-1.2026,-1.1758,-1.153,-1.124,-1.0956,-1.0663,-1.0562,-1.0362,-1.0356,-1.0433,-1.0526,-1.0619,-1.0721,-1.0814,-1.0898,-1.0991,-1.0991,-1.115,-1.1345,-1.1564,-1.2055,-1.2587,-1.3028,-1.3417,-1.386,-1.3862,-1.3466,-1.2597,-1.2356,-1.2161,-1.1923,-1.1893,-1.1753,-1.1492,-1.1528,0.0,0.0,0.0,0.0,0.0,0.0,0.0,0.0,0.0,0.0,-1.5282,-1.5544,-1.5729,-1.5895,-1.6064,-1.6259,-1.6273,-1.6673,-1.6607,-1.5872,-1.6233,-1.6673,-1.7088,-1.7141,-1.7261,-1.7555,-1.7729,-1.7876,-1.8023,-1.817,-1.8384,-1.8651,-1.8704,-1.8771,-1.8931,-1.9172,-1.9359,-1.9359,-1.9733,-2.0067,-2.0214,-2.0347,-2.0561,-2.0802,-2.0641,-2.0561,-2.0842,-2.1002,-2.1096,-2.1122,-2.1243,-2.1323,-2.1336,-2.1443,-2.1537,-2.1537,-2.167,-2.1764,-2.1777,-2.1884,-2.1977,-2.1991,-2.1991,-2.2044,-2.2205,-2.2124,-2.2017,-2.1951,-2.1871,-2.1804,-1.6477,-1.6417,-1.6267,-1.6623,-1.7191,-1.6415,-1.5841,-1.5471,0.0,0.0,0.0,-1.237,-1.2001,-1.1737,-1.1255,-1.107,-1.1162,-1.0959,-1.0861,-1.1045,-1.1212,-1.1309,-1.1344,-1.1494,-1.1573,-1.1573,-1.1573,-1.1673,-1.1791,-1.2256,-1.2688,-1.3184,-1.3902,-1.4372,-1.4696,-1.4365,-1.4043,-1.3634,-1.3021,-1.2623,-1.2551,-1.236,-1.2099,-1.201,-1.2099,-1.2124,-1.2207,-1.2516,-1.2868,-1.3184,-1.3754,-1.4437,-1.4982,-1.5175,-1.5599,-1.6126,-1.6248,-1.6407,-1.6625,-1.6919,-1.7021,-1.7021,-1.7475,-1.7515,-1.6981,-1.6994,-1.7221,-1.7716,-1.7742,-1.7943,-1.8437,-1.8544,-1.8571,-1.8557,-1.8611,-1.8744,-1.8971,-1.9052,-1.9185,-1.9426,-1.9679,-1.988,-1.988,-2.012,-2.0388,-2.0615,-2.0708,-2.0855,-2.1069,-2.0935,-2.0855,-2.1136,-2.1216,-2.1216,-2.1296,-2.147,-2.1617,-2.1643,-2.1817,-2.1977,-2.1991,-2.2031,-2.2058,-2.2058,-2.2098,-2.2218,-2.2338,-2.2285,-2.2205,-2.2352,-2.2258,-2.2205,-2.2405,-2.2311,-2.2164,-1.6679,-1.6483,-1.6878,-1.7208,-1.7223,-1.6987,-1.6518,-1.6035,-1.4816,-1.4064,-1.3715,-1.2953,-1.2671,-1.2552,-1.1964,-1.1576,-1.1362,-1.1362,-1.1263,-1.1248,-1.1274,-1.1371,-1.1529,-1.1555,-1.1573,-1.1573,-1.1573,-1.1782,-1.2246,-1.2616,-1.3285,-1.4224,-1.4628,-1.5069,-1.5517,-1.5182,-1.4813,-1.443,-1.3663,-1.3128,-1.2795,-1.2958,-1.2937,-1.2603,-1.2577,-1.2729,-1.2804,-1.311,-1.3355,-1.3422,-1.4313,-1.5004,-1.5343,-1.6051,-1.6685,-1.7363,-1.7618,-1.7908,-1.8127,-1.8237,-1.825,-1.8237,-1.8317,-1.8223,-1.7903,-1.809,-1.8277,-1.8357,-1.8343,-1.8397,-1.8504,-1.8731,-1.8865,-1.8891,-1.9092,-1.9265,-1.9319,-1.9519,-1.9679,-1.9733,-2.0,-2.0174,-2.0201,-2.0428,-2.0628,-2.0708,-2.0909,-2.1149,-2.1336,-2.1243,-2.1189,-2.1416,-2.1483,-2.159,-2.175,-2.1884,-2.1924,-2.1924,-2.1977,-2.2058,-2.2058,-2.2231,-2.2352,-2.2365,-2.2525,-2.2686,-2.2752,-2.2766,-2.2712,-2.2726,-2.2686,-2.2712,-2.2766,-2.2712,-2.2699,-1.7014,-1.6921,-1.7174,-1.7326,-1.7232,-1.7059,-1.6871,-1.6588,-1.5724,-1.4962,-1.4316,-1.3648,-1.3183,-1.2904,-1.2526,-1.2299,-1.2297,-1.2297,-1.2308,-1.2402,-1.2412,-1.2459,-1.2545,-1.2555,-1.2545,-1.2555,-1.2555,-1.283,-1.3267,-1.3598,-1.433,-1.5263,-1.5736,-1.6252,-1.6588,-1.6004,-1.5483,-1.5126,-1.4311,-1.3551,-1.3077,-1.3159,-1.3084,-1.2715,-1.2844,-1.3039,-1.3077,-1.3542,-1.3976,-1.4112,-1.4802,-1.55,-1.5963,-1.6527,-1.7126,-1.7817,-1.8013,-1.8255,-1.849,-1.849,-1.8557,-1.8704,-1.8731,-1.8744,-1.8771,-1.8584,-1.8557,-1.8704,-1.8731,-1.8798,-1.8945,-1.9092,-1.9225,-1.9386,-1.9533,-1.9666,-1.9813,-1.9947,-2.0027,-2.0054,-2.0294,-2.0468,-2.0468,-2.0735,-2.0909,-2.0935,-2.1162,-2.1403,-2.155,-2.159,-2.1617,-2.1764,-2.179,-2.183,-2.1977,-2.2124,-2.2205,-2.2218,-2.2352,-2.2445,-2.2458,-2.2592,-2.2645,-2.2659,-2.2779,-2.2846,-2.2859,-2.2859,-2.2859,-2.2859,-2.2859,-2.2859,-2.2859,-2.2859,-2.2859,-1.7326,-1.7326,-1.7326,-1.7326,-1.7232,-1.7153,-1.7073,-1.6979,-1.6588,-1.5953,-1.5185,-1.4362,-1.38,-1.3401,-1.3109,-1.3132,-1.3234,-1.3254,-1.3357,-1.3521,-1.3423,-1.3423,-1.3423,-1.3315,-1.3315,-1.3423,-1.3423,-1.3645,-1.4293,-1.47,-1.531,-1.6217,-1.7032,-1.7373,-1.7479,-1.6773,-1.6183,-1.5709,-1.4997,-1.4291,-1.3564,-1.3564,-1.3444,-1.3204,-1.3324,-1.3444,-1.3564,-1.4043,-1.453,-1.4769,-1.5364,-1.6065,-1.6526,-1.7053,-1.7638,-1.8084,-1.8233,-1.8453,-1.8691,-1.8691,-1.8811,-1.9092,-1.9118,-1.9239,-1.9479,-1.9158,-1.8905,-1.9011,-1.9092,-1.9225,-1.9412,-1.9533,-1.9653,-1.9867,-1.9893,-1.9973,-2.0187,-2.0294,-2.0334,-2.0361,-2.0588,-2.0775,-2.0815,-2.0962,-2.1122,-2.1229,-2.1416,-2.1577,-2.1737,-2.1951,-2.2071,-2.2151,-2.2124,-2.2138,-2.2164,-2.2365,-2.2498,-2.2525,-2.2686,-2.2779,-2.2819,-2.2846,-2.2859,-2.2846,-2.2846,-2.2859,-2.2859,-2.2859,-2.2859,-2.2859,-2.2859,-2.2886,-2.2979,-2.2993,-2.2939,-1.7326,-1.7326,-1.7326,-1.7326,-1.734,-1.7246,-1.7261,-1.7261,-1.6979,-1.6947,-1.6704,-1.5329,-1.4712,-1.4456,-1.4275,-1.4206,-1.4116,-1.4137,-1.4137,-1.4062,-1.3748,-1.365,-1.364,-1.3423,-1.3423,-1.364,-1.3759,-1.4211,-1.4988,-1.5535,-1.6343,-1.7603,-1.8052,-1.796,-1.7596,-1.7361,-1.6891,-1.6065,-1.5946,-1.5472,-1.453,-1.4411,-1.4411,-1.4411,-1.4411,-1.4411,-1.4411,-1.4759,-1.4997,-1.5116,-1.5946,-1.6419,-1.6655,-1.7572,-1.826,-1.8377,-1.8945,-1.9292,-1.9292,-1.9292,-1.9412,-1.9679,-1.9706,-1.9826,-2.0094,-2.008,-1.984,-1.9506,-1.9573,-1.972,-1.9773,-1.9973,-2.012,-2.0174,-2.0187,-2.0201,-2.0281,-2.0481,-2.0641,-2.0641,-2.0869,-2.1069,-2.1042,-2.1109,-2.1229,-2.1443,-2.1577,-2.1804,-2.2164,-2.2325,-2.2458,-2.2619,-2.2552,-2.2498,-2.2659,-2.2779,-2.2779,-2.2792,-2.2832,-2.2859,-2.2859,-2.2859,-2.2859,-2.2859,-2.2859,-2.2859,-2.2859,-2.2859,-2.2886,-2.2939,-2.2953,-2.2979,-2.3207,-2.3287,-2.3193,-1.7434,-1.7326,-1.7326,-1.7443,-1.7633,-1.7823,-1.7911,-1.7911,-1.7814,-1.7707,-1.7541,-1.7213,-1.6544,-1.5651,-1.5608,-1.547,-1.5244,-1.5244,-1.5137,-1.4922,-1.4815,-1.4719,-1.4504,-1.4396,-1.4396,-1.4526,-1.4864,-1.5384,-1.6104,-1.6936,-1.7724,-1.8377,-1.8415,-1.8415,-1.8298,-1.7948,-1.7479,-1.7009,-1.6762,-1.629,-1.5709,-1.5364,-1.5245,-1.5126,-1.4997,-1.4878,-1.4878,-1.4997,-1.5235,-1.5472,-1.6065,-1.6655,-1.7126,-1.8096,-1.8788,-1.8906,-1.9536,-1.988,-1.988,-1.988,-1.9933,-2.0054,-2.0054,-2.0107,-2.0214,-2.0241,-2.012,-1.9947,-1.9987,-2.0054,-2.0067,-2.016,-2.0294,-2.0441,-2.0494,-2.0561,-2.0735,-2.0855,-2.0935,-2.0935,-2.1029,-2.1109,-2.1136,-2.1269,-2.1403,-2.159,-2.1804,-2.2164,-2.2392,-2.2565,-2.2726,-2.2819,-2.2752,-2.2739,-2.2846,-2.2859,-2.2859,-2.2859,-2.2859,-2.2859,-2.2859,-2.2859,-2.2859,-2.2859,-2.2886,-2.2886,-2.2859,-2.3046,-2.314,-2.3153,-2.3327,-2.3447,-2.3567,-2.3594,-2.3514,-1.7527,-1.734,-1.7522,-1.7757,-1.7969,-1.8203,-1.8306,-1.8306,-1.8306,-1.8251,-1.8167,-1.8412,-1.8044,-1.7094,-1.6884,-1.6643,-1.6324,-1.6205,-1.5992,-1.5885,-1.5672,-1.5458,-1.5256,-1.5041,-1.5041,-1.529,-1.5728,-1.6354,-1.7241,-1.8045,-1.8648,-1.8881,-1.8777,-1.8765,-1.8881,-1.8402,-1.8052,-1.7713,-1.7479,-1.7232,-1.7009,-1.6537,-1.6183,-1.5828,-1.5591,-1.5472,-1.5472,-1.5472,-1.5591,-1.5839,-1.6369,-1.6996,-1.7599,-1.8439,-1.9189,-1.9561,-1.9986,-2.0241,-2.0241,-2.0241,-2.0267,-2.0334,-2.0347,-2.0388,-2.0454,-2.0468,-2.0468,-2.0468,-2.0468,-2.0454,-2.0361,-2.0428,-2.0575,-2.0762,-2.0802,-2.0895,-2.1056,-2.1109,-2.1096,-2.1109,-2.1096,-2.1149,-2.1243,-2.1416,-2.159,-2.183,-2.2151,-2.2472,-2.2539,-2.2726,-2.2859,-2.2859,-2.2859,-2.2859,-2.2859,-2.2859,-2.2859,-2.2859,-2.2859,-2.2859,-2.2859,-2.2859,-2.2859,-2.2873,-2.2913,-2.3006,-2.3073,-2.3247,-2.346,-2.35,-2.3621,-2.3808,-2.3875,-2.3888,-2.3941,-1.7527,-1.7384,-1.8007,-1.8222,-1.8291,-1.8321,-1.8321,-1.8364,-1.8335,-1.8496,-1.8658,-1.8498,-1.8568,-1.8603,-1.7793,-1.7384,-1.7067,-1.6842,-1.6617,-1.6524,-1.6099,-1.5885,-1.5779,-1.5256,-1.5363,-1.5946,-1.6308,-1.7129,-1.8311,-1.8724,-1.8997,-1.9359,-1.9372,-1.9127,-1.8997,-1.8881,-1.8648,-1.8298,-1.8298,-1.8311,-1.8323,-1.8194,-1.762,-1.6701,-1.6419,-1.6419,-1.6419,-1.6419,-1.6431,-1.6419,-1.7016,-1.7505,-1.7997,-1.8834,-1.9594,-2.0106,-2.0241,-2.0254,-2.0267,-2.0281,-2.0388,-2.0601,-2.0655,-2.0762,-2.0949,-2.0975,-2.0975,-2.1042,-2.0989,-2.0909,-2.0722,-2.0842,-2.0989,-2.1042,-2.1069,-2.1082,-2.1096,-2.1109,-2.1109,-2.1109,-2.1136,-2.1243,-2.1483,-2.155,-2.1844,-2.2178,-2.2392,-2.2512,-2.2739,-2.2846,-2.2859,-2.2859,-2.2859,-2.2859,-2.2859,-2.2859,-2.2859,-2.2859,-2.2859,-2.2859,-2.2859,-2.2859,-2.2859,-2.2939,-2.31,-2.3233,-2.334,-2.35,-2.3714,-2.3808,-2.3834,-2.3968,-2.4155,-2.4182,-2.4222,-1.766,-1.7691,-1.8149,-1.8425,-1.8628,-1.8629,-1.8833,-1.8921,-1.8921,-1.8891,-1.889,-1.8801,-1.8651,-1.8541,-1.8122,-1.7806,-1.7701,-1.7371,-1.716,-1.7054,-1.6855,-1.6643,-1.6418,-1.6205,-1.6304,-1.6705,-1.7186,-1.8052,-1.8915,-1.9203,-1.9243,-1.9372,-1.9372,-1.9359,-1.9243,-1.9243,-1.901,-1.8765,-1.8765,-1.8738,-1.8669,-1.8695,-1.852,-1.8323,-1.7529,-1.7126,-1.7126,-1.6924,-1.6897,-1.7016,-1.7623,-1.8252,-1.8763,-1.9736,-2.0354,-2.0762,-2.0788,-2.0788,-2.0788,-2.0788,-2.0828,-2.0935,-2.0949,-2.0975,-2.1082,-2.1109,-2.1109,-2.1109,-2.1109,-2.1042,-2.1002,-2.1056,-2.1109,-2.1109,-2.1109,-2.1109,-2.1109,-2.1109,-2.1109,-2.1136,-2.1256,-2.1443,-2.159,-2.1871,-2.2178,-2.2392,-2.2579,-2.2726,-2.2819,-2.2859,-2.2859,-2.2859,-2.2859,-2.2859,-2.2859,-2.2859,-2.2859,-2.2859,-2.2859,-2.2873,-2.2873,-2.2899,-2.2913,-2.3166,-2.334,-2.35,-2.3621,-2.3848,-2.4048,-2.4222,-2.4249,-2.4235,-2.4462,-2.4409,-2.4476,-1.7581,-1.775,-1.8182,-1.8468,-1.8657,-1.8665,-1.8855,-1.8959,-1.9063,-1.8855,-1.875,-1.8764,-1.8646,-1.8318,-1.8122,-1.8016,-1.8016,-1.7687,-1.7477,-1.7384,-1.7279,-1.7067,-1.6855,-1.6825,-1.7073,-1.7412,-1.7994,-1.8778,-1.9305,-1.9372,-1.9372,-1.9372,-1.9372,-1.9372,-1.9372,-1.9372,-1.9243,-1.9127,-1.9089,-1.9246,-1.9192,-1.9296,-1.9425,-1.9408,-1.8766,-1.822,-1.8101,-1.7781,-1.7756,-1.8046,-1.8496,-1.905,-1.9658,-2.046,-2.0895,-2.1082,-2.1096,-2.1109,-2.1109,-2.1109,-2.1096,-2.1109,-2.1096,-2.1109,-2.1109,-2.1109,-2.1109,-2.1109,-2.1109,-2.1109,-2.1109,-2.1109,-2.1109,-2.1109,-2.1109,-2.1109,-2.1109,-2.1109,-2.1109,-2.1149,-2.1363,-2.155,-2.1724,-2.2124,-2.2405,-2.2539,-2.2752,-2.2859,-2.2859,-2.2859,-2.2859,-2.2859,-2.2859,-2.2859,-2.2913,-2.2966,-2.2939,-2.2926,-2.2953,-2.2939,-2.3006,-2.3006,-2.3126,-2.338,-2.3594,-2.3754,-2.3968,-2.4195,-2.4396,-2.4596,-2.4556,-2.4489,-2.4583,-2.4609,-2.4623,-1.7414,-1.764,-1.8094,-1.8391,-1.8471,-1.8422,-1.8422,-1.8422,-1.8422,-1.8422,-1.8436,-1.8422,-1.8422,-1.8318,-1.8016,-1.8016,-1.7911,-1.7687,-1.7582,-1.7582,-1.7384,-1.7279,-1.7186,-1.7219,-1.7386,-1.772,-1.8539,-1.9078,-1.9345,-1.9372,-1.9372,-1.9372,-1.9372,-1.9372,-1.9372,-1.9372,-1.9359,-1.9412,-1.9613,-1.9786,-1.984,-1.9973,-2.0146,-2.0172,-1.9902,-1.9633,-1.9254,-1.9254,-1.9132,-1.9157,-1.9521,-1.9927,-2.0498,-2.0943,-2.1096,-2.1096,-2.1109,-2.1109,-2.1109,-2.1109,-2.1109,-2.1109,-2.1109,-2.1109,-2.1109,-2.1109,-2.1109,-2.1109,-2.1109,-2.1109,-2.1109,-2.1109,-2.1109,-2.1109,-2.1109,-2.1109,-2.1109,-2.1109,-2.1109,-2.1176,-2.1416,-2.1683,-2.1951,-2.2271,-2.2552,-2.2752,-2.2832,-2.2859,-2.2859,-2.2859,-2.2859,-2.2859,-2.2873,-2.2873,-2.2979,-2.3086,-2.3033,-2.3006,-2.3046,-2.3073,-2.326,-2.3327,-2.346,-2.3701,-2.3981,-2.4155,-2.4262,-2.4462,-2.4489,-2.4636,-2.4636,-2.4636,-2.4636,-2.4636,-2.4636,-1.72,-1.7848,-1.7833,-1.8116,-1.8318,-1.8213,-1.8213,-1.8422,-1.8422,-1.8318,-1.8122,-1.8122,-1.8003,-1.7898,-1.7793,-1.7687,-1.7687,-1.7582,-1.7582,-1.7582,-1.749,-1.749,-1.7543,-1.7688,-1.8031,-1.8539,-1.9038,-1.9279,-1.9345,-1.9372,-1.9372,-1.9372,-1.9372,-1.9372,-1.9372,-1.9372,-1.9372,-1.9399,-1.9653,-1.988,-2.0094,-2.0388,-2.0628,-2.0815,-2.0717,-2.0592,-2.0579,-1.9897,-1.9671,-1.9534,-2.0065,-2.0511,-2.0843,-2.0982,-2.1109,-2.1109,-2.1109,-2.1109,-2.1109,-2.1109,-2.1109,-2.1109,-2.1109,-2.1109,-2.1109,-2.1109,-2.1109,-2.1109,-2.1109,-2.1109,-2.1109,-2.1109,-2.1109,-2.1109,-2.1109,-2.1109,-2.1109,-2.1109,-2.1203,-2.1416,-2.167,-2.1964,-2.2245,-2.2525,-2.2726,-2.2819,-2.2859,-2.2859,-2.2859,-2.2859,-2.2859,-2.2859,-2.2873,-2.2953,-2.3113,-2.3287,-2.334,-2.334,-2.3367,-2.3367,-2.3541,-2.3661,-2.3794,-2.4008,-2.4289,-2.4462,-2.4583,-2.4636,-2.4636,-2.4636,-2.4636,-2.4636,-2.4636,-2.4636,-2.4636,-1.7245,-1.7681,-1.7657,-1.7779,-1.8108,-1.7911,-1.8003,-1.8108,-1.8108,-1.8003,-1.7911,-1.7793,-1.7793,-1.7582,-1.7582,-1.7582,-1.7582,-1.7582,-1.7582,-1.7582,-1.7582,-1.7635,-1.7796,-1.8183,-1.8611,-1.9038,-1.9279,-1.9372,-1.9372,-1.9372,-1.9372,-1.9372,-1.9372,-1.9372,-1.9372,-1.9372,-1.9399,-1.9546,-1.9813,-2.0094,-2.0388,-2.0681,-2.0922,-2.1082,-2.1096,-2.1109,-2.1096,-2.0545,-2.0203,-2.0229,-2.0637,-2.0856,-2.1109,-2.1109,-2.1109,-2.1109,-2.1109,-2.1109,-2.1109,-2.1109,-2.1109,-2.1109,-2.1109,-2.1109,-2.1109,-2.1109,-2.1109,-2.1109,-2.1109,-2.1109,-2.1109,-2.1109,-2.1109,-2.1109,-2.1109,-2.1109,-2.1122,-2.1216,-2.1336,-2.1577,-2.1897,-2.2178,-2.2418,-2.2672,-2.2846,-2.2859,-2.2859,-2.2859,-2.2859,-2.2859,-2.2859,-2.2859,-2.2873,-2.302,-2.3273,-2.3447,-2.3621,-2.3701,-2.3768,-2.3781,-2.3875,-2.3928,-2.4022,-2.4249,-2.4516,-2.4529,-2.4636,-2.4636,-2.4636,-2.4636,-2.4636,-2.4636,-2.4636,-2.4636,-2.4636,-1.736,-1.7311,-1.7462,-1.7582,-1.7687,-1.7582,-1.7687,-1.7582,-1.7622,-1.7728,-1.7582,-1.7635,-1.7609,-1.7595,-1.7582,-1.7582,-1.7582,-1.7582,-1.7622,-1.7635,-1.7675,-1.7809,-1.817,-1.8611,-1.8985,-1.9292,-1.9359,-1.9372,-1.9372,-1.9372,-1.9372,-1.9372,-1.9372,-1.9372,-1.9372,-1.9372,-1.9546,-1.9773,-2.008,-2.0401,-2.0655,-2.0935,-2.1096,-2.1109,-2.1109,-2.1109,-2.1096,-2.0943,-2.0956,-2.1096,-2.0969,-2.1109,-2.1109,-2.1109,-2.1109,-2.1109,-2.1109,-2.1109,-2.1109,-2.1109,-2.1109,-2.1109,-2.1109,-2.1109,-2.1109,-2.1109,-2.1109,-2.1109,-2.1109,-2.1109,-2.1109,-2.1109,-2.1109,-2.1136,-2.1136,-2.1122,-2.1162,-2.139,-2.155,-2.171,-2.2071,-2.2284,-2.2472,-2.2726,-2.2832,-2.2859,-2.2859,-2.2859,-2.2859,-2.2859,-2.2859,-2.2859,-2.2859,-2.3113,-2.338,-2.3554,-2.3754,-2.4075,-2.4128,-2.4142,-2.4168,-2.4209,-2.4249,-2.4476,-2.4596,-2.4623,-2.4636,-2.4636,-2.4636,-2.4636,-2.4636,-2.4636,-2.4636,-2.4636,-2.4636,-1.7145,-1.7475,-1.7555,-1.7582,-1.7582,-1.7582,-1.7582,-1.7609,-1.7836,-1.7796,-1.7675,-1.7822,-1.7782,-1.7595,-1.7595,-1.7582,-1.7582,-1.7595,-1.7729,-1.7903,-1.7929,-1.8223,-1.8611,-1.8838,-1.9078,-1.9332,-1.9372,-1.9372,-1.9372,-1.9372,-1.9372,-1.9372,-1.9372,-1.9372,-1.9386,-1.9559,-1.9706,-1.9867,-2.0321,-2.0588,-2.0708,-2.0962,-2.1096,-2.1109,-2.1109,-2.1109,-2.1109,-2.1109,-2.1109,-2.1109,-2.1109,-2.1109,-2.1109,-2.1109,-2.1109,-2.1109,-2.1109,-2.1109,-2.1109,-2.1109,-2.1109,-2.1109,-2.1109,-2.1109,-2.1109,-2.1109,-2.1109,-2.1109,-2.1109,-2.1109,-2.1109,-2.1109,-2.1203,-2.1363,-2.1269,-2.1243,-2.1403,-2.151,-2.1697,-2.2111,-2.2325,-2.2512,-2.2686,-2.2792,-2.2859,-2.2859,-2.2859,-2.2859,-2.2859,-2.2859,-2.2859,-2.2859,-2.2926,-2.322,-2.3474,-2.3647,-2.3928,-2.4369,-2.4489,-2.4462,-2.4476,-2.4476,-2.4516,-2.4623,-2.4623,-2.4636,-2.4636,-2.4636,-2.4636,-2.4636,-2.4636,-2.4636,-2.4636,-2.4636,-2.4636,-1.7304,-1.7582,-1.7582,-1.7582,-1.7582,-1.7582,-1.7662,-1.7796,-1.7956,-1.8036,-1.7983,-1.7996,-1.7956,-1.7782,-1.7649,-1.7582,-1.7595,-1.7716,-1.7876,-1.8036,-1.829,-1.8597,-1.8891,-1.9025,-1.9212,-1.9345,-1.9372,-1.9372,-1.9372,-1.9372,-1.9372,-1.9372,-1.9372,-1.9372,-1.9386,-1.9653,-1.9867,-2.004,-2.0441,-2.0722,-2.0743,-2.1015,-2.0969,-2.0982,-2.0982,-2.1109,-2.1109,-2.1109,-2.1109,-2.1109,-2.1109,-2.1109,-2.1109,-2.1109,-2.1109,-2.1109,-2.1109,-2.1109,-2.1109,-2.1109,-2.1109,-2.1109,-2.1109,-2.1109,-2.1109,-2.1109,-2.1109,-2.1109,-2.1109,-2.1109,-2.1136,-2.1216,-2.1363,-2.1496,-2.1496,-2.155,-2.1724,-2.1857,-2.2044,-2.2338,-2.2539,-2.2659,-2.2846,-2.2859,-2.2859,-2.2859,-2.2859,-2.2859,-2.2859,-2.2859,-2.2859,-2.2859,-2.3006,-2.3313,-2.3607,-2.3821,-2.4062,-2.4489,-2.4609,-2.4636,-2.4636,-2.4636,-2.4636,-2.4636,-2.4636,-2.4636,-2.4636,-2.4636,-2.4636,-2.4636,-2.4636,-2.4636,-2.4636,-2.4636,-2.4636,-1.7582,-1.7582,-1.7582,-1.7582,-1.7595,-1.7622,-1.7796,-1.8009,-1.8156,-1.8277,-1.8384,-1.8223,-1.8183,-1.8076,-1.7889,-1.7716,-1.7623,-1.7875,-1.7994,-1.822,-1.8651,-1.8985,-1.9025,-1.9212,-1.9319,-1.9372,-1.9372,-1.9372,-1.9372,-1.9372,-1.9372,-1.9372,-1.9372,-1.9372,-1.9309,-1.9535,-1.9801,-2.0,-2.0156,-2.046,-2.0393,-2.0624,-2.065,-2.0615,-2.0856,-2.0982,-2.0982,-2.1109,-2.1109,-2.1109,-2.1109,-2.1109,-2.1109,-2.1109,-2.1109,-2.1109,-2.1109,-2.1109,-2.1109,-2.1109,-2.1109,-2.1109,-2.1109,-2.1109,-2.1109,-2.1109,-2.1109,-2.1109,-2.1109,-2.1136,-2.1229,-2.143,-2.163,-2.1737,-2.1897,-2.2004,-2.2111,-2.2285,-2.2418,-2.2472,-2.2712,-2.2832,-2.2859,-2.2859,-2.2859,-2.2859,-2.2859,-2.2859,-2.2859,-2.2859,-2.2859,-2.2859,-2.31,-2.3407,-2.3701,-2.3995,-2.4262,-2.4556,-2.4609,-2.4636,-2.4636,-2.4636,-2.4636,-2.4636,-2.4636,-2.4636,-2.4636,-2.4636,-2.4636,-2.4636,-2.4636,-2.4636,-2.4636,-2.4636,-2.4636,-1.7582,-1.7582,-1.7582,-1.7582,-1.7622,-1.7849,-1.7983,-1.7981,-1.8544,-1.8512,-1.8557,-1.8651,-1.8584,-1.8397,-1.818,-1.818,-1.7895,-1.8013,-1.8158,-1.842,-1.8964,-1.9252,-1.9265,-1.9345,-1.9359,-1.9372,-1.9372,-1.9372,-1.9372,-1.9372,-1.9372,-1.9359,-1.9243,-1.9243,-1.905,-1.9273,-1.9324,-1.9215,-1.9459,-1.9743,-1.985,-2.0039,-2.0142,-2.0195,-2.0488,-2.0729,-2.0729,-2.0982,-2.1109,-2.1109,-2.1109,-2.1109,-2.1109,-2.1109,-2.1109,-2.1109,-2.1109,-2.1109,-2.1109,-2.1109,-2.1109,-2.1109,-2.1109,-2.1109,-2.1109,-2.1122,-2.1122,-2.1109,-2.1109,-2.1256,-2.1443,-2.1724,-2.1951,-2.2124,-2.2258,-2.2405,-2.2579,-2.2512,-2.2539,-2.2699,-2.2806,-2.2859,-2.2859,-2.2859,-2.2859,-2.2859,-2.2859,-2.2859,-2.2859,-2.2859,-2.2859,-2.2873,-2.322,-2.3514,-2.3741,-2.4048,-2.4369,-2.4569,-2.4609,-2.4636,-2.4636,-2.4636,-2.4636,-2.4636,-2.4636,-2.4636,-2.4636,-2.4636,-2.4636,-2.4636,-2.4636,-2.4636,-2.4636,-2.4636,-2.4636,-1.7397,-1.716,-1.716,-1.7238,-1.7381,-1.7538,-1.776,-1.802,-1.832,-1.8464,-1.8438,-1.8477,-1.8372,-1.8229,-1.8099,-1.7922,-1.785,-1.7953,-1.8159,-1.8391,-1.8829,-1.8881,-1.8894,-1.901,-1.901,-1.9372,-1.9372,-1.9372,-1.9372,-1.9243,-1.9127,-1.9127,-1.901,-1.8777,-1.8687,-1.8919,-1.906,-1.9018,-1.9114,-1.9271,-1.925,-1.9424,-1.955,-1.9789,-2.0094,-2.0221,-2.0361,-2.0729,-2.0856,-2.0856,-2.0982,-2.1109,-2.1109,-2.1109,-2.1109,-2.1109,-2.1109,-2.1109,-2.1109,-2.1109,-2.1109,-2.1109,-2.1109,-2.1109,-2.1162,-2.1229,-2.1323,-2.1349,-2.1585,-2.1746,-2.175,-2.2017,-2.2271,-2.2392,-2.2552,-2.2686,-2.2792,-2.2712,-2.2659,-2.2819,-2.2859,-2.2859,-2.2859,-2.2859,-2.2859,-2.2859,-2.2859,-2.2859,-2.2859,-2.2859,-2.2859,-2.2966,-2.3327,-2.3607,-2.3808,-2.4088,-2.4449,-2.4583,-2.4623,-2.4636,-2.4636,-2.4636,-2.4636,-2.4636,-2.4636,-2.4636,-2.4636,-2.4636,-2.4636,-2.4636,-2.4636,-2.4636,-2.4636,-2.4636,-2.4636,-1.7106,-1.6617,-1.6511,-1.6675,-1.6938,-1.7001,-1.7302,-1.7831,-1.7944,-1.8083,-1.8222,-1.8045,-1.7982,-1.7906,-1.7629,-1.7503,-1.7453,-1.7603,-1.7737,-1.7886,-1.8169,-1.8311,-1.8298,-1.8415,-1.8532,-1.9127,-1.9127,-1.9127,-1.9127,-1.8997,-1.8881,-1.8765,-1.8532,-1.8298,-1.8361,-1.8513,-1.8508,-1.8282,-1.8564,-1.8569,-1.8469,-1.8541,-1.886,-1.9139,-1.9328,-1.9584,-1.9851,-2.0221,-2.0475,-2.0488,-2.0856,-2.0982,-2.0982,-2.1109,-2.1109,-2.1109,-2.1109,-2.1109,-2.1109,-2.1109,-2.1122,-2.1149,-2.1189,-2.1229,-2.1323,-2.1483,-2.159,-2.184,-2.1961,-2.2163,-2.2071,-2.2311,-2.2458,-2.2539,-2.2726,-2.2832,-2.2859,-2.2859,-2.2846,-2.2846,-2.2859,-2.2859,-2.2859,-2.2859,-2.2859,-2.2859,-2.2859,-2.2859,-2.2859,-2.2873,-2.2873,-2.302,-2.3367,-2.3861,-2.4102,-2.4195,-2.4543,-2.4596,-2.4636,-2.4636,-2.4636,-2.4636,-2.4636,-2.4636,-2.4636,-2.4636,-2.4636,-2.4636,-2.4636,-2.4636,-2.4636,-2.4636,-2.4636,-2.4636,-2.4636,-1.6574,-1.5992,-1.5518,-1.5671,-1.6296,-1.6624,-1.6903,-1.7207,-1.7438,-1.7547,-1.7584,-1.7547,-1.7511,-1.7499,-1.7499,-1.7217,-1.6704,-1.6646,-1.6704,-1.6997,-1.7244,-1.7479,-1.7596,-1.7701,-1.7935,-1.8169,-1.8298,-1.8428,-1.8544,-1.8532,-1.8298,-1.8415,-1.8052,-1.783,-1.7726,-1.7657,-1.7587,-1.7245,-1.7434,-1.7469,-1.7329,-1.7337,-1.7496,-1.7988,-1.8431,-1.8816,-1.92,-1.9584,-1.9839,-2.0234,-2.0729,-2.0856,-2.0856,-2.0982,-2.0982,-2.1109,-2.1109,-2.1109,-2.1109,-2.1122,-2.1256,-2.1403,-2.147,-2.1603,-2.175,-2.1871,-2.1937,-2.2031,-2.2178,-2.2352,-2.2352,-2.2579,-2.2752,-2.2806,-2.2806,-2.2859,-2.2859,-2.2859,-2.2859,-2.2859,-2.2859,-2.2859,-2.2859,-2.2859,-2.2859,-2.2859,-2.2859,-2.2859,-2.2859,-2.2873,-2.2886,-2.31,-2.3394,-2.3941,-2.4436,-2.4476,-2.4475,-2.4475,-2.4488,-2.4488,-2.4636,-2.4636,-2.4636,-2.4636,-2.4636,-2.4636,-2.4636,-2.4636,-2.4636,-2.4636,-2.4636,-2.4636,-2.4636,-2.4636,-2.4636,-1.5505,-1.4934,-1.4581,-1.49,-1.5501,-1.5863,-1.6115,-1.6238,-1.648,-1.6537,-1.6537,-1.6537,-1.6537,-1.6419,-1.6301,-1.5935,-1.558,-1.5461,-1.558,-1.5828,-1.6065,-1.6419,-1.6549,-1.6644,-1.6644,-1.6762,-1.6891,-1.7479,-1.8064,-1.783,-1.7596,-1.7361,-1.7244,-1.7009,-1.6891,-1.6891,-1.6773,-1.6537,-1.6549,-1.6425,-1.6321,-1.628,-1.6541,-1.6915,-1.7282,-1.7787,-1.8302,-1.8559,-1.9072,-1.9584,-2.0106,-2.0475,-2.0602,-2.0729,-2.0856,-2.0982,-2.1109,-2.1109,-2.1149,-2.1229,-2.1416,-2.1537,-2.1683,-2.183,-2.1991,-2.2098,-2.2258,-2.2418,-2.2512,-2.2645,-2.2659,-2.2792,-2.2846,-2.2859,-2.2859,-2.2859,-2.2859,-2.2859,-2.2859,-2.2859,-2.2859,-2.2859,-2.2859,-2.2859,-2.2859,-2.2859,-2.2859,-2.2859,-2.2859,-2.2913,-2.2953,-2.33,-2.3466,-2.3747,-2.4209,-2.4288,-2.4341,-2.4341,-2.4341,-2.4341,-2.4488,-2.4488,-2.4488,-2.4636,-2.4636,-2.4488,-2.4636,-2.4636,-2.4636,-2.4636,-2.4636,-2.4636,-2.4636,-2.4636,-2.4636,-1.4342,-1.393,-1.3648,-1.3994,-1.45,-1.4793,-1.5014,-1.5213,-1.5235,-1.5235,-1.5245,-1.5245,-1.5245,-1.5116,-1.4759,-1.4391,-1.4152,-1.4152,-1.4272,-1.453,-1.482,-1.4939,-1.5126,-1.5287,-1.5417,-1.5472,-1.5472,-1.6065,-1.6997,-1.6879,-1.6537,-1.6301,-1.6183,-1.6065,-1.5817,-1.5935,-1.6065,-1.6065,-1.6065,-1.5829,-1.5554,-1.5513,-1.5593,-1.6084,-1.6234,-1.6623,-1.7141,-1.7518,-1.8045,-1.8688,-1.9328,-1.9839,-2.0221,-2.0475,-2.0602,-2.0982,-2.1109,-2.1109,-2.1176,-2.1376,-2.155,-2.1683,-2.1924,-2.2071,-2.2218,-2.2418,-2.2592,-2.2806,-2.2846,-2.2832,-2.2819,-2.2859,-2.2859,-2.2859,-2.2859,-2.2859,-2.2859,-2.2859,-2.2859,-2.2859,-2.2859,-2.2859,-2.2859,-2.2859,-2.2859,-2.2859,-2.2859,-2.2859,-2.2886,-2.302,-2.3153,-2.3399,-2.3601,-2.3773,-2.3914,-2.3857,-2.3883,-2.3883,-2.3896,-2.3896,-2.4044,-2.4193,-2.4341,-2.4341,-2.4341,-2.4341,-2.4488,-2.4636,-2.4636,-2.4636,-2.4636,-2.4636,-2.4636,-2.4636,-2.4636,-1.3227,-1.2812,-1.2488,-1.272,-1.3403,-1.347,-1.3721,-1.3913,-1.3923,-1.3923,-1.3923,-1.3933,-1.3923,-1.3803,-1.3324,-1.2835,-1.2595,-1.2595,-1.2853,-1.3129,-1.3481,-1.3723,-1.4,-1.4377,-1.4319,-1.4231,-1.4301,-1.4867,-1.558,-1.5709,-1.5591,-1.5235,-1.4997,-1.4748,-1.4867,-1.4867,-1.4878,-1.4888,-1.5126,-1.4962,-1.4566,-1.4461,-1.4591,-1.4827,-1.5183,-1.5704,-1.6104,-1.6494,-1.7012,-1.7658,-1.8419,-1.906,-1.9711,-2.0348,-2.0729,-2.0982,-2.1109,-2.1109,-2.1189,-2.143,-2.1724,-2.1924,-2.2205,-2.2472,-2.2605,-2.2686,-2.2779,-2.2832,-2.2859,-2.2859,-2.2859,-2.2859,-2.2859,-2.2859,-2.2859,-2.2859,-2.2859,-2.2722,-2.2722,-2.2448,-2.2448,-2.2585,-2.2722,-2.2859,-2.2859,-2.2859,-2.2873,-2.2873,-2.2855,-2.3054,-2.3126,-2.3366,-2.3484,-2.365,-2.3632,-2.3426,-2.3438,-2.3438,-2.3451,-2.36,-2.3748,-2.3883,-2.3883,-2.3883,-2.4044,-2.4193,-2.4488,-2.4636,-2.4636,-2.4636,-2.4636,-2.4636,-2.4636,-2.4636,-2.4636,-1.1458,-1.1647,-1.1617,-1.1794,-1.2199,-1.2421,-1.2516,-1.2586,-1.2603,-1.2603,-1.2603,-1.2603,-1.2483,-1.2363,-1.1993,-1.176,-1.1511,-1.1398,-1.1582,-1.202,-1.2365,-1.2538,-1.2837,-1.3004,-1.3066,-1.303,-1.2986,-1.2924,-1.3611,-1.4162,-1.4401,-1.4043,-1.4043,-1.4043,-1.3794,-1.4043,-1.4043,-1.4081,-1.4178,-1.3892,-1.3626,-1.3545,-1.3594,-1.3857,-1.4128,-1.453,-1.5052,-1.5453,-1.5974,-1.6623,-1.726,-1.8162,-1.8932,-1.9699,-2.0221,-2.0742,-2.1155,-2.1363,-2.1403,-2.1643,-2.1911,-2.2205,-2.2472,-2.2712,-2.2846,-2.2859,-2.2859,-2.2859,-2.2859,-2.2859,-2.2859,-2.2859,-2.2859,-2.2859,-2.2859,-2.2722,-2.2585,-2.2585,-2.2448,-2.2173,-2.2035,-2.2173,-2.2186,-2.2225,-2.2375,-2.2375,-2.2415,-2.2467,-2.2562,-2.2898,-2.2962,-2.3194,-2.3267,-2.3484,-2.3239,-2.3154,-2.3154,-2.3154,-2.3154,-2.3154,-2.3438,-2.3438,-2.3438,-2.3587,-2.36,-2.3896,-2.4488,-2.4488,-2.4488,-2.4488,-2.4636,-2.4636,-2.4636,-2.4649,-2.469,-1.003,-1.0555,-1.0794,-1.1043,-1.1217,-1.1463,-1.1511,-1.1518,-1.1511,-1.1518,-1.1511,-1.1511,-1.1398,-1.1156,-1.1027,-1.0906,-1.055,-1.0587,-1.0797,-1.114,-1.1378,-1.1587,-1.1886,-1.2051,-1.1988,-1.1781,-1.188,-1.1914,-1.2043,-1.2354,-1.2835,-1.2724,-1.2835,-1.2844,-1.2844,-1.2844,-1.2964,-1.3093,-1.303,-1.2845,-1.2666,-1.2594,-1.2767,-1.2898,-1.3087,-1.335,-1.3875,-1.4268,-1.4922,-1.5583,-1.6353,-1.726,-1.8291,-1.9188,-1.9902,-2.049,-2.1044,-2.15,-2.1646,-2.1872,-2.2205,-2.2432,-2.2672,-2.2832,-2.2846,-2.2859,-2.2859,-2.2859,-2.2859,-2.2859,-2.2859,-2.2859,-2.2859,-2.2859,-2.2722,-2.2585,-2.231,-2.231,-2.2035,-2.176,-2.1622,-2.1484,-2.166,-2.1584,-2.1748,-2.1874,-2.1938,-2.2052,-2.237,-2.2777,-2.2822,-2.2986,-2.31,-2.3103,-2.2831,-2.2707,-2.2707,-2.2707,-2.2707,-2.2856,-2.3005,-2.2992,-2.2992,-2.3154,-2.3302,-2.36,-2.3896,-2.4193,-2.4341,-2.4488,-2.4488,-2.4488,-2.4488,-2.4541,-2.4688,-0.9566,-0.9696,-1.031,-1.0636,-1.0763,-1.0906,-1.0906,-1.0914,-1.0906,-1.0906,-1.0914,-1.0906,-1.0671,-1.0436,-1.0451,-1.0207,-0.9957,-0.9971,-1.0301,-1.0664,-1.0933,-1.1126,-1.1283,-1.1419,-1.1359,-1.1106,-1.1076,-1.0979,-1.0944,-1.1027,-1.1269,-1.139,-1.1752,-1.1511,-1.1511,-1.1752,-1.1881,-1.2043,-1.1963,-1.1884,-1.1806,-1.1841,-1.175,-1.2003,-1.2173,-1.2437,-1.2437,-1.3218,-1.3875,-1.453,-1.5443,-1.6483,-1.7647,-1.8606,-1.9346,-2.027,-2.0837,-2.1345,-2.1619,-2.2138,-2.2365,-2.2498,-2.2672,-2.2859,-2.2859,-2.2859,-2.2859,-2.2859,-2.2859,-2.2859,-2.2859,-2.2859,-2.2722,-2.2585,-2.2448,-2.231,-2.2035,-2.1897,-2.1622,-2.1346,-2.122,-2.1232,-2.1192,-2.1278,-2.1455,-2.1595,-2.1998,-2.2124,-2.2375,-2.2714,-2.2718,-2.2855,-2.293,-2.2694,-2.2408,-2.242,-2.2558,-2.2558,-2.257,-2.242,-2.2408,-2.2558,-2.2707,-2.2856,-2.2856,-2.3154,-2.3328,-2.3527,-2.3838,-2.4219,-2.4515,-2.4311,-2.4565,-2.4657,-2.4855,-0.9523,-0.9734,-0.9975,-1.013,-1.0186,-1.0186,-1.0179,-1.0186,-1.0186,-1.0186,-1.0186,-1.0186,-1.0065,-1.0086,-1.0053,-1.0088,-0.9985,-1.012,-1.0342,-1.0445,-1.069,-1.076,-1.0925,-1.0925,-1.0869,-1.0622,-1.0552,-1.0418,-1.02,-1.0308,-1.0301,-1.0422,-1.0785,-1.1027,-1.1027,-1.0906,-1.1035,-1.1241,-1.1286,-1.1366,-1.1195,-1.1293,-1.1322,-1.1505,-1.1512,-1.1776,-1.2041,-1.2437,-1.2964,-1.3498,-1.4557,-1.5613,-1.6817,-1.7815,-1.8853,-1.9805,-2.0397,-2.1098,-2.1546,-2.2041,-2.2485,-2.2686,-2.2806,-2.2859,-2.2859,-2.2859,-2.2859,-2.2859,-2.2859,-2.2722,-2.2585,-2.2448,-2.2448,-2.231,-2.2035,-2.1897,-2.176,-2.1622,-2.1358,-2.1081,-2.0979,-2.0877,-2.0999,-2.1132,-2.1298,-2.1488,-2.1783,-2.2054,-2.241,-2.2583,-2.2559,-2.2633,-2.2694,-2.2558,-2.242,-2.2271,-2.2271,-2.2271,-2.2271,-2.2271,-2.2271,-2.2271,-2.2408,-2.2558,-2.2582,-2.2756,-2.2955,-2.2879,-2.3192,-2.3578,-2.3967,-2.4096,-2.4363,-2.4796,-2.5006,-0.9557,-0.9808,-0.9822,-0.9822,-0.9822,-0.9822,-0.9822,-0.9822,-0.9822,-0.9822,-0.9822,-0.9822,-0.9856,-0.991,-0.9985,-1.0086,-1.0141,-1.027,-1.0385,-1.0473,-1.0541,-1.0622,-1.067,-1.0629,-1.0616,-1.0317,-1.0202,-1.0053,-0.9829,-0.9822,-0.9822,-1.0065,-1.0179,-1.0422,-1.0422,-1.055,-1.0565,-1.0681,-1.0739,-1.0948,-1.0756,-1.0967,-1.1108,-1.1115,-1.1115,-1.1164,-1.1585,-1.1881,-1.2311,-1.2869,-1.3686,-1.4732,-1.583,-1.696,-1.815,-1.9131,-2.0014,-2.0687,-2.117,-2.1765,-2.2238,-2.2395,-2.2435,-2.2448,-2.2585,-2.2585,-2.2448,-2.2448,-2.2585,-2.2448,-2.2173,-2.2173,-2.2173,-2.1897,-2.176,-2.1484,-2.1346,-2.1207,-2.0943,-2.0804,-2.075,-2.0883,-2.1052,-2.1221,-2.1545,-2.1606,-2.1995,-2.2191,-2.2288,-2.2423,-2.2347,-2.2396,-2.2408,-2.242,-2.2271,-2.2271,-2.2271,-2.2271,-2.2271,-2.2271,-2.2271,-2.2271,-2.2271,-2.242,-2.2457,-2.2367,-2.2651,-2.2961,-2.29,-2.2941,-2.3404,-2.4049,-2.4393,-2.4688,-2.4856,-0.9551,-0.9808,-0.9822,-0.9822,-0.97,-0.9822,-0.9822,-0.9822,-0.9822,-0.9822,-0.9822,-0.9829,-0.991,-1.0012,-1.0073,-1.0175,-1.029,-1.0419,-1.0507,-1.0548,-1.0629,-1.0704,-1.0649,-1.0568,-1.0439,-1.0283,-1.0154,-1.0005,-0.9822,-0.9822,-0.9822,-0.9822,-0.9943,-0.9943,-0.9822,-0.9822,-0.9897,-1.0039,-1.0321,-1.0458,-1.0603,-1.0761,-1.0836,-1.085,-1.0884,-1.0946,-1.1142,-1.1475,-1.1789,-1.227,-1.3118,-1.4205,-1.5297,-1.6435,-1.7506,-1.8528,-1.9551,-2.0275,-2.0756,-2.1459,-2.1747,-2.2022,-2.2035,-2.2035,-2.1897,-2.1897,-2.2035,-2.2035,-2.2035,-2.1897,-2.176,-2.176,-2.176,-2.1622,-2.1358,-2.122,-2.1081,-2.0943,-2.0804,-2.0702,-2.0895,-2.1088,-2.1269,-2.1462,-2.1728,-2.1909,-2.2102,-2.2198,-2.2198,-2.2223,-2.2259,-2.2271,-2.2271,-2.2271,-2.2271,-2.2271,-2.2271,-2.2271,-2.2271,-2.2271,-2.2271,-2.2271,-2.2271,-2.2295,-2.2404,-2.2524,-2.2718,-2.2911,-2.3064,-2.3243,-2.3562,-2.402,-2.4377,-2.471,-2.4667,-0.9202,-0.9721,-0.9348,-0.922,-0.9214,-0.97,-0.9822,-0.9822,-0.9822,-0.9822,-0.9842,-0.9917,-0.9992,-1.0086,-1.0249,-1.0365,-1.0432,-1.0575,-1.0643,-1.0649,-1.0697,-1.0636,-1.0575,-1.0487,-1.0351,-1.0175,-1.0046,-0.9958,-0.9822,-0.9822,-0.9822,-0.9822,-0.9822,-0.9822,-0.9822,-0.9829,-0.9897,-1.0046,-1.0202,-1.0351,-1.0493,-1.0636,-1.0724,-1.0731,-1.0812,-1.0894,-1.0975,-1.1186,-1.1544,-1.1877,-1.272,-1.3538,-1.4516,-1.5512,-1.6746,-1.7707,-1.8738,-1.9461,-2.0098,-2.0792,-2.1346,-2.1496,-2.1772,-2.1772,-2.176,-2.176,-2.176,-2.1772,-2.1634,-2.1622,-2.1484,-2.1346,-2.1358,-2.1081,-2.0943,-2.0804,-2.0804,-2.0804,-2.0678,-2.075,-2.0883,-2.1305,-2.1571,-2.1728,-2.1969,-2.2066,-2.2198,-2.2235,-2.2235,-2.2235,-2.2271,-2.2271,-2.2271,-2.2271,-2.2271,-2.2271,-2.2271,-2.2271,-2.2271,-2.2271,-2.2271,-2.2307,-2.2416,-2.25,-2.2609,-2.2718,-2.2971,-2.32,-2.3369,-2.3599,-2.384,-2.4009,-2.4024,-2.4306,-2.438,-0.8586,-0.9405,-0.8958,-0.8604,-0.8726,-0.9214,-0.9579,-0.9579,-0.9579,-0.97,-0.9849,-0.9978,-1.0086,-1.0188,-1.0365,-1.0548,-1.0575,-1.0663,-1.0717,-1.0711,-1.0649,-1.0582,-1.05,-1.0378,-1.0222,-1.0066,-0.9985,-0.9903,-0.9822,-0.9822,-0.9822,-0.9822,-0.9822,-0.9863,-0.9883,-0.993,-0.9985,-1.0141,-1.0297,-1.0439,-1.0568,-1.0677,-1.0751,-1.0812,-1.09,-1.0995,-1.1097,-1.1185,-1.1406,-1.1845,-1.2285,-1.2982,-1.3727,-1.4754,-1.5961,-1.6867,-1.8036,-1.8854,-1.9692,-2.0249,-2.0665,-2.1081,-2.1358,-2.1358,-2.1496,-2.1358,-2.1358,-2.1358,-2.1496,-2.1358,-2.1081,-2.1081,-2.0943,-2.0665,-2.0665,-2.0665,-2.0678,-2.0678,-2.0762,-2.0822,-2.1064,-2.1486,-2.186,-2.2017,-2.2198,-2.2235,-2.2259,-2.2271,-2.2271,-2.2271,-2.2271,-2.2271,-2.2271,-2.2271,-2.2271,-2.2271,-2.2271,-2.2271,-2.2283,-2.2307,-2.2416,-2.2488,-2.2597,-2.2742,-2.2923,-2.3104,-2.3297,-2.349,-2.3599,-2.3659,-2.3647,-2.3866,-2.3828,-2.4012,-2.4172,-0.7943,-0.8677,-0.843,-0.8105,-0.7983,-0.8482,-0.8976,-0.9214,-0.9335,-0.9457,-0.9714,-0.9868,-1.0009,-1.0283,-1.0432,-1.0575,-1.0677,-1.0711,-1.0697,-1.0663,-1.0575,-1.05,-1.0371,-1.0209,-1.0093,-1.0005,-0.9924,-0.9863,-0.9822,-0.9822,-0.9822,-0.9829,-0.9856,-0.9917,-0.9985,-1.0086,-1.0154,-1.029,-1.0385,-1.0527,-1.0656,-1.0704,-1.0792,-1.0873,-1.0968,-1.1118,-1.1246,-1.1375,-1.1463,-1.1667,-1.2008,-1.2588,-1.3309,-1.403,-1.5035,-1.631,-1.758,-1.8563,-1.9413,-1.9831,-2.011,-2.0388,-2.0527,-2.0665,-2.0804,-2.0943,-2.0943,-2.0943,-2.0943,-2.0804,-2.0804,-2.0804,-2.0804,-2.0665,-2.0665,-2.0665,-2.0678,-2.0738,-2.0847,-2.1016,-2.1305,-2.1667,-2.2042,-2.2259,-2.2271,-2.2271,-2.2271,-2.2271,-2.2271,-2.2271,-2.2271,-2.2271,-2.2271,-2.2271,-2.2271,-2.2271,-2.2271,-2.2271,-2.2205,-2.2253,-2.2524,-2.2529,-2.2673,-2.2698,-2.3128,-2.3466,-2.3575,-2.3683,-2.378,-2.3804,-2.378,-2.3792,-2.384,-2.384,-2.384,-0.6696,-0.7459,-0.701,-0.7064,-0.7255,-0.7388,-0.7872,-0.8599,-0.8848,-0.9092,-0.9233,-0.9593,-0.9836,-1.0035,-1.0404,-1.0663,-1.0704,-1.0704,-1.0636,-1.0568,-1.0487,-1.0351,-1.0215,-1.0086,-0.9985,-0.991,-0.9849,-0.9822,-0.9822,-0.9822,-0.9822,-0.9829,-0.9924,-1.0005,-1.012,-1.0256,-1.0351,-1.0426,-1.0487,-1.0588,-1.069,-1.0731,-1.0833,-1.0934,-1.1063,-1.1219,-1.1362,-1.1497,-1.1572,-1.1599,-1.2051,-1.2338,-1.2481,-1.3476,-1.4617,-1.6178,-1.7308,-1.8293,-1.8714,-1.9413,-1.9831,-1.997,-2.011,-2.0388,-2.0527,-2.0665,-2.0665,-2.0665,-2.0665,-2.0665,-2.0665,-2.0665,-2.0665,-2.0665,-2.0678,-2.069,-2.0726,-2.0847,-2.0967,-2.1078,-2.1366,-2.1678,-2.2049,-2.2121,-2.2121,-2.2271,-2.2271,-2.2271,-2.2271,-2.2271,-2.2271,-2.2271,-2.2271,-2.2271,-2.2271,-2.2271,-2.2271,-2.2283,-2.2265,-2.2106,-2.2236,-2.2247,-2.2435,-2.2804,-2.3198,-2.35,-2.378,-2.384,-2.384,-2.384,-2.3816,-2.3828,-2.384,-2.384,-2.384,-0.5276,-0.5848,-0.5802,-0.5985,-0.6276,-0.6403,-0.6771,-0.7255,-0.7994,-0.8482,-0.8757,-0.9129,-0.9506,-0.9678,-1.0038,-1.0319,-1.0445,-1.0379,-1.0444,-1.0514,-1.0378,-1.0229,-1.0086,-0.9985,-0.991,-0.9842,-0.9822,-0.9822,-0.9822,-0.9829,-0.9836,-0.993,-1.0025,-1.012,-1.0243,-1.0392,-1.05,-1.0555,-1.0602,-1.0643,-1.0704,-1.0778,-1.09,-1.1029,-1.1172,-1.1321,-1.1457,-1.1586,-1.1606,-1.1619,-1.1907,-1.2051,-1.2338,-1.3333,-1.4181,-1.5603,-1.6461,-1.7157,-1.7721,-1.8563,-1.9133,-1.9413,-1.9692,-1.997,-2.0249,-2.0388,-2.0527,-2.0665,-2.0665,-2.0665,-2.0665,-2.0665,-2.0665,-2.0665,-2.069,-2.0726,-2.0834,-2.0955,-2.1172,-2.127,-2.1412,-2.171,-2.19,-2.1786,-2.181,-2.166,-2.166,-2.166,-2.181,-2.2109,-2.2271,-2.2271,-2.2271,-2.2271,-2.2283,-2.2193,-2.2115,-2.2198,-2.2071,-2.2047,-2.1986,-2.2148,-2.2356,-2.2723,-2.3081,-2.3324,-2.352,-2.368,-2.384,-2.384,-2.384,-2.384,-2.384,-2.384,-2.384,-0.4001,-0.4496,-0.4622,-0.4923,-0.5298,-0.554,-0.554,-0.5421,-0.6526,-0.7505,-0.8161,-0.8506,-0.8869,-0.9044,-0.9527,-0.9763,-0.9996,-0.992,-1.0084,-1.0317,-1.0102,-0.9942,-0.9861,-0.9903,-0.9856,-0.9829,-0.9822,-0.9822,-0.9829,-0.9863,-0.9937,-1.0053,-1.0114,-1.0222,-1.0405,-1.05,-1.0588,-1.0656,-1.0683,-1.0717,-1.0778,-1.088,-1.1023,-1.1172,-1.1307,-1.1443,-1.1565,-1.1619,-1.1619,-1.1619,-1.1619,-1.1763,-1.2481,-1.3047,-1.3753,-1.4608,-1.5603,-1.6169,-1.6875,-1.758,-1.8153,-1.8573,-1.8982,-1.9401,-1.968,-2.0249,-2.0388,-2.0527,-2.0527,-2.0527,-2.0527,-2.0527,-2.0527,-2.0435,-2.0332,-2.0403,-2.0533,-2.0734,-2.1041,-2.1132,-2.1343,-2.1452,-2.1164,-2.121,-2.106,-2.106,-2.091,-2.106,-2.121,-2.166,-2.181,-2.196,-2.2121,-2.2145,-2.2253,-2.2174,-2.2001,-2.1977,-2.1843,-2.1669,-2.1626,-2.1795,-2.2134,-2.2419,-2.2682,-2.3015,-2.3199,-2.352,-2.368,-2.384,-2.384,-2.384,-2.384,-2.384,-2.384,-0.3169,-0.3722,-0.3544,-0.3697,-0.4189,-0.4312,-0.4312,-0.4312,-0.4558,-0.554,-0.6808,-0.7476,-0.7842,-0.8119,-0.8841,-0.9191,-0.9234,-0.9293,-0.9453,-0.9602,-0.9568,-0.9477,-0.9536,-0.9612,-0.97,-0.9822,-0.9822,-0.9829,-0.9863,-0.993,-1.0012,-1.0086,-1.0209,-1.0419,-1.0507,-1.0582,-1.0677,-1.0717,-1.0751,-1.0806,-1.09,-1.0948,-1.105,-1.1246,-1.1409,-1.1477,-1.1572,-1.1619,-1.1619,-1.1619,-1.1619,-1.1763,-1.2194,-1.2481,-1.3047,-1.3896,-1.4608,-1.5177,-1.5886,-1.6593,-1.7157,-1.7721,-1.8142,-1.8703,-1.9273,-1.9831,-2.0249,-2.0249,-2.0388,-2.0388,-2.0412,-2.0272,-2.0308,-2.0087,-2.0005,-2.0121,-2.0237,-2.0561,-2.0897,-2.0946,-2.1153,-2.0898,-2.0597,-2.0447,-2.0447,-2.0296,-2.0145,-2.0145,-2.0296,-2.0586,-2.1048,-2.121,-2.166,-2.1869,-2.2011,-2.1872,-2.1858,-2.159,-2.1301,-2.1276,-2.1239,-2.1188,-2.1307,-2.1695,-2.2084,-2.2406,-2.2878,-2.3211,-2.3371,-2.368,-2.384,-2.384,-2.384,-2.368,-2.384,-0.2136,-0.2778,-0.2573,-0.2958,-0.3451,-0.333,-0.3328,-0.3328,-0.3453,-0.4069,-0.519,-0.6051,-0.6629,-0.6896,-0.7697,-0.8154,-0.8199,-0.8269,-0.8568,-0.8711,-0.8865,-0.8922,-0.9111,-0.9214,-0.9457,-0.9579,-0.9707,-0.9849,-0.9794,-0.9998,-1.008,-1.0229,-1.0432,-1.0527,-1.0582,-1.0683,-1.0717,-1.0724,-1.0778,-1.09,-1.1023,-1.1077,-1.1151,-1.1335,-1.1463,-1.1531,-1.1572,-1.1619,-1.1619,-1.1619,-1.1619,-1.1619,-1.1907,-1.2194,-1.2481,-1.3047,-1.3611,-1.4173,-1.4893,-1.5461,-1.616,-1.6593,-1.7298,-1.7731,-1.7861,-1.8563,-1.9401,-1.9541,-1.9959,-1.9959,-2.0145,-2.0051,-2.0167,-2.0117,-2.0186,-2.0278,-2.0195,-2.032,-2.0214,-2.0036,-1.9995,-1.9844,-1.9542,-1.9239,-1.9088,-1.8936,-1.8926,-1.8926,-1.9229,-1.9542,-1.9995,-2.048,-2.0804,-2.1348,-2.165,-2.154,-2.1412,-2.1144,-2.0899,-2.0356,-2.0138,-2.021,-2.0455,-2.079,-2.1276,-2.1761,-2.2245,-2.2728,-2.3211,-2.3359,-2.368,-2.384,-2.368,-2.3532,-2.3544,-0.1207,-0.1698,-0.1718,-0.2097,-0.2714,-0.2467,-0.2467,-0.259,-0.2716,-0.3086,-0.3458,-0.4371,-0.515,-0.5693,-0.6006,-0.6541,-0.6919,-0.7005,-0.7316,-0.7749,-0.8044,-0.8139,-0.8372,-0.8604,-0.897,-0.9233,-0.9496,-0.9691,-0.9777,-0.9876,-1.0149,-1.046,-1.0541,-1.0582,-1.0683,-1.0724,-1.0731,-1.0792,-1.088,-1.1023,-1.1118,-1.1199,-1.1301,-1.1423,-1.1538,-1.1613,-1.1619,-1.1619,-1.1619,-1.1619,-1.1619,-1.1619,-1.1763,-1.1907,-1.2051,-1.2481,-1.2904,-1.3325,-1.3896,-1.4466,-1.4893,-1.5461,-1.6188,-1.6632,-1.6783,-1.7389,-1.8378,-1.8812,-1.9093,-1.9419,-1.9588,-1.9712,-1.9836,-1.9804,-1.9882,-1.9848,-1.9933,-1.9832,-1.9457,-1.9088,-1.8936,-1.8795,-1.8481,-1.8025,-1.7873,-1.7721,-1.7721,-1.7711,-1.7873,-1.8197,-1.8511,-1.917,-1.9679,-2.0244,-2.1011,-2.1223,-2.1122,-2.0549,-2.0279,-1.94,-1.8981,-1.8981,-1.9153,-1.9642,-2.013,-2.079,-2.1599,-2.2084,-2.2567,-2.3038,-2.3211,-2.3359,-2.3359,-2.3211,-2.3246,-0.0486,-0.1107,-0.0617,-0.0741,-0.1358,-0.1358,-0.1605,-0.2099,-0.2099,-0.2222,-0.2346,-0.2474,-0.3238,-0.4416,-0.4603,-0.4993,-0.5437,-0.5655,-0.5986,-0.6298,-0.678,-0.7016,-0.7388,-0.7894,-0.861,-0.8891,-0.9082,-0.9162,-0.94,-0.98,-1.0038,-1.0117,-1.0504,-1.0677,-1.0697,-1.0731,-1.0772,-1.0853,-1.0955,-1.1077,-1.128,-1.1362,-1.1436,-1.1531,-1.1599,-1.1619,-1.1619,-1.1619,-1.1619,-1.1619,-1.1619,-1.1619,-1.1619,-1.1763,-1.1907,-1.2051,-1.2481,-1.2639,-1.3213,-1.3507,-1.3945,-1.4424,-1.5032,-1.5705,-1.6039,-1.672,-1.7319,-1.7639,-1.8063,-1.8454,-1.8693,-1.8757,-1.8852,-1.8644,-1.857,-1.8607,-1.8501,-1.8411,-1.8299,-1.8025,-1.7873,-1.7569,-1.7264,-1.6959,-1.6806,-1.6653,-1.6348,-1.6501,-1.6653,-1.6986,-1.7176,-1.7875,-1.8568,-1.9502,-2.0457,-2.064,-2.0528,-2.0107,-1.943,-1.8318,-1.7673,-1.7673,-1.7837,-1.8337,-1.9153,-1.9967,-2.0617,-2.1265,-2.1911,-2.2234,-2.2567,-2.2728,-2.2728,-2.2774,-2.252]}]]